Wetterdaten: Donnerstag, 25.10.2018
Datum Zeit Temp. A. Pool Temp. Temp. 5cm Feuchte A. Luftdruck Regen Wind Richtung Richtung Sonnenschein ET UV Solar Taupunkt Windchill Windben Empfang
25.10.2018 00:00 10,4 C 11,1 C 10,0 C 93 % 1020,2 hPa 0,0 l/m 13,6 km/h (3 Bft) W-SW 255 0 min 0,000 mm 0,0 UV-I 0 W/m 9,3 C 6,2 C 17,7 km/h (3 Bft) 96,00 %
25.10.2018 00:02 10,4 C 11,1 C 10,0 C 93 % 1020,2 hPa 0,0 l/m 15,7 km/h (3 Bft) W 280 0 min 0,000 mm 0,0 UV-I 0 W/m 9,3 C 5,3 C 22,5 km/h (4 Bft) 94,87 %
25.10.2018 00:04 10,4 C 11,1 C 10,0 C 93 % 1020,2 hPa 0,0 l/m 15,7 km/h (3 Bft) W 270 0 min 0,000 mm 0,0 UV-I 0 W/m 9,3 C 5,3 C 29,0 km/h (5 Bft) 95,12 %
25.10.2018 00:06 10,4 C 11,1 C 10,0 C 93 % 1020,1 hPa 0,2 l/m 16,3 km/h (3 Bft) W-NW 288 0 min 0,000 mm 0,0 UV-I 0 W/m 9,3 C 5,1 C 30,6 km/h (5 Bft) 96,43 %
25.10.2018 00:08 10,4 C 11,1 C 10,0 C 93 % 1020,0 hPa 0,0 l/m 15,5 km/h (3 Bft) W-SW 251 0 min 0,000 mm 0,0 UV-I 0 W/m 9,3 C 5,4 C 24,1 km/h (4 Bft) 94,29 %
25.10.2018 00:10 10,4 C 11,1 C 10,0 C 93 % 1020,0 hPa 0,0 l/m 15,6 km/h (3 Bft) W-NW 293 0 min 0,000 mm 0,0 UV-I 0 W/m 9,3 C 5,4 C 22,5 km/h (4 Bft) 94,64 %
25.10.2018 00:12 10,4 C 11,1 C 10,0 C 93 % 1020,0 hPa 0,0 l/m 14,6 km/h (3 Bft) W 263 0 min 0,000 mm 0,0 UV-I 0 W/m 9,3 C 5,8 C 25,7 km/h (4 Bft) 95,45 %
25.10.2018 00:14 10,4 C 11,1 C 10,0 C 93 % 1020,0 hPa 0,0 l/m 16,1 km/h (3 Bft) W-NW 291 0 min 0,000 mm 0,0 UV-I 0 W/m 9,3 C 5,2 C 24,1 km/h (4 Bft) 98,00 %
25.10.2018 00:16 10,4 C 11,1 C 10,0 C 93 % 1020,0 hPa 0,0 l/m 16,8 km/h (3 Bft) NW 314 0 min 0,000 mm 0,0 UV-I 0 W/m 9,3 C 4,9 C 29,0 km/h (5 Bft) 97,87 %
25.10.2018 00:18 10,4 C 11,1 C 10,0 C 92 % 1019,9 hPa 0,0 l/m 14,5 km/h (3 Bft) W-NW 288 0 min 0,000 mm 0,0 UV-I 0 W/m 9,2 C 5,8 C 22,5 km/h (4 Bft) 96,00 %
25.10.2018 00:20 10,4 C 11,1 C 10,0 C 92 % 1019,9 hPa 0,0 l/m 13,2 km/h (3 Bft) W 266 0 min 0,000 mm 0,0 UV-I 0 W/m 9,2 C 6,4 C 19,3 km/h (3 Bft) 96,00 %
25.10.2018 00:22 10,4 C 11,1 C 10,0 C 92 % 1020,0 hPa 0,0 l/m 9,9 km/h (2 Bft) W 278 0 min 0,000 mm 0,0 UV-I 0 W/m 9,2 C 8,1 C 16,1 km/h (3 Bft) 95,74 %
25.10.2018 00:24 10,3 C 11,1 C 10,0 C 93 % 1020,0 hPa 0,0 l/m 11,5 km/h (2 Bft) W-NW 290 0 min 0,000 mm 0,0 UV-I 0 W/m 9,2 C 7,1 C 16,1 km/h (3 Bft) 95,45 %
25.10.2018 00:26 10,4 C 11,1 C 10,0 C 93 % 1020,0 hPa 0,0 l/m 12,2 km/h (2 Bft) W 271 0 min 0,000 mm 0,0 UV-I 0 W/m 9,3 C 6,9 C 19,3 km/h (3 Bft) 95,45 %
25.10.2018 00:28 10,4 C 11,1 C 10,0 C 93 % 1019,9 hPa 0,0 l/m 12,6 km/h (3 Bft) W-SW 248 0 min 0,000 mm 0,0 UV-I 0 W/m 9,3 C 6,7 C 20,9 km/h (4 Bft) 94,00 %
25.10.2018 00:30 10,4 C 11,1 C 10,0 C 93 % 1020,0 hPa 0,0 l/m 9,9 km/h (2 Bft) W 261 0 min 0,000 mm 0,0 UV-I 0 W/m 9,3 C 8,1 C 14,5 km/h (3 Bft) 94,87 %
25.10.2018 00:32 10,4 C 11,1 C 10,0 C 93 % 1019,9 hPa 0,0 l/m 11,0 km/h (2 Bft) NW 310 0 min 0,000 mm 0,0 UV-I 0 W/m 9,3 C 7,5 C 14,5 km/h (3 Bft) 94,55 %
25.10.2018 00:34 10,4 C 11,1 C 10,0 C 93 % 1019,9 hPa 0,0 l/m 8,4 km/h (2 Bft) W 262 0 min 0,000 mm 0,0 UV-I 0 W/m 9,3 C 9,0 C 12,9 km/h (3 Bft) 95,83 %
25.10.2018 00:36 10,4 C 11,1 C 10,0 C 93 % 1020,0 hPa 0,0 l/m 12,3 km/h (3 Bft) W-SW 254 0 min 0,000 mm 0,0 UV-I 0 W/m 9,3 C 6,8 C 17,7 km/h (3 Bft) 95,74 %
25.10.2018 00:38 10,4 C 11,1 C 10,0 C 93 % 1020,0 hPa 0,0 l/m 9,3 km/h (2 Bft) W-SW 252 0 min 0,000 mm 0,0 UV-I 0 W/m 9,3 C 8,4 C 16,1 km/h (3 Bft) 94,74 %
25.10.2018 00:40 10,4 C 11,1 C 10,0 C 93 % 1020,0 hPa 0,0 l/m 11,6 km/h (2 Bft) W 275 0 min 0,000 mm 0,0 UV-I 0 W/m 9,3 C 7,2 C 19,3 km/h (3 Bft) 96,00 %
25.10.2018 00:42 10,4 C 11,1 C 10,0 C 93 % 1020,0 hPa 0,0 l/m 9,6 km/h (2 Bft) W-SW 245 0 min 0,000 mm 0,0 UV-I 0 W/m 9,3 C 8,3 C 12,9 km/h (3 Bft) 95,74 %
25.10.2018 00:44 10,5 C 11,1 C 10,0 C 93 % 1020,0 hPa 0,0 l/m 6,8 km/h (2 Bft) W 280 0 min 0,000 mm 0,0 UV-I 0 W/m 9,4 C 10,2 C 12,9 km/h (3 Bft) 96,00 %
25.10.2018 00:46 10,5 C 11,1 C 10,0 C 93 % 1020,0 hPa 0,0 l/m 10,9 km/h (2 Bft) W 275 0 min 0,000 mm 0,0 UV-I 0 W/m 9,4 C 7,7 C 19,3 km/h (3 Bft) 95,12 %
25.10.2018 00:48 10,5 C 11,1 C 10,0 C 93 % 1020,0 hPa 0,0 l/m 10,0 km/h (2 Bft) W 261 0 min 0,000 mm 0,0 UV-I 0 W/m 9,4 C 8,1 C 14,5 km/h (3 Bft) 98,00 %
25.10.2018 00:50 10,5 C 11,1 C 10,0 C 93 % 1020,0 hPa 0,0 l/m 9,9 km/h (2 Bft) W 260 0 min 0,000 mm 0,0 UV-I 0 W/m 9,4 C 8,2 C 14,5 km/h (3 Bft) 96,00 %
25.10.2018 00:52 10,5 C 11,1 C 10,0 C 93 % 1020,0 hPa 0,0 l/m 10,2 km/h (2 Bft) W-NW 295 0 min 0,000 mm 0,0 UV-I 0 W/m 9,4 C 8,0 C 16,1 km/h (3 Bft) 97,37 %
25.10.2018 00:54 10,6 C 11,1 C 10,0 C 93 % 1020,0 hPa 0,0 l/m 9,5 km/h (2 Bft) W 271 0 min 0,000 mm 0,0 UV-I 0 W/m 9,5 C 8,5 C 17,7 km/h (3 Bft) 97,87 %
25.10.2018 00:56 10,6 C 11,1 C 10,0 C 93 % 1020,0 hPa 0,0 l/m 8,8 km/h (2 Bft) W 267 0 min 0,000 mm 0,0 UV-I 0 W/m 9,5 C 9,0 C 12,9 km/h (3 Bft) 100,00 %
25.10.2018 00:58 10,6 C 11,1 C 10,0 C 93 % 1020,0 hPa 0,0 l/m 11,6 km/h (2 Bft) W 269 0 min 0,000 mm 0,0 UV-I 0 W/m 9,5 C 7,4 C 16,1 km/h (3 Bft) 100,00 %
25.10.2018 01:00 10,6 C 11,1 C 10,0 C 93 % 1020,0 hPa 0,0 l/m 12,3 km/h (3 Bft) W-SW 251 0 min 0,000 mm 0,0 UV-I 0 W/m 9,5 C 7,1 C 16,1 km/h (3 Bft) 100,00 %
25.10.2018 01:02 10,6 C 11,1 C 10,0 C 93 % 1020,0 hPa 0,0 l/m 11,8 km/h (2 Bft) W 273 0 min 0,000 mm 0,0 UV-I 0 W/m 9,5 C 7,3 C 20,9 km/h (4 Bft) 100,00 %
25.10.2018 01:04 10,6 C 11,1 C 10,0 C 93 % 1019,9 hPa 0,0 l/m 10,0 km/h (2 Bft) W 260 0 min 0,000 mm 0,0 UV-I 0 W/m 9,5 C 8,3 C 17,7 km/h (3 Bft) 100,00 %
25.10.2018 01:06 10,6 C 11,1 C 10,6 C 93 % 1019,7 hPa 0,0 l/m 11,4 km/h (2 Bft) W-SW 242 0 min 0,000 mm 0,0 UV-I 0 W/m 9,5 C 7,5 C 17,7 km/h (3 Bft) 100,00 %
25.10.2018 01:08 10,6 C 11,1 C 10,6 C 93 % 1019,7 hPa 0,0 l/m 9,9 km/h (2 Bft) W 263 0 min 0,000 mm 0,0 UV-I 0 W/m 9,5 C 8,3 C 12,9 km/h (3 Bft) 100,00 %
25.10.2018 01:10 10,7 C 11,1 C 10,6 C 93 % 1019,7 hPa 0,0 l/m 12,9 km/h (3 Bft) W 280 0 min 0,000 mm 0,0 UV-I 0 W/m 9,6 C 6,9 C 17,7 km/h (3 Bft) 100,00 %
25.10.2018 01:12 10,7 C 11,1 C 10,6 C 93 % 1019,6 hPa 0,0 l/m 13,0 km/h (3 Bft) W-SW 240 0 min 0,000 mm 0,0 UV-I 0 W/m 9,6 C 6,8 C 20,9 km/h (4 Bft) 98,21 %
25.10.2018 01:14 10,7 C 11,1 C 10,6 C 93 % 1019,7 hPa 0,0 l/m 10,5 km/h (2 Bft) W 263 0 min 0,000 mm 0,0 UV-I 0 W/m 9,6 C 8,1 C 17,7 km/h (3 Bft) 100,00 %
25.10.2018 01:16 10,7 C 11,1 C 10,6 C 93 % 1019,6 hPa 0,0 l/m 14,6 km/h (3 Bft) W 281 0 min 0,000 mm 0,0 UV-I 0 W/m 9,6 C 6,1 C 20,9 km/h (4 Bft) 97,37 %
25.10.2018 01:18 10,7 C 11,1 C 10,6 C 93 % 1019,6 hPa 0,0 l/m 14,1 km/h (3 Bft) W 279 0 min 0,000 mm 0,0 UV-I 0 W/m 9,6 C 6,4 C 19,3 km/h (3 Bft) 100,00 %
25.10.2018 01:20 10,7 C 11,1 C 10,6 C 93 % 1019,5 hPa 0,0 l/m 15,9 km/h (3 Bft) W-SW 258 0 min 0,000 mm 0,0 UV-I 0 W/m 9,6 C 5,6 C 24,1 km/h (4 Bft) 100,00 %
25.10.2018 01:22 10,8 C 11,1 C 10,6 C 93 % 1019,6 hPa 0,0 l/m 16,7 km/h (3 Bft) W 270 0 min 0,000 mm 0,0 UV-I 0 W/m 9,7 C 5,4 C 25,7 km/h (4 Bft) 100,00 %
25.10.2018 01:24 10,8 C 11,1 C 10,6 C 92 % 1019,6 hPa 0,0 l/m 15,0 km/h (3 Bft) W-SW 246 0 min 0,000 mm 0,0 UV-I 0 W/m 9,6 C 6,1 C 22,5 km/h (4 Bft) 100,00 %
25.10.2018 01:26 10,8 C 11,1 C 10,6 C 92 % 1019,6 hPa 0,0 l/m 14,5 km/h (3 Bft) W 265 0 min 0,000 mm 0,0 UV-I 0 W/m 9,6 C 6,3 C 20,9 km/h (4 Bft) 100,00 %
25.10.2018 01:28 10,8 C 11,1 C 10,6 C 92 % 1019,6 hPa 0,0 l/m 17,2 km/h (3 Bft) W-SW 250 0 min 0,000 mm 0,0 UV-I 0 W/m 9,6 C 5,3 C 30,6 km/h (5 Bft) 100,00 %
25.10.2018 01:30 10,8 C 11,1 C 10,6 C 92 % 1019,6 hPa 0,0 l/m 17,1 km/h (3 Bft) W-SW 258 0 min 0,000 mm 0,0 UV-I 0 W/m 9,6 C 5,3 C 35,4 km/h (5 Bft) 100,00 %
25.10.2018 01:32 10,8 C 11,1 C 10,6 C 92 % 1019,6 hPa 0,0 l/m 11,7 km/h (2 Bft) W 271 0 min 0,000 mm 0,0 UV-I 0 W/m 9,6 C 7,6 C 16,1 km/h (3 Bft) 100,00 %
25.10.2018 01:34 10,8 C 11,1 C 10,6 C 92 % 1019,7 hPa 0,0 l/m 14,3 km/h (3 Bft) W-SW 258 0 min 0,000 mm 0,0 UV-I 0 W/m 9,6 C 6,4 C 20,9 km/h (4 Bft) 100,00 %
25.10.2018 01:36 10,7 C 11,1 C 10,6 C 92 % 1019,7 hPa 0,0 l/m 14,1 km/h (3 Bft) W 261 0 min 0,000 mm 0,0 UV-I 0 W/m 9,5 C 6,4 C 20,9 km/h (4 Bft) 100,00 %
25.10.2018 01:38 10,7 C 11,1 C 10,0 C 92 % 1019,7 hPa 0,0 l/m 11,9 km/h (2 Bft) W 264 0 min 0,000 mm 0,0 UV-I 0 W/m 9,5 C 7,4 C 19,3 km/h (3 Bft) 100,00 %
25.10.2018 01:40 10,6 C 11,1 C 10,0 C 92 % 1019,6 hPa 0,0 l/m 12,2 km/h (2 Bft) W 272 0 min 0,000 mm 0,0 UV-I 0 W/m 9,4 C 7,1 C 17,7 km/h (3 Bft) 97,37 %
25.10.2018 01:42 10,6 C 11,1 C 10,0 C 92 % 1019,7 hPa 0,0 l/m 12,3 km/h (3 Bft) NW 320 0 min 0,000 mm 0,0 UV-I 0 W/m 9,4 C 7,1 C 17,7 km/h (3 Bft) 96,00 %
25.10.2018 01:44 10,6 C 11,1 C 10,0 C 93 % 1019,7 hPa 0,0 l/m 10,1 km/h (2 Bft) W 259 0 min 0,000 mm 0,0 UV-I 0 W/m 9,5 C 8,2 C 14,5 km/h (3 Bft) 95,74 %
25.10.2018 01:46 10,4 C 11,1 C 10,0 C 93 % 1019,6 hPa 0,0 l/m 11,8 km/h (2 Bft) W-NW 285 0 min 0,000 mm 0,0 UV-I 0 W/m 9,3 C 7,1 C 19,3 km/h (3 Bft) 94,00 %
25.10.2018 01:48 10,4 C 11,1 C 10,0 C 93 % 1019,6 hPa 0,0 l/m 14,1 km/h (3 Bft) NW 325 0 min 0,000 mm 0,0 UV-I 0 W/m 9,3 C 6,0 C 22,5 km/h (4 Bft) 95,74 %
25.10.2018 01:50 10,4 C 11,1 C 10,0 C 93 % 1019,6 hPa 0,0 l/m 10,8 km/h (2 Bft) W-NW 294 0 min 0,000 mm 0,0 UV-I 0 W/m 9,3 C 7,6 C 17,7 km/h (3 Bft) 95,24 %
25.10.2018 01:52 10,4 C 11,1 C 10,0 C 94 % 1019,5 hPa 0,0 l/m 13,7 km/h (3 Bft) W 274 0 min 0,000 mm 0,0 UV-I 0 W/m 9,5 C 6,2 C 20,9 km/h (4 Bft) 96,23 %
25.10.2018 01:54 10,3 C 11,1 C 10,0 C 94 % 1019,6 hPa 0,0 l/m 15,3 km/h (3 Bft) W 277 0 min 0,000 mm 0,0 UV-I 0 W/m 9,4 C 5,4 C 20,9 km/h (4 Bft) 95,12 %
25.10.2018 01:56 10,3 C 11,1 C 10,0 C 94 % 1019,5 hPa 0,0 l/m 11,6 km/h (2 Bft) W 277 0 min 0,000 mm 0,0 UV-I 0 W/m 9,4 C 7,1 C 17,7 km/h (3 Bft) 96,00 %
25.10.2018 01:58 10,3 C 11,1 C 10,0 C 94 % 1019,5 hPa 0,0 l/m 10,1 km/h (2 Bft) W-SW 250 0 min 0,000 mm 0,0 UV-I 0 W/m 9,4 C 7,9 C 16,1 km/h (3 Bft) 95,74 %
25.10.2018 02:00 10,3 C 11,1 C 10,0 C 94 % 1019,5 hPa 0,0 l/m 13,5 km/h (3 Bft) W-NW 286 0 min 0,000 mm 0,0 UV-I 0 W/m 9,4 C 6,1 C 16,1 km/h (3 Bft) 92,00 %
25.10.2018 02:02 10,3 C 11,1 C 10,0 C 95 % 1019,5 hPa 0,0 l/m 11,8 km/h (2 Bft) W 262 0 min 0,000 mm 0,0 UV-I 0 W/m 9,5 C 7,0 C 19,3 km/h (3 Bft) 95,12 %
25.10.2018 02:04 10,3 C 11,1 C 10,0 C 95 % 1019,6 hPa 0,0 l/m 14,3 km/h (3 Bft) W 267 0 min 0,000 mm 0,0 UV-I 0 W/m 9,5 C 5,8 C 22,5 km/h (4 Bft) 95,12 %
25.10.2018 02:06 10,3 C 11,1 C 10,0 C 95 % 1019,5 hPa 0,0 l/m 17,3 km/h (3 Bft) W-SW 256 0 min 0,000 mm 0,0 UV-I 0 W/m 9,5 C 4,6 C 22,5 km/h (4 Bft) 94,92 %
25.10.2018 02:08 10,3 C 11,1 C 10,0 C 95 % 1019,5 hPa 0,0 l/m 14,0 km/h (3 Bft) W-NW 292 0 min 0,000 mm 0,0 UV-I 0 W/m 9,5 C 5,9 C 22,5 km/h (4 Bft) 95,74 %
25.10.2018 02:10 10,3 C 11,1 C 10,0 C 95 % 1019,5 hPa 0,0 l/m 14,0 km/h (3 Bft) W-NW 290 0 min 0,000 mm 0,0 UV-I 0 W/m 9,5 C 5,9 C 22,5 km/h (4 Bft) 97,87 %
25.10.2018 02:12 10,3 C 11,1 C 10,0 C 95 % 1019,5 hPa 0,0 l/m 13,7 km/h (3 Bft) SW 221 0 min 0,000 mm 0,0 UV-I 0 W/m 9,5 C 6,1 C 20,9 km/h (4 Bft) 94,29 %
25.10.2018 02:14 10,3 C 11,1 C 10,0 C 95 % 1019,4 hPa 0,0 l/m 14,3 km/h (3 Bft) W 265 0 min 0,000 mm 0,0 UV-I 0 W/m 9,5 C 5,8 C 20,9 km/h (4 Bft) 97,87 %
25.10.2018 02:16 10,3 C 11,1 C 10,0 C 95 % 1019,4 hPa 0,0 l/m 18,6 km/h (3 Bft) W 265 0 min 0,000 mm 0,0 UV-I 0 W/m 9,5 C 4,1 C 29,0 km/h (5 Bft) 100,00 %
25.10.2018 02:18 10,3 C 11,1 C 10,0 C 95 % 1019,5 hPa 0,0 l/m 16,0 km/h (3 Bft) W 267 0 min 0,000 mm 0,0 UV-I 0 W/m 9,5 C 5,1 C 24,1 km/h (4 Bft) 100,00 %
25.10.2018 02:20 10,3 C 11,1 C 10,0 C 95 % 1019,5 hPa 0,0 l/m 13,2 km/h (3 Bft) W-NW 296 0 min 0,000 mm 0,0 UV-I 0 W/m 9,5 C 6,3 C 19,3 km/h (3 Bft) 100,00 %
25.10.2018 02:22 10,3 C 11,1 C 10,0 C 95 % 1019,5 hPa 0,0 l/m 12,8 km/h (3 Bft) SW 236 0 min 0,000 mm 0,0 UV-I 0 W/m 9,5 C 6,5 C 25,7 km/h (4 Bft) 100,00 %
25.10.2018 02:24 10,2 C 11,1 C 10,0 C 95 % 1019,5 hPa 0,0 l/m 13,6 km/h (3 Bft) W 269 0 min 0,000 mm 0,0 UV-I 0 W/m 9,4 C 6,0 C 20,9 km/h (4 Bft) 100,00 %
25.10.2018 02:26 10,2 C 11,1 C 10,0 C 95 % 1019,5 hPa 0,0 l/m 15,6 km/h (3 Bft) W 273 0 min 0,000 mm 0,0 UV-I 0 W/m 9,4 C 5,1 C 27,4 km/h (4 Bft) 100,00 %
25.10.2018 02:28 10,2 C 11,1 C 10,0 C 95 % 1019,5 hPa 0,0 l/m 13,2 km/h (3 Bft) W 278 0 min 0,000 mm 0,0 UV-I 0 W/m 9,4 C 6,2 C 19,3 km/h (3 Bft) 100,00 %
25.10.2018 02:30 10,2 C 11,1 C 10,0 C 95 % 1019,5 hPa 0,0 l/m 14,7 km/h (3 Bft) W-NW 288 0 min 0,000 mm 0,0 UV-I 0 W/m 9,4 C 5,5 C 24,1 km/h (4 Bft) 100,00 %
25.10.2018 02:32 10,2 C 11,1 C 10,0 C 95 % 1019,5 hPa 0,0 l/m 10,6 km/h (2 Bft) W 261 0 min 0,000 mm 0,0 UV-I 0 W/m 9,4 C 7,5 C 19,3 km/h (3 Bft) 100,00 %
25.10.2018 02:34 10,2 C 11,1 C 10,0 C 95 % 1019,6 hPa 0,0 l/m 12,3 km/h (3 Bft) W-NW 293 0 min 0,000 mm 0,0 UV-I 0 W/m 9,4 C 6,6 C 20,9 km/h (4 Bft) 100,00 %
25.10.2018 02:36 10,2 C 11,1 C 10,0 C 95 % 1019,7 hPa 0,0 l/m 11,7 km/h (2 Bft) W 269 0 min 0,000 mm 0,0 UV-I 0 W/m 9,4 C 6,9 C 19,3 km/h (3 Bft) 100,00 %
25.10.2018 02:38 10,2 C 11,1 C 10,0 C 95 % 1019,6 hPa 0,0 l/m 10,7 km/h (2 Bft) W 269 0 min 0,000 mm 0,0 UV-I 0 W/m 9,4 C 7,4 C 17,7 km/h (3 Bft) 100,00 %
25.10.2018 02:40 10,2 C 11,1 C 10,0 C 94 % 1019,6 hPa 0,0 l/m 10,3 km/h (2 Bft) W-NW 288 0 min 0,000 mm 0,0 UV-I 0 W/m 9,3 C 7,6 C 14,5 km/h (3 Bft) 100,00 %
25.10.2018 02:42 10,2 C 11,1 C 10,0 C 94 % 1019,5 hPa 0,2 l/m 10,0 km/h (2 Bft) W 259 0 min 0,000 mm 0,0 UV-I 0 W/m 9,3 C 7,8 C 17,7 km/h (3 Bft) 100,00 %
25.10.2018 02:44 10,2 C 11,1 C 10,0 C 94 % 1019,5 hPa 0,0 l/m 13,5 km/h (3 Bft) W-SW 249 0 min 0,000 mm 0,0 UV-I 0 W/m 9,3 C 6,0 C 24,1 km/h (4 Bft) 100,00 %
25.10.2018 02:46 10,2 C 11,1 C 10,0 C 94 % 1019,4 hPa 0,0 l/m 13,5 km/h (3 Bft) W 277 0 min 0,000 mm 0,0 UV-I 0 W/m 9,3 C 6,0 C 24,1 km/h (4 Bft) 100,00 %
25.10.2018 02:48 10,2 C 11,1 C 10,0 C 94 % 1019,5 hPa 0,0 l/m 10,8 km/h (2 Bft) W-SW 254 0 min 0,000 mm 0,0 UV-I 0 W/m 9,3 C 7,4 C 19,3 km/h (3 Bft) 100,00 %
25.10.2018 02:50 10,2 C 11,1 C 10,0 C 94 % 1019,5 hPa 0,0 l/m 13,5 km/h (3 Bft) W-NW 297 0 min 0,000 mm 0,0 UV-I 0 W/m 9,3 C 6,0 C 22,5 km/h (4 Bft) 100,00 %
25.10.2018 02:52 10,2 C 11,1 C 10,0 C 94 % 1019,5 hPa 0,0 l/m 11,7 km/h (2 Bft) W 260 0 min 0,000 mm 0,0 UV-I 0 W/m 9,3 C 6,9 C 24,1 km/h (4 Bft) 100,00 %
25.10.2018 02:54 10,2 C 11,1 C 10,0 C 94 % 1019,4 hPa 0,0 l/m 13,4 km/h (3 Bft) W-SW 256 0 min 0,000 mm 0,0 UV-I 0 W/m 9,3 C 6,1 C 19,3 km/h (3 Bft) 100,00 %
25.10.2018 02:56 10,2 C 11,1 C 10,0 C 94 % 1019,4 hPa 0,0 l/m 13,2 km/h (3 Bft) NW 316 0 min 0,000 mm 0,0 UV-I 0 W/m 9,3 C 6,2 C 22,5 km/h (4 Bft) 96,00 %
25.10.2018 02:58 10,2 C 11,1 C 10,0 C 94 % 1019,5 hPa 0,0 l/m 13,9 km/h (3 Bft) W 280 0 min 0,000 mm 0,0 UV-I 0 W/m 9,3 C 5,8 C 20,9 km/h (4 Bft) 100,00 %
25.10.2018 03:00 10,2 C 11,1 C 10,0 C 94 % 1019,4 hPa 0,0 l/m 11,0 km/h (2 Bft) W 270 0 min 0,000 mm 0,0 UV-I 0 W/m 9,3 C 7,3 C 20,9 km/h (4 Bft) 98,00 %
25.10.2018 03:02 10,2 C 11,1 C 10,0 C 94 % 1019,5 hPa 0,0 l/m 14,2 km/h (3 Bft) W-SW 246 0 min 0,000 mm 0,0 UV-I 0 W/m 9,3 C 5,7 C 22,5 km/h (4 Bft) 100,00 %
25.10.2018 03:04 10,2 C 11,1 C 10,0 C 94 % 1019,5 hPa 0,0 l/m 15,8 km/h (3 Bft) W 272 0 min 0,000 mm 0,0 UV-I 0 W/m 9,3 C 5,1 C 25,7 km/h (4 Bft) 97,87 %
25.10.2018 03:06 10,2 C 11,1 C 10,0 C 94 % 1019,4 hPa 0,0 l/m 11,3 km/h (2 Bft) W 265 0 min 0,000 mm 0,0 UV-I 0 W/m 9,3 C 7,1 C 17,7 km/h (3 Bft) 100,00 %
25.10.2018 03:08 10,2 C 11,1 C 10,0 C 94 % 1019,4 hPa 0,0 l/m 10,7 km/h (2 Bft) W-SW 248 0 min 0,000 mm 0,0 UV-I 0 W/m 9,3 C 7,4 C 14,5 km/h (3 Bft) 100,00 %
25.10.2018 03:10 10,2 C 11,1 C 10,0 C 94 % 1019,4 hPa 0,0 l/m 9,9 km/h (2 Bft) W-SW 254 0 min 0,000 mm 0,0 UV-I 0 W/m 9,3 C 7,9 C 12,9 km/h (3 Bft) 95,74 %
25.10.2018 03:12 10,2 C 11,1 C 10,0 C 94 % 1019,3 hPa 0,0 l/m 9,6 km/h (2 Bft) W 274 0 min 0,000 mm 0,0 UV-I 0 W/m 9,3 C 8,0 C 16,1 km/h (3 Bft) 94,00 %
25.10.2018 03:14 10,2 C 11,1 C 10,0 C 94 % 1019,3 hPa 0,0 l/m 11,7 km/h (2 Bft) W 261 0 min 0,000 mm 0,0 UV-I 0 W/m 9,3 C 6,9 C 19,3 km/h (3 Bft) 93,62 %
25.10.2018 03:16 10,2 C 11,1 C 10,0 C 94 % 1019,3 hPa 0,0 l/m 9,4 km/h (2 Bft) W 281 0 min 0,000 mm 0,0 UV-I 0 W/m 9,3 C 8,2 C 14,5 km/h (3 Bft) 96,00 %
25.10.2018 03:18 10,2 C 11,1 C 10,0 C 94 % 1019,3 hPa 0,0 l/m 7,0 km/h (2 Bft) W-SW 253 0 min 0,000 mm 0,0 UV-I 0 W/m 9,3 C 9,8 C 14,5 km/h (3 Bft) 97,87 %
25.10.2018 03:20 10,2 C 11,1 C 10,0 C 95 % 1019,3 hPa 0,0 l/m 7,1 km/h (2 Bft) W 268 0 min 0,000 mm 0,0 UV-I 0 W/m 9,4 C 9,7 C 11,3 km/h (2 Bft) 97,37 %
25.10.2018 03:22 10,2 C 11,1 C 10,0 C 95 % 1019,3 hPa 0,0 l/m 7,7 km/h (2 Bft) W 265 0 min 0,000 mm 0,0 UV-I 0 W/m 9,4 C 9,3 C 11,3 km/h (2 Bft) 98,21 %
25.10.2018 03:24 10,2 C 11,1 C 10,0 C 95 % 1019,3 hPa 0,0 l/m 9,2 km/h (2 Bft) W 259 0 min 0,000 mm 0,0 UV-I 0 W/m 9,4 C 8,3 C 12,9 km/h (3 Bft) 97,37 %
25.10.2018 03:26 10,2 C 11,1 C 10,0 C 95 % 1019,2 hPa 0,0 l/m 9,2 km/h (2 Bft) W 266 0 min 0,000 mm 0,0 UV-I 0 W/m 9,4 C 8,3 C 14,5 km/h (3 Bft) 98,11 %
25.10.2018 03:28 10,2 C 11,1 C 10,0 C 95 % 1019,2 hPa 0,0 l/m 11,2 km/h (2 Bft) SW 230 0 min 0,000 mm 0,0 UV-I 0 W/m 9,4 C 7,2 C 16,1 km/h (3 Bft) 97,56 %
25.10.2018 03:30 10,2 C 11,1 C 10,0 C 95 % 1019,1 hPa 0,0 l/m 12,7 km/h (3 Bft) W-SW 254 0 min 0,000 mm 0,0 UV-I 0 W/m 9,4 C 6,4 C 17,7 km/h (3 Bft) 98,00 %
25.10.2018 03:32 10,3 C 11,1 C 10,0 C 95 % 1019,1 hPa 0,0 l/m 11,8 km/h (2 Bft) W 267 0 min 0,000 mm 0,0 UV-I 0 W/m 9,5 C 7,0 C 14,5 km/h (3 Bft) 98,00 %
25.10.2018 03:34 10,3 C 11,1 C 10,0 C 95 % 1019,1 hPa 0,0 l/m 10,9 km/h (2 Bft) W-SW 243 0 min 0,000 mm 0,0 UV-I 0 W/m 9,5 C 7,4 C 16,1 km/h (3 Bft) 100,00 %
25.10.2018 03:36 10,3 C 11,1 C 10,0 C 95 % 1019,1 hPa 0,0 l/m 11,7 km/h (2 Bft) W-SW 252 0 min 0,000 mm 0,0 UV-I 0 W/m 9,5 C 7,0 C 19,3 km/h (3 Bft) 100,00 %
25.10.2018 03:38 10,4 C 11,1 C 10,0 C 95 % 1019,1 hPa 0,0 l/m 14,6 km/h (3 Bft) W-SW 257 0 min 0,000 mm 0,0 UV-I 0 W/m 9,6 C 5,8 C 20,9 km/h (4 Bft) 100,00 %
25.10.2018 03:40 10,4 C 11,1 C 10,0 C 95 % 1019,1 hPa 0,0 l/m 12,8 km/h (3 Bft) W 265 0 min 0,000 mm 0,0 UV-I 0 W/m 9,6 C 6,6 C 20,9 km/h (4 Bft) 96,23 %
25.10.2018 03:42 10,5 C 11,1 C 10,0 C 95 % 1019,1 hPa 0,0 l/m 15,4 km/h (3 Bft) W 267 0 min 0,000 mm 0,0 UV-I 0 W/m 9,7 C 5,6 C 20,9 km/h (4 Bft) 98,11 %
25.10.2018 03:44 10,6 C 11,1 C 10,0 C 95 % 1019,0 hPa 0,0 l/m 12,3 km/h (3 Bft) W-SW 246 0 min 0,000 mm 0,0 UV-I 0 W/m 9,8 C 7,1 C 17,7 km/h (3 Bft) 95,74 %
25.10.2018 03:46 10,6 C 11,1 C 10,0 C 94 % 1019,0 hPa 0,0 l/m 15,4 km/h (3 Bft) W-SW 250 0 min 0,000 mm 0,0 UV-I 0 W/m 9,7 C 5,7 C 22,5 km/h (4 Bft) 97,22 %
25.10.2018 03:48 10,7 C 11,1 C 10,0 C 95 % 1019,0 hPa 0,0 l/m 18,8 km/h (3 Bft) SW 236 0 min 0,000 mm 0,0 UV-I 0 W/m 9,9 C 4,6 C 25,7 km/h (4 Bft) 98,31 %
25.10.2018 03:50 10,7 C 11,1 C 10,6 C 94 % 1019,0 hPa 0,0 l/m 14,2 km/h (3 Bft) W 277 0 min 0,000 mm 0,0 UV-I 0 W/m 9,8 C 6,3 C 19,3 km/h (3 Bft) 97,56 %
25.10.2018 03:52 10,8 C 11,1 C 10,6 C 94 % 1019,0 hPa 0,0 l/m 15,7 km/h (3 Bft) W 274 0 min 0,000 mm 0,0 UV-I 0 W/m 9,9 C 5,8 C 24,1 km/h (4 Bft) 92,11 %
25.10.2018 03:54 10,8 C 11,1 C 10,6 C 94 % 1018,9 hPa 0,0 l/m 15,8 km/h (3 Bft) W-NW 286 0 min 0,000 mm 0,0 UV-I 0 W/m 9,9 C 5,8 C 20,9 km/h (4 Bft) 96,43 %
25.10.2018 03:56 10,8 C 11,1 C 10,6 C 94 % 1018,9 hPa 0,0 l/m 17,2 km/h (3 Bft) W 265 0 min 0,000 mm 0,0 UV-I 0 W/m 9,9 C 5,3 C 24,1 km/h (4 Bft) 96,00 %
25.10.2018 03:58 10,8 C 11,1 C 10,6 C 94 % 1018,9 hPa 0,0 l/m 19,2 km/h (3 Bft) W-NW 284 0 min 0,000 mm 0,0 UV-I 0 W/m 9,9 C 4,6 C 27,4 km/h (4 Bft) 95,74 %
25.10.2018 04:00 10,9 C 11,1 C 10,6 C 94 % 1018,9 hPa 0,0 l/m 17,7 km/h (3 Bft) W 270 0 min 0,000 mm 0,0 UV-I 0 W/m 10,0 C 5,2 C 24,1 km/h (4 Bft) 91,49 %
25.10.2018 04:02 10,9 C 11,1 C 10,6 C 93 % 1018,9 hPa 0,0 l/m 25,0 km/h (4 Bft) W-SW 256 0 min 0,000 mm 0,0 UV-I 0 W/m 9,8 C 3,1 C 25,7 km/h (4 Bft) 97,06 %
25.10.2018 04:04 10,9 C 11,1 C 10,6 C 93 % 1018,9 hPa 0,0 l/m 13,4 km/h (3 Bft) W 259 0 min 0,000 mm 0,0 UV-I 0 W/m 9,8 C 6,9 C 20,9 km/h (4 Bft) 93,62 %
25.10.2018 04:06 10,9 C 11,1 C 10,6 C 93 % 1018,9 hPa 0,0 l/m 15,2 km/h (3 Bft) W 268 0 min 0,000 mm 0,0 UV-I 0 W/m 9,8 C 6,1 C 24,1 km/h (4 Bft) 93,62 %
25.10.2018 04:08 10,9 C 11,1 C 10,6 C 93 % 1018,8 hPa 0,0 l/m 14,7 km/h (3 Bft) W 259 0 min 0,000 mm 0,0 UV-I 0 W/m 9,8 C 6,3 C 22,5 km/h (4 Bft) 95,74 %
25.10.2018 04:10 10,9 C 11,1 C 10,6 C 93 % 1018,8 hPa 0,0 l/m 18,6 km/h (3 Bft) NW 308 0 min 0,000 mm 0,0 UV-I 0 W/m 9,8 C 4,9 C 29,0 km/h (5 Bft) 93,62 %
25.10.2018 04:12 11,0 C 11,1 C 10,6 C 93 % 1018,9 hPa 0,0 l/m 18,7 km/h (3 Bft) W 279 0 min 0,000 mm 0,0 UV-I 0 W/m 9,9 C 5,0 C 29,0 km/h (5 Bft) 94,74 %
25.10.2018 04:14 11,0 C 11,1 C 10,6 C 92 % 1018,9 hPa 0,0 l/m 19,0 km/h (3 Bft) W-SW 258 0 min 0,000 mm 0,0 UV-I 0 W/m 9,8 C 4,9 C 27,4 km/h (4 Bft) 96,43 %
25.10.2018 04:16 11,1 C 11,1 C 10,6 C 92 % 1018,9 hPa 0,0 l/m 16,2 km/h (3 Bft) W 261 0 min 0,000 mm 0,0 UV-I 0 W/m 9,8 C 6,0 C 25,7 km/h (4 Bft) 94,74 %
25.10.2018 04:18 11,1 C 11,1 C 10,6 C 92 % 1018,8 hPa 0,0 l/m 16,7 km/h (3 Bft) W 261 0 min 0,000 mm 0,0 UV-I 0 W/m 9,8 C 5,8 C 30,6 km/h (5 Bft) 95,56 %
25.10.2018 04:20 11,1 C 11,1 C 10,6 C 92 % 1018,8 hPa 0,0 l/m 18,9 km/h (3 Bft) W 265 0 min 0,000 mm 0,0 UV-I 0 W/m 9,8 C 5,1 C 30,6 km/h (5 Bft) 98,18 %
25.10.2018 04:22 11,0 C 11,1 C 10,6 C 92 % 1018,8 hPa 0,0 l/m 19,4 km/h (3 Bft) W 267 0 min 0,000 mm 0,0 UV-I 0 W/m 9,8 C 4,8 C 30,6 km/h (5 Bft) 96,30 %
25.10.2018 04:24 11,0 C 11,1 C 10,6 C 92 % 1018,8 hPa 0,0 l/m 19,7 km/h (3 Bft) W 265 0 min 0,000 mm 0,0 UV-I 0 W/m 9,8 C 4,7 C 29,0 km/h (5 Bft) 94,64 %
25.10.2018 04:26 11,0 C 11,1 C 10,6 C 92 % 1018,8 hPa 0,0 l/m 20,9 km/h (4 Bft) W 260 0 min 0,000 mm 0,0 UV-I 0 W/m 9,8 C 4,3 C 30,6 km/h (5 Bft) 96,43 %
25.10.2018 04:28 10,9 C 11,1 C 10,6 C 92 % 1018,8 hPa 0,0 l/m 15,1 km/h (3 Bft) W 271 0 min 0,000 mm 0,0 UV-I 0 W/m 9,7 C 6,2 C 20,9 km/h (4 Bft) 98,00 %
25.10.2018 04:30 10,9 C 11,1 C 10,6 C 92 % 1018,7 hPa 0,0 l/m 18,4 km/h (3 Bft) W 270 0 min 0,000 mm 0,0 UV-I 0 W/m 9,7 C 5,0 C 25,7 km/h (4 Bft) 97,56 %
25.10.2018 04:32 10,9 C 11,1 C 10,6 C 93 % 1018,7 hPa 0,0 l/m 16,0 km/h (3 Bft) W-NW 300 0 min 0,000 mm 0,0 UV-I 0 W/m 9,8 C 5,8 C 22,5 km/h (4 Bft) 97,87 %
25.10.2018 04:34 10,8 C 11,1 C 10,6 C 93 % 1018,7 hPa 0,0 l/m 18,9 km/h (3 Bft) W-NW 283 0 min 0,000 mm 0,0 UV-I 0 W/m 9,7 C 4,7 C 25,7 km/h (4 Bft) 96,00 %
25.10.2018 04:36 10,8 C 11,1 C 10,6 C 93 % 1018,7 hPa 0,0 l/m 15,7 km/h (3 Bft) W 276 0 min 0,000 mm 0,0 UV-I 0 W/m 9,7 C 5,8 C 20,9 km/h (4 Bft) 95,45 %
25.10.2018 04:38 10,8 C 11,1 C 10,6 C 93 % 1018,7 hPa 0,0 l/m 14,2 km/h (3 Bft) W 265 0 min 0,000 mm 0,0 UV-I 0 W/m 9,7 C 6,4 C 19,3 km/h (3 Bft) 98,11 %
25.10.2018 04:40 10,8 C 11,1 C 10,6 C 93 % 1018,7 hPa 0,0 l/m 13,0 km/h (3 Bft) W-SW 252 0 min 0,000 mm 0,0 UV-I 0 W/m 9,7 C 7,0 C 19,3 km/h (3 Bft) 94,74 %
25.10.2018 04:42 10,8 C 11,1 C 10,6 C 93 % 1018,6 hPa 0,0 l/m 14,0 km/h (3 Bft) SW 234 0 min 0,000 mm 0,0 UV-I 0 W/m 9,7 C 6,5 C 22,5 km/h (4 Bft) 96,00 %
25.10.2018 04:44 10,8 C 11,1 C 10,6 C 93 % 1018,6 hPa 0,0 l/m 18,8 km/h (3 Bft) SW 217 0 min 0,000 mm 0,0 UV-I 0 W/m 9,7 C 4,7 C 29,0 km/h (5 Bft) 95,74 %
25.10.2018 04:46 10,7 C 11,1 C 10,6 C 93 % 1018,6 hPa 0,0 l/m 15,1 km/h (3 Bft) SW 236 0 min 0,000 mm 0,0 UV-I 0 W/m 9,6 C 5,9 C 22,5 km/h (4 Bft) 94,74 %
25.10.2018 04:48 10,7 C 11,1 C 10,6 C 94 % 1018,6 hPa 0,0 l/m 15,0 km/h (3 Bft) W 275 0 min 0,000 mm 0,0 UV-I 0 W/m 9,8 C 6,0 C 20,9 km/h (4 Bft) 96,23 %
25.10.2018 04:50 10,7 C 11,1 C 10,6 C 94 % 1018,6 hPa 0,0 l/m 15,2 km/h (3 Bft) W 263 0 min 0,000 mm 0,0 UV-I 0 W/m 9,8 C 5,9 C 22,5 km/h (4 Bft) 95,45 %
25.10.2018 04:52 10,7 C 11,1 C 10,6 C 94 % 1018,6 hPa 0,0 l/m 16,1 km/h (3 Bft) W-SW 250 0 min 0,000 mm 0,0 UV-I 0 W/m 9,8 C 5,5 C 24,1 km/h (4 Bft) 92,86 %
25.10.2018 04:54 10,7 C 11,1 C 10,6 C 94 % 1018,5 hPa 0,0 l/m 12,4 km/h (3 Bft) W-SW 254 0 min 0,000 mm 0,0 UV-I 0 W/m 9,8 C 7,1 C 17,7 km/h (3 Bft) 97,37 %
25.10.2018 04:56 10,7 C 11,1 C 10,6 C 94 % 1018,5 hPa 0,0 l/m 15,2 km/h (3 Bft) W 267 0 min 0,000 mm 0,0 UV-I 0 W/m 9,8 C 5,9 C 20,9 km/h (4 Bft) 98,00 %
25.10.2018 04:58 10,6 C 11,1 C 10,6 C 94 % 1018,5 hPa 0,0 l/m 12,9 km/h (3 Bft) SW 230 0 min 0,000 mm 0,0 UV-I 0 W/m 9,7 C 6,8 C 20,9 km/h (4 Bft) 100,00 %
25.10.2018 05:00 10,6 C 11,1 C 10,6 C 94 % 1018,5 hPa 0,0 l/m 14,1 km/h (3 Bft) W-SW 250 0 min 0,025 mm 0,0 UV-I 0 W/m 9,7 C 6,2 C 20,9 km/h (4 Bft) 98,21 %
25.10.2018 05:02 10,6 C 11,1 C 10,6 C 94 % 1018,4 hPa 0,0 l/m 16,9 km/h (3 Bft) W 260 0 min 0,000 mm 0,0 UV-I 0 W/m 9,7 C 5,1 C 22,5 km/h (4 Bft) 100,00 %
25.10.2018 05:04 10,6 C 11,1 C 10,6 C 94 % 1018,4 hPa 0,0 l/m 18,0 km/h (3 Bft) W 273 0 min 0,000 mm 0,0 UV-I 0 W/m 9,7 C 4,7 C 20,9 km/h (4 Bft) 100,00 %
25.10.2018 05:06 10,6 C 11,1 C 10,6 C 94 % 1018,4 hPa 0,0 l/m 14,6 km/h (3 Bft) W 263 0 min 0,000 mm 0,0 UV-I 0 W/m 9,7 C 6,0 C 20,9 km/h (4 Bft) 100,00 %
25.10.2018 05:08 10,6 C 11,1 C 10,6 C 95 % 1018,4 hPa 0,0 l/m 15,9 km/h (3 Bft) SW 232 0 min 0,000 mm 0,0 UV-I 0 W/m 9,8 C 5,5 C 24,1 km/h (4 Bft) 100,00 %
25.10.2018 05:10 10,6 C 11,1 C 10,6 C 95 % 1018,4 hPa 0,0 l/m 17,3 km/h (3 Bft) W-SW 241 0 min 0,000 mm 0,0 UV-I 0 W/m 9,8 C 5,0 C 24,1 km/h (4 Bft) 100,00 %
25.10.2018 05:12 10,7 C 11,1 C 10,6 C 95 % 1018,4 hPa 0,0 l/m 15,0 km/h (3 Bft) W 270 0 min 0,000 mm 0,0 UV-I 0 W/m 9,9 C 6,0 C 19,3 km/h (3 Bft) 97,37 %
25.10.2018 05:14 10,7 C 11,1 C 10,6 C 95 % 1018,5 hPa 0,0 l/m 15,1 km/h (3 Bft) W-SW 237 0 min 0,000 mm 0,0 UV-I 0 W/m 9,9 C 5,9 C 24,1 km/h (4 Bft) 100,00 %
25.10.2018 05:16 10,7 C 11,1 C 10,6 C 95 % 1018,4 hPa 0,0 l/m 16,5 km/h (3 Bft) W 264 0 min 0,000 mm 0,0 UV-I 0 W/m 9,9 C 5,4 C 24,1 km/h (4 Bft) 100,00 %
25.10.2018 05:18 10,7 C 11,1 C 10,6 C 95 % 1018,5 hPa 0,0 l/m 16,6 km/h (3 Bft) SW 224 0 min 0,000 mm 0,0 UV-I 0 W/m 9,9 C 5,4 C 22,5 km/h (4 Bft) 100,00 %
25.10.2018 05:20 10,7 C 11,1 C 10,6 C 95 % 1018,4 hPa 0,0 l/m 16,5 km/h (3 Bft) W-NW 284 0 min 0,000 mm 0,0 UV-I 0 W/m 9,9 C 5,4 C 22,5 km/h (4 Bft) 100,00 %
25.10.2018 05:22 10,7 C 11,1 C 10,6 C 95 % 1018,4 hPa 0,0 l/m 16,0 km/h (3 Bft) W 268 0 min 0,000 mm 0,0 UV-I 0 W/m 9,9 C 5,6 C 24,1 km/h (4 Bft) 100,00 %
25.10.2018 05:24 10,7 C 11,1 C 10,6 C 95 % 1018,4 hPa 0,0 l/m 15,4 km/h (3 Bft) W 259 0 min 0,000 mm 0,0 UV-I 0 W/m 9,9 C 5,8 C 20,9 km/h (4 Bft) 100,00 %
25.10.2018 05:26 10,8 C 11,1 C 10,6 C 94 % 1018,4 hPa 0,0 l/m 17,6 km/h (3 Bft) W 264 0 min 0,000 mm 0,0 UV-I 0 W/m 9,9 C 5,1 C 29,0 km/h (5 Bft) 100,00 %
25.10.2018 05:28 10,8 C 11,1 C 10,6 C 94 % 1018,4 hPa 0,0 l/m 15,5 km/h (3 Bft) W 277 0 min 0,000 mm 0,0 UV-I 0 W/m 9,9 C 5,9 C 19,3 km/h (3 Bft) 100,00 %
25.10.2018 05:30 10,8 C 11,1 C 10,6 C 94 % 1018,4 hPa 0,0 l/m 16,5 km/h (3 Bft) W 281 0 min 0,000 mm 0,0 UV-I 0 W/m 9,9 C 5,5 C 32,2 km/h (5 Bft) 100,00 %
25.10.2018 05:32 10,8 C 11,1 C 10,6 C 94 % 1018,4 hPa 0,0 l/m 13,2 km/h (3 Bft) W 261 0 min 0,000 mm 0,0 UV-I 0 W/m 9,9 C 6,9 C 20,9 km/h (4 Bft) 100,00 %
25.10.2018 05:34 10,9 C 11,1 C 10,6 C 94 % 1018,4 hPa 0,0 l/m 13,7 km/h (3 Bft) W 264 0 min 0,000 mm 0,0 UV-I 0 W/m 10,0 C 6,8 C 20,9 km/h (4 Bft) 100,00 %
25.10.2018 05:36 10,9 C 11,1 C 10,6 C 94 % 1018,4 hPa 0,0 l/m 14,1 km/h (3 Bft) W 269 0 min 0,000 mm 0,0 UV-I 0 W/m 10,0 C 6,6 C 20,9 km/h (4 Bft) 100,00 %
25.10.2018 05:38 10,9 C 11,1 C 10,6 C 93 % 1018,4 hPa 0,0 l/m 16,2 km/h (3 Bft) W 269 0 min 0,000 mm 0,0 UV-I 0 W/m 9,8 C 5,8 C 22,5 km/h (4 Bft) 100,00 %
25.10.2018 05:40 10,9 C 11,1 C 10,6 C 93 % 1018,4 hPa 0,0 l/m 15,4 km/h (3 Bft) W 264 0 min 0,000 mm 0,0 UV-I 0 W/m 9,8 C 6,1 C 20,9 km/h (4 Bft) 100,00 %
25.10.2018 05:42 11,0 C 11,1 C 10,6 C 93 % 1018,3 hPa 0,0 l/m 12,6 km/h (3 Bft) W 271 0 min 0,000 mm 0,0 UV-I 0 W/m 9,9 C 7,4 C 17,7 km/h (3 Bft) 100,00 %
25.10.2018 05:44 11,0 C 11,1 C 10,6 C 93 % 1018,3 hPa 0,0 l/m 13,4 km/h (3 Bft) W-NW 288 0 min 0,000 mm 0,0 UV-I 0 W/m 9,9 C 7,0 C 20,9 km/h (4 Bft) 100,00 %
25.10.2018 05:46 11,0 C 11,1 C 10,6 C 93 % 1018,3 hPa 0,0 l/m 16,8 km/h (3 Bft) W 260 0 min 0,000 mm 0,0 UV-I 0 W/m 9,9 C 5,7 C 27,4 km/h (4 Bft) 100,00 %
25.10.2018 05:48 11,0 C 11,1 C 10,6 C 93 % 1018,3 hPa 0,0 l/m 16,1 km/h (3 Bft) W 275 0 min 0,000 mm 0,0 UV-I 0 W/m 9,9 C 5,9 C 24,1 km/h (4 Bft) 95,74 %
25.10.2018 05:50 11,1 C 11,1 C 10,6 C 92 % 1018,4 hPa 0,0 l/m 17,3 km/h (3 Bft) W 277 0 min 0,000 mm 0,0 UV-I 0 W/m 9,8 C 5,6 C 24,1 km/h (4 Bft) 96,00 %
25.10.2018 05:52 11,1 C 11,1 C 10,6 C 92 % 1018,4 hPa 0,0 l/m 16,3 km/h (3 Bft) W 274 0 min 0,000 mm 0,0 UV-I 0 W/m 9,8 C 6,0 C 24,1 km/h (4 Bft) 97,56 %
25.10.2018 05:54 11,1 C 11,1 C 10,6 C 92 % 1018,4 hPa 0,0 l/m 11,6 km/h (2 Bft) W 267 0 min 0,000 mm 0,0 UV-I 0 W/m 9,8 C 8,0 C 17,7 km/h (3 Bft) 96,00 %
25.10.2018 05:56 11,1 C 11,1 C 10,6 C 92 % 1018,4 hPa 0,0 l/m 18,3 km/h (3 Bft) W 262 0 min 0,000 mm 0,0 UV-I 0 W/m 9,8 C 5,3 C 25,7 km/h (4 Bft) 90,00 %
25.10.2018 05:58 11,1 C 11,1 C 10,6 C 92 % 1018,4 hPa 0,0 l/m 16,4 km/h (3 Bft) W-SW 255 0 min 0,000 mm 0,0 UV-I 0 W/m 9,8 C 5,9 C 24,1 km/h (4 Bft) 95,74 %
25.10.2018 06:00 11,1 C 11,1 C 10,6 C 92 % 1018,4 hPa 0,0 l/m 16,2 km/h (3 Bft) W 270 0 min 0,026 mm 0,0 UV-I 0 W/m 9,8 C 6,0 C 22,5 km/h (4 Bft) 93,62 %
25.10.2018 06:02 11,1 C 11,1 C 10,6 C 92 % 1018,4 hPa 0,0 l/m 15,0 km/h (3 Bft) W 266 0 min 0,000 mm 0,0 UV-I 0 W/m 9,8 C 6,5 C 19,3 km/h (3 Bft) 94,00 %
25.10.2018 06:04 11,1 C 11,1 C 10,6 C 91 % 1018,4 hPa 0,0 l/m 13,2 km/h (3 Bft) W 275 0 min 0,000 mm 0,0 UV-I 0 W/m 9,7 C 7,2 C 19,3 km/h (3 Bft) 95,12 %
25.10.2018 06:06 11,1 C 11,1 C 10,6 C 91 % 1018,4 hPa 0,0 l/m 19,8 km/h (3 Bft) W 261 0 min 0,000 mm 0,0 UV-I 0 W/m 9,7 C 4,8 C 27,4 km/h (4 Bft) 95,45 %
25.10.2018 06:08 11,1 C 11,1 C 10,6 C 92 % 1018,2 hPa 0,0 l/m 15,3 km/h (3 Bft) W-SW 254 0 min 0,000 mm 0,0 UV-I 0 W/m 9,8 C 6,3 C 22,5 km/h (4 Bft) 96,23 %
25.10.2018 06:10 11,2 C 11,1 C 10,6 C 91 % 1018,2 hPa 0,0 l/m 17,4 km/h (3 Bft) W 265 0 min 0,000 mm 0,0 UV-I 0 W/m 9,8 C 5,7 C 25,7 km/h (4 Bft) 96,00 %
25.10.2018 06:12 11,1 C 11,1 C 10,6 C 91 % 1018,2 hPa 0,0 l/m 11,5 km/h (2 Bft) W-SW 238 0 min 0,000 mm 0,0 UV-I 0 W/m 9,7 C 8,0 C 17,7 km/h (3 Bft) 94,87 %
25.10.2018 06:15 11,1 C 11,1 C 10,6 C 91 % 1018,2 hPa 0,0 l/m 18,0 km/h (3 Bft) W 269 0 min 0,000 mm 0,0 UV-I 0 W/m 9,7 C 5,4 C 27,4 km/h (4 Bft) 93,15 %
25.10.2018 06:16 11,1 C 11,1 C 10,6 C 91 % 1018,2 hPa 0,0 l/m 21,1 km/h (4 Bft) W-NW 290 0 min 0,000 mm 0,0 UV-I 0 W/m 9,7 C 4,4 C 25,7 km/h (4 Bft) 96,43 %
25.10.2018 06:18 11,2 C 11,1 C 10,6 C 91 % 1018,2 hPa 0,0 l/m 14,2 km/h (3 Bft) W 267 0 min 0,000 mm 0,0 UV-I 0 W/m 9,8 C 6,9 C 22,5 km/h (4 Bft) 97,44 %
25.10.2018 06:20 11,2 C 11,1 C 10,6 C 91 % 1018,2 hPa 0,0 l/m 15,8 km/h (3 Bft) W-SW 243 0 min 0,000 mm 0,0 UV-I 0 W/m 9,8 C 6,3 C 24,1 km/h (4 Bft) 94,64 %
25.10.2018 06:22 11,2 C 11,1 C 10,6 C 91 % 1018,1 hPa 0,0 l/m 13,1 km/h (3 Bft) W-NW 283 0 min 0,000 mm 0,0 UV-I 0 W/m 9,8 C 7,4 C 16,1 km/h (3 Bft) 97,37 %
25.10.2018 06:24 11,2 C 11,1 C 10,0 C 91 % 1018,1 hPa 0,0 l/m 16,2 km/h (3 Bft) W-SW 257 0 min 0,000 mm 0,0 UV-I 0 W/m 9,8 C 6,1 C 20,9 km/h (4 Bft) 100,00 %
25.10.2018 06:26 11,2 C 11,1 C 10,0 C 91 % 1018,0 hPa 0,0 l/m 17,0 km/h (3 Bft) W 260 0 min 0,000 mm 0,0 UV-I 0 W/m 9,8 C 5,8 C 25,7 km/h (4 Bft) 98,00 %
25.10.2018 06:28 11,1 C 11,1 C 10,0 C 91 % 1018,1 hPa 0,0 l/m 16,7 km/h (3 Bft) W 265 0 min 0,000 mm 0,0 UV-I 0 W/m 9,7 C 5,8 C 22,5 km/h (4 Bft) 100,00 %
25.10.2018 06:30 11,1 C 11,1 C 10,0 C 91 % 1018,1 hPa 0,0 l/m 16,6 km/h (3 Bft) W 269 0 min 0,000 mm 0,0 UV-I 0 W/m 9,7 C 5,9 C 22,5 km/h (4 Bft) 100,00 %
25.10.2018 06:32 11,1 C 11,1 C 10,0 C 91 % 1018,1 hPa 0,0 l/m 14,2 km/h (3 Bft) SW 234 0 min 0,000 mm 0,0 UV-I 0 W/m 9,7 C 6,8 C 22,5 km/h (4 Bft) 98,11 %
25.10.2018 06:34 11,1 C 11,1 C 10,0 C 91 % 1018,1 hPa 0,0 l/m 13,9 km/h (3 Bft) W 280 0 min 0,000 mm 0,0 UV-I 0 W/m 9,7 C 6,9 C 19,3 km/h (3 Bft) 100,00 %
25.10.2018 06:36 11,0 C 11,1 C 10,0 C 91 % 1018,1 hPa 0,0 l/m 15,2 km/h (3 Bft) W 261 0 min 0,000 mm 0,0 UV-I 0 W/m 9,6 C 6,3 C 24,1 km/h (4 Bft) 100,00 %
25.10.2018 06:38 11,0 C 11,1 C 10,0 C 92 % 1018,1 hPa 0,0 l/m 14,5 km/h (3 Bft) W 273 0 min 0,000 mm 0,0 UV-I 0 W/m 9,8 C 6,5 C 20,9 km/h (4 Bft) 100,00 %
25.10.2018 06:40 11,0 C 11,1 C 10,0 C 92 % 1018,1 hPa 0,0 l/m 15,3 km/h (3 Bft) W 264 0 min 0,000 mm 0,0 UV-I 0 W/m 9,8 C 6,2 C 20,9 km/h (4 Bft) 100,00 %
25.10.2018 06:42 11,0 C 11,1 C 10,0 C 92 % 1018,2 hPa 0,0 l/m 13,8 km/h (3 Bft) W-SW 257 0 min 0,000 mm 0,0 UV-I 0 W/m 9,8 C 6,8 C 19,3 km/h (3 Bft) 98,00 %
25.10.2018 06:44 10,9 C 11,1 C 10,6 C 92 % 1018,2 hPa 0,0 l/m 13,8 km/h (3 Bft) W 271 0 min 0,000 mm 0,0 UV-I 0 W/m 9,7 C 6,7 C 19,3 km/h (3 Bft) 100,00 %
25.10.2018 06:46 10,9 C 11,1 C 10,6 C 92 % 1018,2 hPa 0,0 l/m 11,9 km/h (2 Bft) W 275 0 min 0,000 mm 0,0 UV-I 0 W/m 9,7 C 7,6 C 16,1 km/h (3 Bft) 100,00 %
25.10.2018 06:48 10,9 C 11,1 C 10,6 C 92 % 1018,2 hPa 0,0 l/m 10,4 km/h (2 Bft) W 272 0 min 0,000 mm 0,0 UV-I 0 W/m 9,7 C 8,4 C 14,5 km/h (3 Bft) 97,73 %
25.10.2018 06:50 10,9 C 11,1 C 10,6 C 92 % 1018,2 hPa 0,0 l/m 13,9 km/h (3 Bft) W 270 0 min 0,000 mm 0,0 UV-I 0 W/m 9,7 C 6,7 C 19,3 km/h (3 Bft) 100,00 %
25.10.2018 06:52 10,9 C 11,1 C 10,6 C 92 % 1018,2 hPa 0,0 l/m 10,3 km/h (2 Bft) W-SW 250 0 min 0,000 mm 0,0 UV-I 0 W/m 9,7 C 8,4 C 14,5 km/h (3 Bft) 98,36 %
25.10.2018 06:54 10,9 C 11,1 C 10,6 C 92 % 1018,2 hPa 0,0 l/m 9,2 km/h (2 Bft) W-SW 240 0 min 0,000 mm 0,0 UV-I 0 W/m 9,7 C 9,0 C 14,5 km/h (3 Bft) 100,00 %
25.10.2018 06:56 10,9 C 11,1 C 10,6 C 92 % 1018,1 hPa 0,0 l/m 7,9 km/h (2 Bft) W-SW 255 0 min 0,000 mm 0,0 UV-I 0 W/m 9,7 C 9,9 C 11,3 km/h (2 Bft) 100,00 %
25.10.2018 06:58 10,9 C 11,1 C 10,6 C 93 % 1018,1 hPa 0,0 l/m 9,8 km/h (2 Bft) W 259 0 min 0,000 mm 0,0 UV-I 0 W/m 9,8 C 8,7 C 14,5 km/h (3 Bft) 100,00 %
25.10.2018 07:00 10,9 C 11,1 C 10,6 C 93 % 1018,0 hPa 0,0 l/m 11,4 km/h (2 Bft) W-NW 288 0 min 0,025 mm 0,0 UV-I 0 W/m 9,8 C 7,8 C 16,1 km/h (3 Bft) 100,00 %
25.10.2018 07:02 10,9 C 11,1 C 10,6 C 93 % 1018,0 hPa 0,0 l/m 13,0 km/h (3 Bft) W 269 0 min 0,000 mm 0,0 UV-I 0 W/m 9,8 C 7,1 C 19,3 km/h (3 Bft) 100,00 %
25.10.2018 07:04 10,9 C 11,1 C 10,6 C 93 % 1018,0 hPa 0,0 l/m 10,5 km/h (2 Bft) W-SW 245 0 min 0,000 mm 0,0 UV-I 0 W/m 9,8 C 8,3 C 12,9 km/h (3 Bft) 100,00 %
25.10.2018 07:06 10,9 C 11,1 C 10,6 C 93 % 1018,0 hPa 0,0 l/m 13,3 km/h (3 Bft) SW 236 0 min 0,000 mm 0,0 UV-I 0 W/m 9,8 C 6,9 C 19,3 km/h (3 Bft) 100,00 %
25.10.2018 07:08 10,9 C 11,1 C 10,6 C 93 % 1018,0 hPa 0,0 l/m 10,9 km/h (2 Bft) W-SW 248 0 min 0,000 mm 0,0 UV-I 0 W/m 9,8 C 8,1 C 16,1 km/h (3 Bft) 97,56 %
25.10.2018 07:10 10,9 C 11,1 C 10,6 C 93 % 1018,0 hPa 0,0 l/m 13,2 km/h (3 Bft) W 274 0 min 0,000 mm 0,0 UV-I 0 W/m 9,8 C 7,0 C 19,3 km/h (3 Bft) 100,00 %
25.10.2018 07:12 10,9 C 11,1 C 10,6 C 93 % 1018,0 hPa 0,0 l/m 13,6 km/h (3 Bft) W 281 0 min 0,000 mm 0,0 UV-I 0 W/m 9,8 C 6,8 C 17,7 km/h (3 Bft) 100,00 %
25.10.2018 07:14 10,9 C 11,1 C 10,6 C 93 % 1017,9 hPa 0,0 l/m 11,7 km/h (2 Bft) W-SW 258 0 min 0,000 mm 0,0 UV-I 0 W/m 9,8 C 7,7 C 19,3 km/h (3 Bft) 100,00 %
25.10.2018 07:16 10,9 C 11,1 C 10,6 C 94 % 1017,8 hPa 0,0 l/m 11,3 km/h (2 Bft) W-SW 256 0 min 0,000 mm 0,0 UV-I 0 W/m 10,0 C 7,9 C 16,1 km/h (3 Bft) 100,00 %
25.10.2018 07:18 10,9 C 11,1 C 10,6 C 94 % 1017,9 hPa 0,0 l/m 12,2 km/h (2 Bft) W 263 0 min 0,000 mm 0,0 UV-I 0 W/m 10,0 C 7,5 C 16,1 km/h (3 Bft) 100,00 %
25.10.2018 07:20 10,8 C 11,1 C 10,6 C 94 % 1017,9 hPa 0,0 l/m 12,2 km/h (2 Bft) W 269 0 min 0,000 mm 0,0 UV-I 0 W/m 9,9 C 7,3 C 16,1 km/h (3 Bft) 98,21 %
25.10.2018 07:22 10,9 C 11,1 C 10,6 C 94 % 1017,8 hPa 0,0 l/m 11,6 km/h (2 Bft) W 269 0 min 0,000 mm 0,0 UV-I 0 W/m 10,0 C 7,7 C 17,7 km/h (3 Bft) 97,37 %
25.10.2018 07:24 10,9 C 11,1 C 10,6 C 94 % 1017,9 hPa 0,0 l/m 11,1 km/h (2 Bft) W-SW 238 0 min 0,000 mm 0,0 UV-I 0 W/m 10,0 C 8,0 C 24,1 km/h (4 Bft) 97,87 %
25.10.2018 07:26 10,9 C 11,1 C 10,6 C 94 % 1017,9 hPa 0,0 l/m 12,2 km/h (2 Bft) W-SW 244 0 min 0,000 mm 0,0 UV-I 0 W/m 10,0 C 7,5 C 20,9 km/h (4 Bft) 98,21 %
25.10.2018 07:28 10,9 C 11,1 C 10,6 C 94 % 1017,9 hPa 0,0 l/m 10,7 km/h (2 Bft) W 267 0 min 0,000 mm 0,0 UV-I 0 W/m 10,0 C 8,2 C 19,3 km/h (3 Bft) 97,87 %
25.10.2018 07:30 10,9 C 11,1 C 10,6 C 94 % 1017,9 hPa 0,0 l/m 14,5 km/h (3 Bft) W 281 0 min 0,000 mm 0,0 UV-I 0 W/m 10,0 C 6,4 C 20,9 km/h (4 Bft) 97,87 %
25.10.2018 07:32 10,9 C 11,1 C 10,6 C 93 % 1017,8 hPa 0,0 l/m 13,8 km/h (3 Bft) SW 227 0 min 0,000 mm 0,0 UV-I 0 W/m 9,8 C 6,7 C 24,1 km/h (4 Bft) 97,44 %
25.10.2018 07:34 11,0 C 11,1 C 10,6 C 93 % 1017,9 hPa 0,0 l/m 15,2 km/h (3 Bft) W 270 0 min 0,000 mm 0,0 UV-I 0 W/m 9,9 C 6,3 C 20,9 km/h (4 Bft) 98,00 %
25.10.2018 07:36 11,1 C 11,1 C 10,6 C 93 % 1017,9 hPa 0,0 l/m 13,1 km/h (3 Bft) W 260 0 min 0,000 mm 0,0 UV-I 0 W/m 10,0 C 7,3 C 19,3 km/h (3 Bft) 96,00 %
25.10.2018 07:38 11,1 C 11,1 C 10,6 C 93 % 1017,9 hPa 0,0 l/m 12,3 km/h (3 Bft) W 261 0 min 0,000 mm 0,0 UV-I 0 W/m 10,0 C 7,6 C 17,7 km/h (3 Bft) 97,37 %
25.10.2018 07:40 11,2 C 11,1 C 10,6 C 92 % 1017,9 hPa 0,0 l/m 13,5 km/h (3 Bft) NW 305 0 min 0,000 mm 0,0 UV-I 0 W/m 9,9 C 7,2 C 19,3 km/h (3 Bft) 94,64 %
25.10.2018 07:42 11,2 C 11,1 C 10,6 C 92 % 1017,9 hPa 0,0 l/m 15,1 km/h (3 Bft) W 260 0 min 0,000 mm 0,0 UV-I 1 W/m 9,9 C 6,5 C 22,5 km/h (4 Bft) 97,87 %
25.10.2018 07:44 11,2 C 11,1 C 10,6 C 92 % 1017,9 hPa 0,0 l/m 12,5 km/h (3 Bft) W-NW 288 0 min 0,000 mm 0,0 UV-I 5 W/m 9,9 C 7,7 C 22,5 km/h (4 Bft) 97,37 %
25.10.2018 07:46 11,2 C 11,1 C 10,6 C 92 % 1018,0 hPa 0,0 l/m 12,1 km/h (2 Bft) W-NW 290 0 min 0,000 mm 0,0 UV-I 5 W/m 9,9 C 7,8 C 17,7 km/h (3 Bft) 100,00 %
25.10.2018 07:48 11,3 C 11,1 C 10,6 C 92 % 1017,9 hPa 0,0 l/m 15,7 km/h (3 Bft) W 269 0 min 0,000 mm 0,0 UV-I 5 W/m 10,0 C 6,4 C 30,6 km/h (5 Bft) 100,00 %
25.10.2018 07:50 11,3 C 11,1 C 10,6 C 91 % 1017,9 hPa 0,0 l/m 14,6 km/h (3 Bft) W-SW 249 0 min 0,000 mm 0,0 UV-I 6 W/m 9,9 C 6,9 C 22,5 km/h (4 Bft) 96,00 %
25.10.2018 07:52 11,4 C 11,1 C 10,6 C 91 % 1017,9 hPa 0,0 l/m 17,3 km/h (3 Bft) W-SW 245 0 min 0,000 mm 0,0 UV-I 7 W/m 10,0 C 6,0 C 27,4 km/h (4 Bft) 94,74 %
25.10.2018 07:54 11,4 C 11,1 C 10,6 C 91 % 1017,9 hPa 0,0 l/m 18,7 km/h (3 Bft) W-NW 283 0 min 0,000 mm 0,0 UV-I 7 W/m 10,0 C 5,5 C 27,4 km/h (4 Bft) 96,00 %
25.10.2018 07:56 11,4 C 11,1 C 10,6 C 90 % 1017,8 hPa 0,0 l/m 15,7 km/h (3 Bft) W 270 0 min 0,000 mm 0,0 UV-I 7 W/m 9,8 C 6,6 C 22,5 km/h (4 Bft) 96,00 %
25.10.2018 07:59 11,4 C 11,1 C 10,6 C 90 % 1017,8 hPa 0,0 l/m 14,3 km/h (3 Bft) SW 235 0 min 0,000 mm 0,0 UV-I 7 W/m 9,8 C 7,1 C 24,1 km/h (4 Bft) 94,59 %
25.10.2018 08:00 11,4 C 11,1 C 10,6 C 90 % 1017,8 hPa 0,0 l/m 21,5 km/h (4 Bft) W 278 0 min 0,026 mm 0,0 UV-I 7 W/m 9,8 C 4,7 C 30,6 km/h (5 Bft) 100,00 %
25.10.2018 08:02 11,4 C 11,1 C 10,6 C 90 % 1017,8 hPa 0,0 l/m 20,9 km/h (4 Bft) W-SW 257 0 min 0,000 mm 0,0 UV-I 7 W/m 9,8 C 4,8 C 27,4 km/h (4 Bft) 93,22 %
25.10.2018 08:04 11,5 C 11,1 C 10,6 C 90 % 1017,8 hPa 0,0 l/m 20,7 km/h (4 Bft) W-SW 258 0 min 0,000 mm 0,0 UV-I 7 W/m 9,9 C 5,0 C 30,6 km/h (5 Bft) 93,62 %
25.10.2018 08:06 11,6 C 11,1 C 10,6 C 89 % 1017,8 hPa 0,0 l/m 22,7 km/h (4 Bft) W-NW 283 0 min 0,000 mm 0,0 UV-I 7 W/m 9,8 C 4,6 C 37,0 km/h (5 Bft) 95,12 %
25.10.2018 08:08 11,6 C 11,1 C 10,6 C 89 % 1017,9 hPa 0,0 l/m 14,6 km/h (3 Bft) W 261 0 min 0,000 mm 0,0 UV-I 8 W/m 9,8 C 7,2 C 24,1 km/h (4 Bft) 96,00 %
25.10.2018 08:10 11,6 C 11,1 C 10,6 C 89 % 1017,8 hPa 0,0 l/m 17,8 km/h (3 Bft) W-NW 286 0 min 0,000 mm 0,0 UV-I 9 W/m 9,8 C 6,1 C 24,1 km/h (4 Bft) 94,87 %
25.10.2018 08:12 11,6 C 11,1 C 10,6 C 89 % 1017,8 hPa 0,0 l/m 18,6 km/h (3 Bft) W-NW 286 0 min 0,000 mm 0,0 UV-I 12 W/m 9,8 C 5,8 C 25,7 km/h (4 Bft) 96,43 %
25.10.2018 08:15 11,6 C 11,1 C 10,6 C 89 % 1017,8 hPa 0,0 l/m 17,5 km/h (3 Bft) W 271 0 min 0,000 mm 0,0 UV-I 15 W/m 9,8 C 6,2 C 29,0 km/h (5 Bft) 95,52 %
25.10.2018 08:16 11,6 C 11,1 C 10,6 C 89 % 1017,8 hPa 0,0 l/m 12,3 km/h (3 Bft) W 275 0 min 0,000 mm 0,0 UV-I 16 W/m 9,8 C 8,2 C 17,7 km/h (3 Bft) 100,00 %
25.10.2018 08:18 11,7 C 11,1 C 10,6 C 88 % 1017,9 hPa 0,0 l/m 20,7 km/h (4 Bft) W-SW 254 0 min 0,000 mm 0,0 UV-I 16 W/m 9,8 C 5,3 C 32,2 km/h (5 Bft) 96,23 %
25.10.2018 08:20 11,7 C 11,1 C 10,6 C 88 % 1017,9 hPa 0,0 l/m 15,2 km/h (3 Bft) W 270 0 min 0,000 mm 0,0 UV-I 15 W/m 9,8 C 7,1 C 24,1 km/h (4 Bft) 95,00 %
25.10.2018 08:22 11,7 C 11,1 C 10,6 C 88 % 1017,9 hPa 0,0 l/m 14,1 km/h (3 Bft) W 268 0 min 0,000 mm 0,0 UV-I 14 W/m 9,8 C 7,6 C 20,9 km/h (4 Bft) 92,00 %
25.10.2018 08:24 11,7 C 11,1 C 10,6 C 88 % 1017,9 hPa 0,0 l/m 16,8 km/h (3 Bft) W 268 0 min 0,000 mm 0,0 UV-I 15 W/m 9,8 C 6,5 C 25,7 km/h (4 Bft) 95,45 %
25.10.2018 08:26 11,7 C 11,1 C 11,1 C 88 % 1017,9 hPa 0,0 l/m 16,6 km/h (3 Bft) W 271 0 min 0,000 mm 0,0 UV-I 17 W/m 9,8 C 6,6 C 24,1 km/h (4 Bft) 97,56 %
25.10.2018 08:28 11,7 C 11,1 C 11,1 C 88 % 1017,9 hPa 0,0 l/m 20,0 km/h (4 Bft) W 269 0 min 0,000 mm 0,0 UV-I 19 W/m 9,8 C 5,5 C 33,8 km/h (5 Bft) 98,00 %
25.10.2018 08:30 11,7 C 11,1 C 11,1 C 88 % 1017,8 hPa 0,0 l/m 17,5 km/h (3 Bft) W 259 0 min 0,000 mm 0,0 UV-I 24 W/m 9,8 C 6,3 C 29,0 km/h (5 Bft) 98,00 %
25.10.2018 08:32 11,8 C 11,1 C 11,1 C 87 % 1017,8 hPa 0,0 l/m 20,3 km/h (4 Bft) W 269 0 min 0,000 mm 0,0 UV-I 27 W/m 9,7 C 5,5 C 30,6 km/h (5 Bft) 97,56 %
25.10.2018 08:34 11,8 C 11,1 C 11,1 C 87 % 1017,7 hPa 0,0 l/m 17,9 km/h (3 Bft) W-SW 255 0 min 0,000 mm 0,0 UV-I 33 W/m 9,7 C 6,3 C 27,4 km/h (4 Bft) 96,43 %
25.10.2018 08:36 11,8 C 11,1 C 11,1 C 87 % 1017,7 hPa 0,0 l/m 19,6 km/h (3 Bft) W-NW 302 0 min 0,000 mm 0,0 UV-I 37 W/m 9,7 C 5,7 C 30,6 km/h (5 Bft) 97,56 %
25.10.2018 08:38 11,8 C 11,1 C 11,1 C 87 % 1017,7 hPa 0,0 l/m 16,7 km/h (3 Bft) W 272 0 min 0,000 mm 0,0 UV-I 45 W/m 9,7 C 6,7 C 29,0 km/h (5 Bft) 95,74 %
25.10.2018 08:40 11,8 C 11,1 C 11,1 C 87 % 1017,8 hPa 0,0 l/m 17,7 km/h (3 Bft) W 281 0 min 0,000 mm 0,0 UV-I 45 W/m 9,7 C 6,3 C 29,0 km/h (5 Bft) 95,74 %
25.10.2018 08:42 11,8 C 11,1 C 11,1 C 87 % 1017,8 hPa 0,0 l/m 16,2 km/h (3 Bft) W 274 0 min 0,000 mm 0,0 UV-I 45 W/m 9,7 C 6,9 C 33,8 km/h (5 Bft) 98,00 %
25.10.2018 08:44 11,8 C 11,1 C 11,1 C 87 % 1017,8 hPa 0,0 l/m 17,1 km/h (3 Bft) W-SW 255 0 min 0,000 mm 0,0 UV-I 50 W/m 9,7 C 6,5 C 24,1 km/h (4 Bft) 97,62 %
25.10.2018 08:46 11,8 C 11,1 C 11,1 C 87 % 1017,8 hPa 0,0 l/m 17,7 km/h (3 Bft) W 263 0 min 0,000 mm 0,0 UV-I 58 W/m 9,7 C 6,3 C 30,6 km/h (5 Bft) 94,34 %
25.10.2018 08:48 11,8 C 11,1 C 11,1 C 87 % 1017,8 hPa 0,0 l/m 21,1 km/h (4 Bft) W-SW 242 0 min 0,000 mm 0,0 UV-I 64 W/m 9,7 C 5,3 C 29,0 km/h (5 Bft) 97,37 %
25.10.2018 08:50 11,8 C 11,1 C 11,1 C 87 % 1017,8 hPa 0,0 l/m 18,8 km/h (3 Bft) W 266 0 min 0,000 mm 0,0 UV-I 64 W/m 9,7 C 6,0 C 25,7 km/h (4 Bft) 94,00 %
25.10.2018 08:52 11,8 C 11,1 C 11,1 C 87 % 1017,8 hPa 0,0 l/m 17,8 km/h (3 Bft) W-NW 287 0 min 0,000 mm 0,0 UV-I 74 W/m 9,7 C 6,3 C 29,0 km/h (5 Bft) 96,00 %
25.10.2018 08:54 11,9 C 11,1 C 11,1 C 87 % 1017,9 hPa 0,0 l/m 20,1 km/h (4 Bft) W-NW 288 0 min 0,000 mm 0,0 UV-I 79 W/m 9,8 C 5,7 C 30,6 km/h (5 Bft) 95,74 %
25.10.2018 08:56 11,9 C 11,1 C 11,7 C 87 % 1018,0 hPa 0,0 l/m 11,6 km/h (2 Bft) W 259 0 min 0,000 mm 0,0 UV-I 79 W/m 9,8 C 8,9 C 22,5 km/h (4 Bft) 93,62 %
25.10.2018 08:58 11,9 C 11,1 C 11,7 C 87 % 1017,9 hPa 0,0 l/m 16,6 km/h (3 Bft) W-SW 248 0 min 0,000 mm 0,0 UV-I 80 W/m 9,8 C 6,8 C 25,7 km/h (4 Bft) 95,45 %
25.10.2018 09:00 12,0 C 11,1 C 11,7 C 87 % 1017,9 hPa 0,0 l/m 12,3 km/h (3 Bft) W-NW 296 0 min 0,050 mm 0,0 UV-I 82 W/m 9,9 C 8,7 C 22,5 km/h (4 Bft) 96,43 %
25.10.2018 09:02 12,0 C 11,1 C 11,7 C 87 % 1017,9 hPa 0,0 l/m 18,5 km/h (3 Bft) W 261 0 min 0,000 mm 0,0 UV-I 85 W/m 9,9 C 6,3 C 25,7 km/h (4 Bft) 97,37 %
25.10.2018 09:04 12,1 C 11,1 C 11,7 C 87 % 1017,9 hPa 0,0 l/m 16,0 km/h (3 Bft) W 272 0 min 0,000 mm 0,0 UV-I 91 W/m 10,0 C 7,3 C 29,0 km/h (5 Bft) 96,00 %
25.10.2018 09:06 12,1 C 11,1 C 11,7 C 87 % 1017,9 hPa 0,0 l/m 14,0 km/h (3 Bft) W 273 0 min 0,000 mm 0,0 UV-I 91 W/m 10,0 C 8,1 C 19,3 km/h (3 Bft) 95,74 %
25.10.2018 09:08 12,1 C 11,1 C 11,7 C 87 % 1017,9 hPa 0,0 l/m 17,0 km/h (3 Bft) W 269 0 min 0,000 mm 0,0 UV-I 87 W/m 10,0 C 7,0 C 25,7 km/h (4 Bft) 97,87 %
25.10.2018 09:10 12,1 C 11,1 C 11,7 C 87 % 1018,0 hPa 0,0 l/m 13,4 km/h (3 Bft) W 268 0 min 0,000 mm 0,0 UV-I 99 W/m 10,0 C 8,3 C 20,9 km/h (4 Bft) 96,30 %
25.10.2018 09:12 12,1 C 11,1 C 11,7 C 87 % 1018,0 hPa 0,0 l/m 14,6 km/h (3 Bft) W 267 0 min 0,000 mm 0,0 UV-I 90 W/m 10,0 C 7,8 C 22,5 km/h (4 Bft) 98,57 %
25.10.2018 09:14 12,1 C 11,1 C 11,7 C 87 % 1018,0 hPa 0,0 l/m 15,2 km/h (3 Bft) W-NW 282 0 min 0,000 mm 0,0 UV-I 88 W/m 10,0 C 7,6 C 20,9 km/h (4 Bft) 100,00 %
25.10.2018 09:16 12,2 C 11,1 C 12,2 C 87 % 1018,0 hPa 0,0 l/m 11,7 km/h (2 Bft) W 278 0 min 0,000 mm 0,0 UV-I 86 W/m 10,1 C 9,2 C 20,9 km/h (4 Bft) 100,00 %
25.10.2018 09:18 12,2 C 11,1 C 12,2 C 87 % 1018,0 hPa 0,0 l/m 12,7 km/h (3 Bft) W 271 0 min 0,000 mm 0,0 UV-I 79 W/m 10,1 C 8,7 C 17,7 km/h (3 Bft) 100,00 %
25.10.2018 09:20 12,2 C 11,1 C 12,2 C 87 % 1018,0 hPa 0,0 l/m 11,2 km/h (2 Bft) W 271 0 min 0,000 mm 0,0 UV-I 53 W/m 10,1 C 9,4 C 16,1 km/h (3 Bft) 100,00 %
25.10.2018 09:22 12,1 C 11,1 C 11,7 C 87 % 1018,0 hPa 0,0 l/m 9,4 km/h (2 Bft) W 259 0 min 0,000 mm 0,0 UV-I 44 W/m 10,0 C 10,2 C 14,5 km/h (3 Bft) 100,00 %
25.10.2018 09:24 12,1 C 11,1 C 11,7 C 87 % 1017,9 hPa 0,0 l/m 8,6 km/h (2 Bft) SW 221 0 min 0,000 mm 0,0 UV-I 56 W/m 10,0 C 10,7 C 14,5 km/h (3 Bft) 100,00 %
25.10.2018 09:26 12,1 C 11,1 C 11,7 C 87 % 1017,9 hPa 0,0 l/m 8,6 km/h (2 Bft) W 265 0 min 0,000 mm 0,0 UV-I 80 W/m 10,0 C 10,7 C 12,9 km/h (3 Bft) 100,00 %
25.10.2018 09:28 12,1 C 11,1 C 12,2 C 87 % 1017,9 hPa 0,0 l/m 10,1 km/h (2 Bft) W-SW 247 0 min 0,000 mm 0,0 UV-I 93 W/m 10,0 C 9,9 C 17,7 km/h (3 Bft) 100,00 %
25.10.2018 09:30 12,2 C 11,1 C 12,2 C 87 % 1017,9 hPa 0,0 l/m 6,3 km/h (2 Bft) W-SW 257 0 min 0,000 mm 0,0 UV-I 87 W/m 10,1 C 12,2 C 12,9 km/h (3 Bft) 100,00 %
25.10.2018 09:32 12,2 C 11,1 C 12,2 C 87 % 1017,9 hPa 0,0 l/m 10,7 km/h (2 Bft) W-SW 247 0 min 0,000 mm 0,0 UV-I 78 W/m 10,1 C 9,7 C 16,1 km/h (3 Bft) 100,00 %
25.10.2018 09:34 12,2 C 11,1 C 12,2 C 88 % 1017,9 hPa 0,0 l/m 10,8 km/h (2 Bft) W-SW 239 0 min 0,000 mm 0,0 UV-I 83 W/m 10,3 C 9,6 C 17,7 km/h (3 Bft) 100,00 %
25.10.2018 09:36 12,1 C 11,1 C 12,2 C 88 % 1017,9 hPa 0,0 l/m 10,6 km/h (2 Bft) SW 219 0 min 0,000 mm 0,0 UV-I 72 W/m 10,2 C 9,6 C 16,1 km/h (3 Bft) 100,00 %
25.10.2018 09:38 12,1 C 11,1 C 12,2 C 88 % 1018,0 hPa 0,0 l/m 10,5 km/h (2 Bft) W-SW 237 0 min 0,000 mm 0,0 UV-I 75 W/m 10,2 C 9,7 C 17,7 km/h (3 Bft) 100,00 %
25.10.2018 09:40 12,1 C 11,1 C 12,2 C 88 % 1017,9 hPa 0,0 l/m 6,7 km/h (2 Bft) W 260 0 min 0,000 mm 0,0 UV-I 81 W/m 10,2 C 11,9 C 12,9 km/h (3 Bft) 100,00 %
25.10.2018 09:42 12,1 C 11,1 C 12,2 C 88 % 1018,0 hPa 0,0 l/m 11,1 km/h (2 Bft) W-SW 237 0 min 0,000 mm 0,0 UV-I 78 W/m 10,2 C 9,4 C 16,1 km/h (3 Bft) 100,00 %
25.10.2018 09:44 12,1 C 11,1 C 12,2 C 88 % 1018,0 hPa 0,0 l/m 10,3 km/h (2 Bft) W 263 0 min 0,000 mm 0,0 UV-I 93 W/m 10,2 C 9,8 C 17,7 km/h (3 Bft) 100,00 %
25.10.2018 09:46 12,2 C 11,1 C 12,2 C 88 % 1017,9 hPa 0,0 l/m 13,2 km/h (3 Bft) SW 225 0 min 0,000 mm 0,0 UV-I 117 W/m 10,3 C 8,5 C 19,3 km/h (3 Bft) 98,00 %
25.10.2018 09:48 12,2 C 11,1 C 12,8 C 88 % 1018,0 hPa 0,0 l/m 11,8 km/h (2 Bft) SW 230 0 min 0,000 mm 0,0 UV-I 120 W/m 10,3 C 9,1 C 17,7 km/h (3 Bft) 100,00 %
25.10.2018 09:50 12,2 C 11,1 C 12,8 C 88 % 1017,9 hPa 0,0 l/m 9,5 km/h (2 Bft) W 271 0 min 0,000 mm 0,0 UV-I 112 W/m 10,3 C 10,3 C 14,5 km/h (3 Bft) 100,00 %
25.10.2018 09:52 12,3 C 11,1 C 12,8 C 88 % 1017,8 hPa 0,0 l/m 9,1 km/h (2 Bft) W 265 0 min 0,000 mm 0,0 UV-I 102 W/m 10,4 C 10,6 C 12,9 km/h (3 Bft) 98,00 %
25.10.2018 09:54 12,3 C 11,1 C 12,8 C 87 % 1017,8 hPa 0,0 l/m 11,5 km/h (2 Bft) W-SW 256 0 min 0,000 mm 0,0 UV-I 106 W/m 10,2 C 9,4 C 17,7 km/h (3 Bft) 98,11 %
25.10.2018 09:56 12,4 C 11,1 C 12,8 C 87 % 1017,7 hPa 0,0 l/m 11,7 km/h (2 Bft) W-SW 249 0 min 0,000 mm 0,0 UV-I 130 W/m 10,3 C 9,4 C 16,1 km/h (3 Bft) 97,87 %
25.10.2018 09:58 12,4 C 11,1 C 12,8 C 87 % 1017,7 hPa 0,0 l/m 13,7 km/h (3 Bft) W-SW 247 0 min 0,000 mm 0,1 UV-I 141 W/m 10,3 C 8,6 C 20,9 km/h (4 Bft) 97,22 %
25.10.2018 10:00 12,4 C 11,1 C 12,8 C 87 % 1017,7 hPa 0,0 l/m 14,6 km/h (3 Bft) SW 231 0 min 0,051 mm 0,5 UV-I 164 W/m 10,3 C 8,2 C 25,7 km/h (4 Bft) 98,11 %
25.10.2018 10:02 12,5 C 11,1 C 13,3 C 86 % 1017,6 hPa 0,0 l/m 17,2 km/h (3 Bft) W-SW 246 2 min 0,000 mm 0,5 UV-I 195 W/m 10,2 C 7,4 C 24,1 km/h (4 Bft) 96,15 %
25.10.2018 10:04 12,6 C 11,1 C 13,3 C 86 % 1017,6 hPa 0,0 l/m 13,0 km/h (3 Bft) W 265 2 min 0,000 mm 0,5 UV-I 201 W/m 10,3 C 9,1 C 19,3 km/h (3 Bft) 96,30 %
25.10.2018 10:06 12,7 C 11,1 C 13,9 C 87 % 1017,6 hPa 0,0 l/m 15,7 km/h (3 Bft) W 269 2 min 0,000 mm 0,5 UV-I 212 W/m 10,6 C 8,2 C 25,7 km/h (4 Bft) 96,43 %
25.10.2018 10:08 12,7 C 11,1 C 13,9 C 86 % 1017,6 hPa 0,0 l/m 14,4 km/h (3 Bft) S-SW 212 2 min 0,000 mm 0,5 UV-I 207 W/m 10,4 C 8,6 C 20,9 km/h (4 Bft) 96,15 %
25.10.2018 10:10 12,8 C 11,1 C 13,9 C 86 % 1017,6 hPa 0,0 l/m 13,9 km/h (3 Bft) W-SW 254 2 min 0,000 mm 0,5 UV-I 218 W/m 10,5 C 8,9 C 19,3 km/h (3 Bft) 94,12 %
25.10.2018 10:12 12,9 C 11,1 C 14,4 C 86 % 1017,6 hPa 0,0 l/m 14,1 km/h (3 Bft) W-SW 243 2 min 0,000 mm 0,5 UV-I 208 W/m 10,6 C 9,0 C 24,1 km/h (4 Bft) 96,00 %
25.10.2018 10:14 13,0 C 11,1 C 14,4 C 86 % 1017,5 hPa 0,0 l/m 14,1 km/h (3 Bft) SW 232 2 min 0,000 mm 0,5 UV-I 215 W/m 10,7 C 9,1 C 24,1 km/h (4 Bft) 94,34 %
25.10.2018 10:16 13,1 C 11,1 C 14,4 C 85 % 1017,5 hPa 0,0 l/m 12,5 km/h (3 Bft) W 275 2 min 0,000 mm 0,5 UV-I 214 W/m 10,6 C 9,9 C 19,3 km/h (3 Bft) 92,68 %
25.10.2018 10:18 13,1 C 11,1 C 14,4 C 85 % 1017,5 hPa 0,0 l/m 14,1 km/h (3 Bft) W-SW 240 2 min 0,000 mm 0,6 UV-I 214 W/m 10,6 C 9,2 C 19,3 km/h (3 Bft) 96,00 %
25.10.2018 10:20 13,2 C 11,1 C 14,4 C 85 % 1017,4 hPa 0,0 l/m 14,8 km/h (3 Bft) SW 223 0 min 0,000 mm 0,6 UV-I 199 W/m 10,7 C 9,1 C 20,9 km/h (4 Bft) 95,12 %
25.10.2018 10:22 13,2 C 11,1 C 14,4 C 85 % 1017,4 hPa 0,0 l/m 16,6 km/h (3 Bft) W 265 0 min 0,000 mm 0,6 UV-I 188 W/m 10,7 C 8,5 C 20,9 km/h (4 Bft) 94,34 %
25.10.2018 10:24 13,2 C 11,1 C 14,4 C 85 % 1017,4 hPa 0,0 l/m 12,2 km/h (2 Bft) W 271 2 min 0,000 mm 0,6 UV-I 213 W/m 10,7 C 10,1 C 17,7 km/h (3 Bft) 96,55 %
25.10.2018 10:26 13,2 C 11,1 C 14,4 C 85 % 1017,4 hPa 0,0 l/m 15,0 km/h (3 Bft) W 274 2 min 0,000 mm 0,6 UV-I 220 W/m 10,7 C 9,0 C 20,9 km/h (4 Bft) 93,55 %
25.10.2018 10:28 13,2 C 11,1 C 14,4 C 84 % 1017,4 hPa 0,0 l/m 14,7 km/h (3 Bft) W-SW 254 2 min 0,000 mm 0,6 UV-I 235 W/m 10,6 C 9,1 C 24,1 km/h (4 Bft) 100,00 %
25.10.2018 10:30 13,2 C 11,1 C 14,4 C 84 % 1017,4 hPa 0,0 l/m 15,6 km/h (3 Bft) W-SW 242 2 min 0,000 mm 0,6 UV-I 235 W/m 10,6 C 8,8 C 22,5 km/h (4 Bft) 98,11 %
25.10.2018 10:32 13,3 C 11,1 C 14,4 C 84 % 1017,4 hPa 0,0 l/m 15,1 km/h (3 Bft) W 267 0 min 0,000 mm 0,6 UV-I 209 W/m 10,7 C 9,1 C 24,1 km/h (4 Bft) 100,00 %
25.10.2018 10:34 13,3 C 11,1 C 14,4 C 84 % 1017,4 hPa 0,0 l/m 14,7 km/h (3 Bft) W-SW 256 0 min 0,000 mm 0,6 UV-I 197 W/m 10,7 C 9,2 C 20,9 km/h (4 Bft) 100,00 %
25.10.2018 10:36 13,3 C 11,1 C 14,4 C 84 % 1017,4 hPa 0,0 l/m 16,7 km/h (3 Bft) W-SW 248 0 min 0,000 mm 0,6 UV-I 214 W/m 10,7 C 8,5 C 25,7 km/h (4 Bft) 97,78 %
25.10.2018 10:38 13,3 C 11,1 C 14,4 C 84 % 1017,3 hPa 0,0 l/m 17,6 km/h (3 Bft) W 275 2 min 0,000 mm 0,6 UV-I 256 W/m 10,7 C 8,3 C 25,7 km/h (4 Bft) 100,00 %
25.10.2018 10:40 13,4 C 11,1 C 15,0 C 84 % 1017,3 hPa 0,0 l/m 15,6 km/h (3 Bft) W 269 2 min 0,000 mm 0,6 UV-I 261 W/m 10,8 C 9,0 C 25,7 km/h (4 Bft) 97,87 %
25.10.2018 10:42 13,4 C 11,1 C 15,0 C 84 % 1017,3 hPa 0,0 l/m 13,7 km/h (3 Bft) SW 223 2 min 0,000 mm 0,7 UV-I 232 W/m 10,8 C 9,7 C 20,9 km/h (4 Bft) 100,00 %
25.10.2018 10:44 13,4 C 11,1 C 15,0 C 84 % 1017,3 hPa 0,0 l/m 15,4 km/h (3 Bft) W-SW 246 2 min 0,000 mm 0,7 UV-I 241 W/m 10,8 C 9,1 C 22,5 km/h (4 Bft) 100,00 %
25.10.2018 10:46 13,5 C 11,1 C 15,0 C 83 % 1017,3 hPa 0,0 l/m 18,7 km/h (3 Bft) W 259 2 min 0,000 mm 0,7 UV-I 236 W/m 10,7 C 8,2 C 25,7 km/h (4 Bft) 98,53 %
25.10.2018 10:48 13,5 C 11,1 C 15,0 C 83 % 1017,2 hPa 0,0 l/m 16,5 km/h (3 Bft) W 265 0 min 0,000 mm 0,7 UV-I 226 W/m 10,7 C 8,9 C 27,4 km/h (4 Bft) 100,00 %
25.10.2018 10:50 13,5 C 11,1 C 15,0 C 83 % 1017,2 hPa 0,0 l/m 17,6 km/h (3 Bft) S-SW 205 0 min 0,000 mm 0,7 UV-I 204 W/m 10,7 C 8,5 C 25,7 km/h (4 Bft) 100,00 %
25.10.2018 10:52 13,4 C 11,1 C 14,4 C 83 % 1017,2 hPa 0,0 l/m 17,1 km/h (3 Bft) W 273 0 min 0,000 mm 0,7 UV-I 187 W/m 10,6 C 8,5 C 24,1 km/h (4 Bft) 100,00 %
25.10.2018 10:54 13,4 C 11,1 C 14,4 C 83 % 1017,1 hPa 0,0 l/m 14,9 km/h (3 Bft) W-SW 245 0 min 0,000 mm 0,7 UV-I 175 W/m 10,6 C 9,3 C 25,7 km/h (4 Bft) 100,00 %
25.10.2018 10:56 13,4 C 11,1 C 14,4 C 83 % 1017,0 hPa 0,0 l/m 17,3 km/h (3 Bft) W-SW 243 0 min 0,000 mm 0,8 UV-I 194 W/m 10,6 C 8,5 C 25,7 km/h (4 Bft) 97,56 %
25.10.2018 10:58 13,5 C 11,1 C 15,0 C 83 % 1017,0 hPa 0,0 l/m 18,4 km/h (3 Bft) W 277 0 min 0,000 mm 0,8 UV-I 220 W/m 10,7 C 8,3 C 29,0 km/h (5 Bft) 100,00 %
25.10.2018 11:00 13,6 C 11,1 C 15,6 C 83 % 1017,0 hPa 0,0 l/m 16,2 km/h (3 Bft) W 266 2 min 0,127 mm 0,9 UV-I 249 W/m 10,8 C 9,1 C 24,1 km/h (4 Bft) 100,00 %
25.10.2018 11:02 13,7 C 11,1 C 15,6 C 83 % 1017,0 hPa 0,0 l/m 20,6 km/h (4 Bft) W 267 0 min 0,000 mm 0,8 UV-I 224 W/m 10,9 C 7,9 C 32,2 km/h (5 Bft) 97,73 %
25.10.2018 11:04 13,7 C 11,1 C 15,6 C 82 % 1017,0 hPa 0,0 l/m 14,8 km/h (3 Bft) W 261 2 min 0,000 mm 0,8 UV-I 253 W/m 10,7 C 9,7 C 27,4 km/h (4 Bft) 100,00 %
25.10.2018 11:06 13,8 C 11,1 C 16,7 C 83 % 1017,0 hPa 0,0 l/m 11,2 km/h (2 Bft) W 263 2 min 0,000 mm 0,8 UV-I 278 W/m 11,0 C 11,2 C 17,7 km/h (3 Bft) 100,00 %
25.10.2018 11:08 13,9 C 11,1 C 16,1 C 82 % 1017,0 hPa 0,0 l/m 19,6 km/h (3 Bft) W-SW 252 0 min 0,000 mm 0,8 UV-I 234 W/m 10,9 C 8,4 C 30,6 km/h (5 Bft) 100,00 %
25.10.2018 11:10 13,9 C 11,1 C 15,6 C 81 % 1017,0 hPa 0,0 l/m 18,1 km/h (3 Bft) W-SW 255 0 min 0,000 mm 0,7 UV-I 186 W/m 10,7 C 8,9 C 24,1 km/h (4 Bft) 100,00 %
25.10.2018 11:12 13,9 C 11,1 C 15,6 C 80 % 1017,0 hPa 0,0 l/m 14,9 km/h (3 Bft) W 276 0 min 0,000 mm 0,8 UV-I 241 W/m 10,5 C 9,9 C 22,5 km/h (4 Bft) 98,21 %
25.10.2018 11:14 14,1 C 11,1 C 15,6 C 81 % 1017,0 hPa 0,0 l/m 11,9 km/h (2 Bft) W-NW 288 0 min 0,000 mm 0,8 UV-I 229 W/m 10,9 C 11,3 C 22,5 km/h (4 Bft) 100,00 %
25.10.2018 11:16 14,1 C 11,1 C 16,1 C 81 % 1016,9 hPa 0,0 l/m 20,9 km/h (4 Bft) W 273 0 min 0,000 mm 0,8 UV-I 237 W/m 10,9 C 8,3 C 30,6 km/h (5 Bft) 100,00 %
25.10.2018 11:18 14,2 C 11,1 C 16,1 C 80 % 1016,8 hPa 0,0 l/m 25,0 km/h (4 Bft) W 273 2 min 0,000 mm 0,9 UV-I 258 W/m 10,8 C 7,5 C 48,3 km/h (6 Bft) 100,00 %
25.10.2018 11:20 14,1 C 11,1 C 16,1 C 79 % 1016,8 hPa 0,0 l/m 18,8 km/h (3 Bft) W 260 0 min 0,000 mm 0,9 UV-I 241 W/m 10,5 C 8,9 C 29,0 km/h (5 Bft) 98,00 %
25.10.2018 11:22 14,1 C 11,1 C 16,1 C 79 % 1016,7 hPa 0,0 l/m 23,0 km/h (4 Bft) W 261 0 min 0,000 mm 0,9 UV-I 234 W/m 10,5 C 7,8 C 32,2 km/h (5 Bft) 98,11 %
25.10.2018 11:24 14,1 C 11,1 C 16,1 C 79 % 1016,7 hPa 0,0 l/m 26,0 km/h (4 Bft) W 264 2 min 0,000 mm 1,0 UV-I 267 W/m 10,5 C 7,2 C 41,8 km/h (6 Bft) 100,00 %
25.10.2018 11:26 14,1 C 11,1 C 16,1 C 79 % 1016,7 hPa 0,0 l/m 19,5 km/h (3 Bft) W 277 0 min 0,000 mm 1,0 UV-I 242 W/m 10,5 C 8,7 C 32,2 km/h (5 Bft) 100,00 %
25.10.2018 11:28 14,1 C 11,1 C 16,1 C 79 % 1016,7 hPa 0,0 l/m 16,0 km/h (3 Bft) W-SW 255 0 min 0,000 mm 1,1 UV-I 242 W/m 10,5 C 9,8 C 25,7 km/h (4 Bft) 100,00 %
25.10.2018 11:30 14,2 C 11,1 C 16,1 C 79 % 1016,7 hPa 0,0 l/m 18,9 km/h (3 Bft) W 272 0 min 0,000 mm 1,0 UV-I 243 W/m 10,6 C 9,0 C 29,0 km/h (5 Bft) 100,00 %
25.10.2018 11:32 14,2 C 11,1 C 16,1 C 79 % 1016,7 hPa 0,0 l/m 18,9 km/h (3 Bft) W-NW 296 0 min 0,000 mm 1,0 UV-I 224 W/m 10,6 C 9,0 C 40,2 km/h (6 Bft) 100,00 %
25.10.2018 11:34 14,2 C 11,1 C 16,1 C 79 % 1016,6 hPa 0,0 l/m 19,8 km/h (3 Bft) W-NW 285 0 min 0,000 mm 1,0 UV-I 217 W/m 10,6 C 8,8 C 30,6 km/h (5 Bft) 98,11 %
25.10.2018 11:36 14,2 C 11,1 C 16,1 C 79 % 1016,6 hPa 0,0 l/m 21,5 km/h (4 Bft) W 270 0 min 0,000 mm 1,2 UV-I 183 W/m 10,6 C 8,3 C 37,0 km/h (5 Bft) 97,87 %
25.10.2018 11:38 14,2 C 11,1 C 16,1 C 79 % 1016,6 hPa 0,0 l/m 24,6 km/h (4 Bft) W-SW 257 0 min 0,000 mm 1,2 UV-I 214 W/m 10,6 C 7,6 C 38,6 km/h (5 Bft) 97,37 %
25.10.2018 11:40 14,2 C 11,1 C 16,1 C 78 % 1016,6 hPa 0,0 l/m 19,2 km/h (3 Bft) SW 220 0 min 0,000 mm 1,0 UV-I 192 W/m 10,4 C 8,9 C 37,0 km/h (5 Bft) 95,74 %
25.10.2018 11:42 14,2 C 11,1 C 15,6 C 79 % 1016,7 hPa 0,0 l/m 17,8 km/h (3 Bft) W 275 0 min 0,000 mm 1,0 UV-I 206 W/m 10,6 C 9,3 C 29,0 km/h (5 Bft) 98,00 %
25.10.2018 11:44 14,2 C 11,1 C 16,7 C 79 % 1016,7 hPa 0,0 l/m 25,8 km/h (4 Bft) W 267 2 min 0,000 mm 1,1 UV-I 266 W/m 10,6 C 7,4 C 40,2 km/h (6 Bft) 97,87 %
25.10.2018 11:46 14,3 C 11,1 C 16,7 C 79 % 1016,6 hPa 0,0 l/m 17,9 km/h (3 Bft) W 259 2 min 0,000 mm 1,1 UV-I 279 W/m 10,7 C 9,4 C 32,2 km/h (5 Bft) 96,23 %
25.10.2018 11:48 14,4 C 11,1 C 16,7 C 79 % 1016,6 hPa 0,0 l/m 21,1 km/h (4 Bft) W-SW 245 2 min 0,000 mm 1,1 UV-I 297 W/m 10,8 C 8,7 C 30,6 km/h (5 Bft) 93,18 %
25.10.2018 11:50 14,5 C 11,1 C 17,8 C 78 % 1016,6 hPa 0,0 l/m 21,5 km/h (4 Bft) W-SW 257 2 min 0,000 mm 1,0 UV-I 368 W/m 10,7 C 8,7 C 38,6 km/h (5 Bft) 95,45 %
25.10.2018 11:52 14,6 C 11,1 C 17,8 C 78 % 1016,6 hPa 0,0 l/m 21,5 km/h (4 Bft) W-NW 283 2 min 0,000 mm 1,0 UV-I 284 W/m 10,8 C 8,9 C 30,6 km/h (5 Bft) 97,44 %
25.10.2018 11:54 14,7 C 11,1 C 17,8 C 78 % 1016,7 hPa 0,0 l/m 17,1 km/h (3 Bft) NW 317 2 min 0,000 mm 0,9 UV-I 339 W/m 10,9 C 10,2 C 25,7 km/h (4 Bft) 92,00 %
25.10.2018 11:56 14,8 C 11,1 C 16,7 C 77 % 1016,7 hPa 0,0 l/m 21,7 km/h (4 Bft) W-NW 294 0 min 0,000 mm 0,8 UV-I 217 W/m 10,8 C 9,1 C 38,6 km/h (5 Bft) 96,00 %
25.10.2018 11:58 14,7 C 11,1 C 16,7 C 76 % 1016,6 hPa 0,0 l/m 29,8 km/h (5 Bft) W 275 0 min 0,000 mm 0,9 UV-I 224 W/m 10,5 C 7,3 C 53,1 km/h (7 Bft) 96,00 %
25.10.2018 12:00 14,7 C 11,1 C 16,7 C 76 % 1016,6 hPa 0,0 l/m 16,8 km/h (3 Bft) W 259 0 min 0,178 mm 1,0 UV-I 242 W/m 10,5 C 10,3 C 35,4 km/h (5 Bft) 98,00 %
25.10.2018 12:02 14,7 C 11,1 C 16,7 C 77 % 1016,6 hPa 0,0 l/m 15,8 km/h (3 Bft) W 261 0 min 0,000 mm 0,9 UV-I 245 W/m 10,7 C 10,6 C 33,8 km/h (5 Bft) 97,56 %
25.10.2018 12:04 14,6 C 11,1 C 16,7 C 77 % 1016,4 hPa 0,0 l/m 22,7 km/h (4 Bft) W 274 0 min 0,000 mm 1,0 UV-I 236 W/m 10,6 C 8,6 C 32,2 km/h (5 Bft) 95,74 %
25.10.2018 12:06 14,6 C 11,1 C 16,7 C 77 % 1016,4 hPa 0,0 l/m 28,0 km/h (4 Bft) W 268 0 min 0,000 mm 1,1 UV-I 231 W/m 10,6 C 7,5 C 41,8 km/h (6 Bft) 95,74 %
25.10.2018 12:08 14,7 C 11,1 C 16,7 C 77 % 1016,3 hPa 0,0 l/m 20,6 km/h (4 Bft) W 267 0 min 0,000 mm 1,3 UV-I 253 W/m 10,7 C 9,2 C 30,6 km/h (5 Bft) 92,00 %
25.10.2018 12:10 14,7 C 11,1 C 17,2 C 77 % 1016,4 hPa 0,0 l/m 17,3 km/h (3 Bft) W-SW 255 2 min 0,000 mm 1,2 UV-I 295 W/m 10,7 C 10,1 C 32,2 km/h (5 Bft) 97,87 %
25.10.2018 12:12 14,8 C 11,1 C 17,8 C 77 % 1016,4 hPa 0,0 l/m 20,1 km/h (4 Bft) W-SW 252 2 min 0,000 mm 1,1 UV-I 309 W/m 10,8 C 9,5 C 25,7 km/h (4 Bft) 97,56 %
25.10.2018 12:14 14,8 C 11,1 C 17,8 C 77 % 1016,4 hPa 0,0 l/m 17,2 km/h (3 Bft) W-SW 242 0 min 0,000 mm 1,0 UV-I 266 W/m 10,8 C 10,3 C 25,7 km/h (4 Bft) 98,00 %
25.10.2018 12:16 14,9 C 11,1 C 17,8 C 77 % 1016,4 hPa 0,0 l/m 13,9 km/h (3 Bft) W 267 0 min 0,000 mm 1,0 UV-I 243 W/m 10,9 C 11,4 C 20,9 km/h (4 Bft) 98,11 %
25.10.2018 12:18 14,9 C 11,1 C 17,2 C 77 % 1016,4 hPa 0,0 l/m 17,9 km/h (3 Bft) W-NW 294 0 min 0,000 mm 1,0 UV-I 237 W/m 10,9 C 10,2 C 25,7 km/h (4 Bft) 97,14 %
25.10.2018 12:20 14,9 C 11,1 C 17,2 C 77 % 1016,3 hPa 0,0 l/m 15,0 km/h (3 Bft) W 260 0 min 0,000 mm 1,0 UV-I 234 W/m 10,9 C 11,1 C 24,1 km/h (4 Bft) 98,11 %
25.10.2018 12:22 14,8 C 11,1 C 17,2 C 77 % 1016,2 hPa 0,0 l/m 15,2 km/h (3 Bft) W-NW 288 0 min 0,000 mm 0,9 UV-I 224 W/m 10,8 C 10,9 C 27,4 km/h (4 Bft) 100,00 %
25.10.2018 12:24 14,8 C 11,1 C 16,7 C 76 % 1016,1 hPa 0,0 l/m 19,4 km/h (3 Bft) W-SW 256 0 min 0,000 mm 0,9 UV-I 240 W/m 10,6 C 9,6 C 29,0 km/h (5 Bft) 100,00 %
25.10.2018 12:26 14,8 C 11,1 C 16,7 C 76 % 1016,2 hPa 0,0 l/m 17,5 km/h (3 Bft) W-SW 237 0 min 0,000 mm 0,8 UV-I 205 W/m 10,6 C 10,2 C 25,7 km/h (4 Bft) 100,00 %
25.10.2018 12:28 14,8 C 11,1 C 16,7 C 77 % 1016,1 hPa 0,0 l/m 15,4 km/h (3 Bft) W-SW 257 0 min 0,000 mm 0,7 UV-I 189 W/m 10,8 C 10,8 C 25,7 km/h (4 Bft) 97,44 %
25.10.2018 12:30 14,8 C 11,1 C 16,7 C 77 % 1016,1 hPa 0,0 l/m 18,4 km/h (3 Bft) W 267 0 min 0,000 mm 0,9 UV-I 234 W/m 10,8 C 9,9 C 29,0 km/h (5 Bft) 98,08 %
25.10.2018 12:32 14,8 C 11,1 C 16,7 C 77 % 1016,0 hPa 0,0 l/m 16,5 km/h (3 Bft) W-SW 255 0 min 0,000 mm 0,8 UV-I 225 W/m 10,8 C 10,5 C 24,1 km/h (4 Bft) 98,00 %
25.10.2018 12:34 14,8 C 11,1 C 16,7 C 77 % 1015,9 hPa 0,0 l/m 12,5 km/h (3 Bft) W-SW 252 0 min 0,000 mm 0,8 UV-I 200 W/m 10,8 C 11,8 C 19,3 km/h (3 Bft) 97,87 %
25.10.2018 12:36 14,7 C 11,1 C 16,7 C 78 % 1015,9 hPa 0,0 l/m 14,5 km/h (3 Bft) W 269 0 min 0,000 mm 0,7 UV-I 177 W/m 10,9 C 11,0 C 27,4 km/h (4 Bft) 97,62 %
25.10.2018 12:38 14,7 C 11,1 C 16,1 C 76 % 1015,9 hPa 0,0 l/m 20,4 km/h (4 Bft) W-SW 257 0 min 0,000 mm 0,7 UV-I 177 W/m 10,5 C 9,3 C 30,6 km/h (5 Bft) 96,00 %
25.10.2018 12:40 14,7 C 11,1 C 16,1 C 76 % 1015,9 hPa 0,0 l/m 16,6 km/h (3 Bft) W-SW 244 0 min 0,000 mm 0,7 UV-I 166 W/m 10,5 C 10,3 C 25,7 km/h (4 Bft) 93,62 %
25.10.2018 12:42 14,7 C 11,1 C 16,1 C 77 % 1015,8 hPa 0,0 l/m 17,6 km/h (3 Bft) W-NW 286 0 min 0,000 mm 0,8 UV-I 176 W/m 10,7 C 10,0 C 22,5 km/h (4 Bft) 98,00 %
25.10.2018 12:44 14,7 C 11,1 C 16,7 C 77 % 1015,7 hPa 0,0 l/m 16,9 km/h (3 Bft) SW 225 0 min 0,000 mm 0,9 UV-I 203 W/m 10,7 C 10,2 C 33,8 km/h (5 Bft) 97,37 %
25.10.2018 12:46 14,7 C 11,1 C 16,7 C 77 % 1015,8 hPa 0,0 l/m 21,9 km/h (4 Bft) W 278 0 min 0,000 mm 0,8 UV-I 183 W/m 10,7 C 8,9 C 33,8 km/h (5 Bft) 97,87 %
25.10.2018 12:48 14,7 C 11,1 C 16,7 C 77 % 1015,8 hPa 0,0 l/m 15,9 km/h (3 Bft) W 278 0 min 0,000 mm 0,8 UV-I 202 W/m 10,7 C 10,5 C 25,7 km/h (4 Bft) 95,74 %
25.10.2018 12:50 14,8 C 11,1 C 16,7 C 76 % 1015,8 hPa 0,0 l/m 19,1 km/h (3 Bft) W 259 0 min 0,000 mm 0,8 UV-I 200 W/m 10,6 C 9,7 C 35,4 km/h (5 Bft) 97,56 %
25.10.2018 12:52 14,8 C 11,1 C 16,7 C 76 % 1015,7 hPa 0,0 l/m 20,4 km/h (4 Bft) W 275 0 min 0,000 mm 0,8 UV-I 188 W/m 10,6 C 9,4 C 32,2 km/h (5 Bft) 98,31 %
25.10.2018 12:54 14,8 C 11,1 C 16,7 C 76 % 1015,6 hPa 0,0 l/m 22,8 km/h (4 Bft) W-NW 293 0 min 0,000 mm 0,8 UV-I 210 W/m 10,6 C 8,8 C 38,6 km/h (5 Bft) 92,68 %
25.10.2018 12:56 14,8 C 11,1 C 16,7 C 76 % 1015,8 hPa 0,0 l/m 23,6 km/h (4 Bft) W 277 0 min 0,000 mm 0,9 UV-I 228 W/m 10,6 C 8,6 C 40,2 km/h (6 Bft) 98,11 %
25.10.2018 12:58 14,8 C 11,1 C 16,7 C 76 % 1015,7 hPa 0,0 l/m 21,9 km/h (4 Bft) W 279 0 min 0,000 mm 1,0 UV-I 238 W/m 10,6 C 9,0 C 40,2 km/h (6 Bft) 95,12 %
25.10.2018 13:00 14,9 C 11,1 C 16,7 C 76 % 1015,7 hPa 0,0 l/m 17,5 km/h (3 Bft) W 260 0 min 0,178 mm 1,0 UV-I 251 W/m 10,7 C 10,3 C 29,0 km/h (5 Bft) 96,00 %
25.10.2018 13:02 14,9 C 11,1 C 17,2 C 76 % 1015,7 hPa 0,0 l/m 21,1 km/h (4 Bft) W 269 0 min 0,000 mm 1,0 UV-I 257 W/m 10,7 C 9,3 C 29,0 km/h (5 Bft) 92,11 %
25.10.2018 13:04 15,0 C 11,1 C 17,2 C 76 % 1015,6 hPa 0,0 l/m 15,8 km/h (3 Bft) W 262 0 min 0,000 mm 0,9 UV-I 269 W/m 10,8 C 10,9 C 25,7 km/h (4 Bft) 92,86 %
25.10.2018 13:06 15,1 C 11,1 C 17,2 C 76 % 1015,6 hPa 0,0 l/m 17,4 km/h (3 Bft) NW 316 0 min 0,000 mm 0,6 UV-I 182 W/m 10,9 C 10,6 C 30,6 km/h (5 Bft) 95,45 %
25.10.2018 13:08 15,0 C 11,1 C 16,7 C 77 % 1015,7 hPa 0,0 l/m 9,9 km/h (2 Bft) W 269 0 min 0,000 mm 0,5 UV-I 127 W/m 11,0 C 13,2 C 17,7 km/h (3 Bft) 92,45 %
25.10.2018 13:10 14,9 C 11,1 C 16,7 C 77 % 1015,7 hPa 0,0 l/m 12,0 km/h (2 Bft) W-NW 294 0 min 0,000 mm 0,6 UV-I 151 W/m 10,9 C 12,2 C 25,7 km/h (4 Bft) 95,12 %
25.10.2018 13:12 14,9 C 11,1 C 16,1 C 77 % 1015,7 hPa 0,0 l/m 11,0 km/h (2 Bft) W 273 0 min 0,000 mm 0,5 UV-I 127 W/m 10,9 C 12,6 C 25,7 km/h (4 Bft) 97,62 %
25.10.2018 13:14 14,8 C 11,1 C 15,6 C 77 % 1015,7 hPa 0,0 l/m 17,7 km/h (3 Bft) W 274 0 min 0,000 mm 0,5 UV-I 112 W/m 10,8 C 10,1 C 29,0 km/h (5 Bft) 94,00 %
25.10.2018 13:16 14,7 C 11,1 C 15,6 C 77 % 1015,7 hPa 0,0 l/m 18,6 km/h (3 Bft) W-SW 254 0 min 0,000 mm 0,6 UV-I 140 W/m 10,7 C 9,7 C 32,2 km/h (5 Bft) 95,12 %
25.10.2018 13:18 14,6 C 11,1 C 15,6 C 77 % 1015,6 hPa 0,0 l/m 17,0 km/h (3 Bft) W 270 0 min 0,000 mm 0,6 UV-I 142 W/m 10,6 C 10,1 C 29,0 km/h (5 Bft) 95,45 %
25.10.2018 13:20 14,6 C 11,1 C 15,6 C 77 % 1015,7 hPa 0,0 l/m 14,4 km/h (3 Bft) W 271 0 min 0,000 mm 0,5 UV-I 125 W/m 10,6 C 10,9 C 25,7 km/h (4 Bft) 96,00 %
25.10.2018 13:22 14,6 C 11,1 C 15,6 C 76 % 1015,7 hPa 0,0 l/m 12,2 km/h (2 Bft) S-SW 206 0 min 0,000 mm 0,5 UV-I 122 W/m 10,4 C 11,7 C 22,5 km/h (4 Bft) 92,45 %
25.10.2018 13:24 14,5 C 11,1 C 15,6 C 76 % 1015,7 hPa 0,0 l/m 14,8 km/h (3 Bft) W-SW 252 0 min 0,000 mm 0,5 UV-I 124 W/m 10,3 C 10,7 C 25,7 km/h (4 Bft) 95,12 %
25.10.2018 13:26 14,4 C 11,1 C 15,6 C 77 % 1015,7 hPa 0,0 l/m 14,9 km/h (3 Bft) W 262 0 min 0,000 mm 0,1 UV-I 116 W/m 10,4 C 10,5 C 19,3 km/h (3 Bft) 96,43 %
25.10.2018 13:28 14,4 C 11,1 C 15,0 C 77 % 1015,7 hPa 0,0 l/m 15,5 km/h (3 Bft) W 271 0 min 0,000 mm 0,0 UV-I 97 W/m 10,4 C 10,3 C 29,0 km/h (5 Bft) 98,00 %
25.10.2018 13:30 14,4 C 11,1 C 15,0 C 77 % 1015,7 hPa 0,0 l/m 14,4 km/h (3 Bft) W 271 0 min 0,000 mm 0,0 UV-I 111 W/m 10,4 C 10,7 C 27,4 km/h (4 Bft) 97,37 %
25.10.2018 13:32 14,4 C 11,1 C 15,6 C 78 % 1015,7 hPa 0,0 l/m 18,9 km/h (3 Bft) W-SW 246 0 min 0,000 mm 0,4 UV-I 150 W/m 10,6 C 9,3 C 30,6 km/h (5 Bft) 98,00 %
25.10.2018 13:34 14,4 C 11,1 C 16,1 C 78 % 1015,7 hPa 0,0 l/m 16,2 km/h (3 Bft) W-SW 256 0 min 0,000 mm 0,8 UV-I 243 W/m 10,6 C 10,1 C 29,0 km/h (5 Bft) 97,87 %
25.10.2018 13:36 14,5 C 11,1 C 16,7 C 78 % 1015,7 hPa 0,0 l/m 20,0 km/h (4 Bft) W-SW 257 2 min 0,000 mm 1,1 UV-I 292 W/m 10,7 C 9,1 C 41,8 km/h (6 Bft) 98,00 %
25.10.2018 13:38 14,7 C 11,1 C 16,7 C 78 % 1015,5 hPa 0,0 l/m 17,3 km/h (3 Bft) W 259 2 min 0,000 mm 1,2 UV-I 594 W/m 10,9 C 10,1 C 27,4 km/h (4 Bft) 95,12 %
25.10.2018 13:40 15,0 C 11,1 C 17,2 C 77 % 1015,5 hPa 0,0 l/m 16,6 km/h (3 Bft) W-SW 254 2 min 0,000 mm 1,2 UV-I 635 W/m 11,0 C 10,7 C 25,7 km/h (4 Bft) 96,23 %
25.10.2018 13:42 15,3 C 11,1 C 17,2 C 76 % 1015,5 hPa 0,0 l/m 22,8 km/h (4 Bft) W 267 2 min 0,000 mm 1,0 UV-I 624 W/m 11,1 C 9,5 C 35,4 km/h (5 Bft) 97,87 %
25.10.2018 13:44 15,3 C 11,1 C 16,7 C 75 % 1015,6 hPa 0,0 l/m 19,3 km/h (3 Bft) W-SW 251 0 min 0,000 mm 0,3 UV-I 175 W/m 10,9 C 10,3 C 33,8 km/h (5 Bft) 97,44 %
25.10.2018 13:46 15,1 C 11,1 C 15,6 C 75 % 1015,6 hPa 0,0 l/m 17,7 km/h (3 Bft) W 259 0 min 0,000 mm 0,0 UV-I 76 W/m 10,7 C 10,5 C 25,7 km/h (4 Bft) 96,36 %
25.10.2018 13:48 14,9 C 11,1 C 15,6 C 76 % 1015,5 hPa 0,0 l/m 18,7 km/h (3 Bft) W-SW 255 0 min 0,000 mm 0,0 UV-I 63 W/m 10,7 C 10,0 C 29,0 km/h (5 Bft) 94,87 %
25.10.2018 13:50 14,8 C 11,1 C 15,0 C 76 % 1015,6 hPa 0,0 l/m 14,8 km/h (3 Bft) W 263 0 min 0,000 mm 0,0 UV-I 65 W/m 10,6 C 11,0 C 27,4 km/h (4 Bft) 98,00 %
25.10.2018 13:52 14,6 C 11,1 C 14,4 C 76 % 1015,5 hPa 0,0 l/m 15,4 km/h (3 Bft) W-NW 303 0 min 0,000 mm 0,0 UV-I 42 W/m 10,4 C 10,6 C 25,7 km/h (4 Bft) 94,34 %
25.10.2018 13:54 14,5 C 11,1 C 14,4 C 77 % 1015,5 hPa 0,0 l/m 14,4 km/h (3 Bft) W 277 0 min 0,000 mm 0,0 UV-I 37 W/m 10,5 C 10,8 C 25,7 km/h (4 Bft) 97,37 %
25.10.2018 13:56 14,4 C 11,1 C 14,4 C 77 % 1015,6 hPa 0,0 l/m 17,3 km/h (3 Bft) W 275 0 min 0,000 mm 0,0 UV-I 40 W/m 10,4 C 9,7 C 29,0 km/h (5 Bft) 98,11 %
25.10.2018 13:58 14,3 C 11,1 C 14,4 C 77 % 1015,5 hPa 0,0 l/m 20,7 km/h (4 Bft) NW 321 0 min 0,000 mm 0,0 UV-I 43 W/m 10,3 C 8,7 C 32,2 km/h (5 Bft) 96,00 %
25.10.2018 14:00 14,2 C 11,1 C 13,9 C 77 % 1015,5 hPa 0,0 l/m 17,7 km/h (3 Bft) W 261 0 min 0,127 mm 0,0 UV-I 45 W/m 10,2 C 9,4 C 29,0 km/h (5 Bft) 97,37 %
25.10.2018 14:02 14,2 C 11,1 C 13,9 C 76 % 1015,5 hPa 0,0 l/m 20,1 km/h (4 Bft) N-NW 330 0 min 0,000 mm 0,0 UV-I 51 W/m 10,0 C 8,7 C 32,2 km/h (5 Bft) 98,21 %
25.10.2018 14:04 14,2 C 11,1 C 14,4 C 76 % 1015,5 hPa 0,0 l/m 17,3 km/h (3 Bft) W 260 0 min 0,000 mm 0,0 UV-I 62 W/m 10,0 C 9,5 C 33,8 km/h (5 Bft) 92,11 %
25.10.2018 14:06 14,1 C 11,1 C 14,4 C 76 % 1015,5 hPa 0,0 l/m 19,8 km/h (3 Bft) W 259 0 min 0,000 mm 0,0 UV-I 66 W/m 9,9 C 8,6 C 33,8 km/h (5 Bft) 95,74 %
25.10.2018 14:08 14,1 C 11,1 C 14,4 C 77 % 1015,5 hPa 0,0 l/m 17,7 km/h (3 Bft) W-NW 303 0 min 0,000 mm 0,0 UV-I 69 W/m 10,1 C 9,2 C 24,1 km/h (4 Bft) 95,74 %
25.10.2018 14:10 14,1 C 11,1 C 14,4 C 77 % 1015,5 hPa 0,0 l/m 14,8 km/h (3 Bft) W-NW 298 0 min 0,000 mm 0,0 UV-I 73 W/m 10,1 C 10,2 C 22,5 km/h (4 Bft) 95,74 %
25.10.2018 14:12 14,1 C 11,1 C 14,4 C 77 % 1015,5 hPa 0,0 l/m 20,9 km/h (4 Bft) W 262 0 min 0,000 mm 0,0 UV-I 96 W/m 10,1 C 8,3 C 38,6 km/h (5 Bft) 97,87 %
25.10.2018 14:14 14,1 C 11,1 C 14,4 C 76 % 1015,5 hPa 0,0 l/m 22,0 km/h (4 Bft) NW 321 0 min 0,000 mm 0,0 UV-I 89 W/m 9,9 C 8,1 C 35,4 km/h (5 Bft) 98,00 %
25.10.2018 14:16 14,1 C 11,1 C 14,4 C 76 % 1015,5 hPa 0,0 l/m 20,7 km/h (4 Bft) W-NW 282 0 min 0,000 mm 0,0 UV-I 92 W/m 9,9 C 8,4 C 33,8 km/h (5 Bft) 100,00 %
25.10.2018 14:18 14,1 C 11,1 C 14,4 C 76 % 1015,4 hPa 0,0 l/m 16,6 km/h (3 Bft) NW 304 0 min 0,000 mm 0,0 UV-I 102 W/m 9,9 C 9,6 C 24,1 km/h (4 Bft) 100,00 %
25.10.2018 14:20 14,1 C 11,1 C 14,4 C 76 % 1015,4 hPa 0,0 l/m 18,6 km/h (3 Bft) W 263 0 min 0,000 mm 0,0 UV-I 110 W/m 9,9 C 9,0 C 32,2 km/h (5 Bft) 100,00 %
25.10.2018 14:22 14,1 C 11,1 C 14,4 C 76 % 1015,5 hPa 0,0 l/m 19,4 km/h (3 Bft) W-SW 249 0 min 0,000 mm 0,0 UV-I 95 W/m 9,9 C 8,7 C 30,6 km/h (5 Bft) 100,00 %
25.10.2018 14:24 14,1 C 11,1 C 14,4 C 76 % 1015,3 hPa 0,0 l/m 15,3 km/h (3 Bft) W 277 0 min 0,000 mm 0,0 UV-I 110 W/m 9,9 C 10,0 C 32,2 km/h (5 Bft) 100,00 %
25.10.2018 14:26 14,1 C 11,1 C 15,0 C 76 % 1015,3 hPa 0,0 l/m 18,0 km/h (3 Bft) W 261 0 min 0,000 mm 0,2 UV-I 131 W/m 9,9 C 9,1 C 29,0 km/h (5 Bft) 92,11 %
25.10.2018 14:28 14,1 C 11,1 C 15,0 C 76 % 1015,3 hPa 0,0 l/m 17,8 km/h (3 Bft) W 273 0 min 0,000 mm 0,4 UV-I 151 W/m 9,9 C 9,2 C 29,0 km/h (5 Bft) 98,31 %
25.10.2018 14:30 14,2 C 11,1 C 15,0 C 76 % 1015,4 hPa 0,0 l/m 21,0 km/h (4 Bft) W 261 0 min 0,000 mm 0,0 UV-I 131 W/m 10,0 C 8,5 C 38,6 km/h (5 Bft) 97,37 %
25.10.2018 14:32 14,2 C 11,1 C 15,0 C 75 % 1015,3 hPa 0,0 l/m 19,6 km/h (3 Bft) W 260 0 min 0,000 mm 0,0 UV-I 102 W/m 9,8 C 8,8 C 29,0 km/h (5 Bft) 96,23 %
25.10.2018 14:34 14,1 C 11,1 C 14,4 C 76 % 1015,3 hPa 0,0 l/m 16,4 km/h (3 Bft) NW 319 0 min 0,000 mm 0,0 UV-I 97 W/m 9,9 C 9,6 C 20,9 km/h (4 Bft) 96,00 %
25.10.2018 14:36 14,1 C 11,1 C 15,0 C 76 % 1015,3 hPa 0,0 l/m 20,8 km/h (4 Bft) W-SW 258 0 min 0,000 mm 0,2 UV-I 125 W/m 9,9 C 8,4 C 32,2 km/h (5 Bft) 97,56 %
25.10.2018 14:38 14,1 C 11,1 C 15,0 C 76 % 1015,3 hPa 0,0 l/m 21,7 km/h (4 Bft) W-SW 257 0 min 0,000 mm 0,5 UV-I 155 W/m 9,9 C 8,1 C 35,4 km/h (5 Bft) 100,00 %
25.10.2018 14:40 14,1 C 11,1 C 15,0 C 76 % 1015,2 hPa 0,0 l/m 22,8 km/h (4 Bft) W 272 0 min 0,000 mm 0,7 UV-I 178 W/m 9,9 C 7,9 C 30,6 km/h (5 Bft) 96,77 %
25.10.2018 14:42 14,1 C 11,1 C 15,6 C 77 % 1015,2 hPa 0,0 l/m 20,3 km/h (4 Bft) W 274 0 min 0,000 mm 0,7 UV-I 197 W/m 10,1 C 8,5 C 29,0 km/h (5 Bft) 94,74 %
25.10.2018 14:44 14,1 C 11,1 C 16,1 C 77 % 1015,2 hPa 0,0 l/m 17,2 km/h (3 Bft) W-NW 287 0 min 0,000 mm 0,8 UV-I 204 W/m 10,1 C 9,4 C 24,1 km/h (4 Bft) 98,00 %
25.10.2018 14:46 14,1 C 11,1 C 15,6 C 77 % 1015,2 hPa 0,0 l/m 23,8 km/h (4 Bft) W 269 0 min 0,000 mm 0,7 UV-I 183 W/m 10,1 C 7,7 C 38,6 km/h (5 Bft) 98,11 %
25.10.2018 14:48 14,1 C 11,1 C 15,6 C 77 % 1015,2 hPa 0,0 l/m 20,2 km/h (4 Bft) W 273 0 min 0,000 mm 0,7 UV-I 184 W/m 10,1 C 8,5 C 37,0 km/h (5 Bft) 97,37 %
25.10.2018 14:50 14,1 C 11,1 C 15,6 C 77 % 1015,3 hPa 0,0 l/m 21,4 km/h (4 Bft) W-SW 243 0 min 0,000 mm 0,7 UV-I 191 W/m 10,1 C 8,2 C 29,0 km/h (5 Bft) 100,00 %
25.10.2018 14:52 14,1 C 11,1 C 15,6 C 77 % 1015,2 hPa 0,0 l/m 18,7 km/h (3 Bft) W-SW 255 0 min 0,000 mm 0,7 UV-I 204 W/m 10,1 C 8,9 C 33,8 km/h (5 Bft) 100,00 %
25.10.2018 14:54 14,1 C 11,1 C 15,6 C 78 % 1015,3 hPa 0,0 l/m 21,5 km/h (4 Bft) W 275 0 min 0,000 mm 0,7 UV-I 208 W/m 10,3 C 8,2 C 30,6 km/h (5 Bft) 100,00 %
25.10.2018 14:56 14,1 C 11,1 C 15,6 C 78 % 1015,3 hPa 0,0 l/m 22,7 km/h (4 Bft) W 277 0 min 0,000 mm 0,7 UV-I 204 W/m 10,3 C 7,9 C 29,0 km/h (5 Bft) 100,00 %
25.10.2018 14:58 14,1 C 11,1 C 15,6 C 79 % 1015,2 hPa 0,0 l/m 17,0 km/h (3 Bft) SW 233 0 min 0,000 mm 0,7 UV-I 201 W/m 10,5 C 9,4 C 27,4 km/h (4 Bft) 100,00 %
25.10.2018 15:00 14,1 C 11,1 C 15,6 C 79 % 1015,2 hPa 0,0 l/m 20,9 km/h (4 Bft) W-SW 241 0 min 0,127 mm 0,7 UV-I 201 W/m 10,5 C 8,3 C 25,7 km/h (4 Bft) 100,00 %
25.10.2018 15:02 14,1 C 11,1 C 15,6 C 79 % 1015,2 hPa 0,0 l/m 23,6 km/h (4 Bft) W-SW 250 0 min 0,000 mm 0,7 UV-I 192 W/m 10,5 C 7,7 C 37,0 km/h (5 Bft) 100,00 %
25.10.2018 15:04 14,1 C 11,1 C 15,6 C 80 % 1015,2 hPa 0,0 l/m 23,8 km/h (4 Bft) W-SW 253 0 min 0,000 mm 0,7 UV-I 192 W/m 10,7 C 7,7 C 37,0 km/h (5 Bft) 100,00 %
25.10.2018 15:06 14,0 C 11,1 C 15,6 C 80 % 1015,2 hPa 0,0 l/m 23,0 km/h (4 Bft) W 281 0 min 0,000 mm 0,7 UV-I 188 W/m 10,6 C 7,7 C 35,4 km/h (5 Bft) 100,00 %
25.10.2018 15:08 14,0 C 11,1 C 15,6 C 80 % 1015,1 hPa 0,0 l/m 25,9 km/h (4 Bft) W-SW 239 0 min 0,000 mm 0,6 UV-I 167 W/m 10,6 C 7,1 C 35,4 km/h (5 Bft) 97,56 %
25.10.2018 15:10 14,0 C 11,1 C 15,0 C 80 % 1015,1 hPa 0,0 l/m 19,9 km/h (4 Bft) W 263 0 min 0,000 mm 0,6 UV-I 159 W/m 10,6 C 8,5 C 30,6 km/h (5 Bft) 100,00 %
25.10.2018 15:12 14,0 C 11,1 C 15,0 C 79 % 1015,1 hPa 0,0 l/m 25,7 km/h (4 Bft) W 275 0 min 0,000 mm 0,6 UV-I 148 W/m 10,4 C 7,1 C 40,2 km/h (6 Bft) 100,00 %
25.10.2018 15:14 13,9 C 11,1 C 15,0 C 80 % 1015,0 hPa 0,0 l/m 21,6 km/h (4 Bft) W-SW 252 0 min 0,000 mm 0,6 UV-I 142 W/m 10,5 C 7,9 C 32,2 km/h (5 Bft) 100,00 %
25.10.2018 15:16 13,9 C 11,1 C 15,0 C 80 % 1015,0 hPa 0,0 l/m 21,1 km/h (4 Bft) W 261 0 min 0,000 mm 0,6 UV-I 131 W/m 10,5 C 8,0 C 33,8 km/h (5 Bft) 97,56 %
25.10.2018 15:18 13,9 C 11,1 C 14,4 C 80 % 1015,0 hPa 0,0 l/m 22,5 km/h (4 Bft) W-NW 290 0 min 0,000 mm 0,6 UV-I 121 W/m 10,5 C 7,7 C 32,2 km/h (5 Bft) 100,00 %
25.10.2018 15:20 13,9 C 11,1 C 14,4 C 80 % 1015,0 hPa 0,0 l/m 19,4 km/h (3 Bft) W-NW 294 0 min 0,000 mm 0,6 UV-I 139 W/m 10,5 C 8,5 C 30,6 km/h (5 Bft) 100,00 %
25.10.2018 15:22 13,9 C 11,1 C 15,0 C 79 % 1014,9 hPa 0,0 l/m 19,4 km/h (3 Bft) W 275 0 min 0,000 mm 0,6 UV-I 135 W/m 10,3 C 8,5 C 29,0 km/h (5 Bft) 98,00 %
25.10.2018 15:24 13,9 C 11,1 C 15,0 C 79 % 1014,8 hPa 0,0 l/m 26,8 km/h (4 Bft) W-NW 288 0 min 0,000 mm 0,6 UV-I 140 W/m 10,3 C 6,7 C 38,6 km/h (5 Bft) 97,56 %
25.10.2018 15:26 13,9 C 11,1 C 14,4 C 79 % 1014,9 hPa 0,0 l/m 27,5 km/h (4 Bft) W 260 0 min 0,000 mm 0,6 UV-I 126 W/m 10,3 C 6,6 C 40,2 km/h (6 Bft) 100,00 %
25.10.2018 15:28 13,9 C 11,1 C 14,4 C 79 % 1014,7 hPa 0,0 l/m 20,6 km/h (4 Bft) W 260 0 min 0,000 mm 0,6 UV-I 110 W/m 10,3 C 8,2 C 35,4 km/h (5 Bft) 100,00 %
25.10.2018 15:30 13,9 C 11,1 C 13,9 C 78 % 1014,7 hPa 0,0 l/m 22,6 km/h (4 Bft) W 259 0 min 0,000 mm 0,5 UV-I 88 W/m 10,1 C 7,7 C 30,6 km/h (5 Bft) 100,00 %
25.10.2018 15:32 13,9 C 11,1 C 13,9 C 78 % 1014,7 hPa 0,0 l/m 19,4 km/h (3 Bft) SW 229 0 min 0,000 mm 0,5 UV-I 79 W/m 10,1 C 8,5 C 30,6 km/h (5 Bft) 100,00 %
25.10.2018 15:34 13,8 C 11,1 C 13,9 C 78 % 1014,7 hPa 0,0 l/m 18,6 km/h (3 Bft) SW 223 0 min 0,000 mm 0,5 UV-I 92 W/m 10,0 C 8,6 C 32,2 km/h (5 Bft) 100,00 %
25.10.2018 15:36 13,8 C 11,1 C 13,9 C 79 % 1014,7 hPa 0,0 l/m 18,8 km/h (3 Bft) W 281 0 min 0,000 mm 0,5 UV-I 101 W/m 10,2 C 8,5 C 27,4 km/h (4 Bft) 98,00 %
25.10.2018 15:38 13,8 C 11,1 C 13,9 C 79 % 1014,6 hPa 0,0 l/m 21,4 km/h (4 Bft) W-SW 258 0 min 0,000 mm 0,5 UV-I 107 W/m 10,2 C 7,8 C 32,2 km/h (5 Bft) 100,00 %
25.10.2018 15:40 13,8 C 11,1 C 13,9 C 79 % 1014,7 hPa 0,0 l/m 18,9 km/h (3 Bft) W-SW 253 0 min 0,000 mm 0,5 UV-I 95 W/m 10,2 C 8,5 C 24,1 km/h (4 Bft) 97,37 %
25.10.2018 15:42 13,8 C 11,1 C 13,9 C 79 % 1014,6 hPa 0,0 l/m 21,0 km/h (4 Bft) W 277 0 min 0,000 mm 0,5 UV-I 98 W/m 10,2 C 7,9 C 32,2 km/h (5 Bft) 98,31 %
25.10.2018 15:44 13,8 C 11,1 C 13,9 C 79 % 1014,6 hPa 0,0 l/m 20,0 km/h (4 Bft) W 269 0 min 0,000 mm 0,5 UV-I 105 W/m 10,2 C 8,2 C 30,6 km/h (5 Bft) 97,56 %
25.10.2018 15:46 13,8 C 11,1 C 13,9 C 79 % 1014,7 hPa 0,0 l/m 22,2 km/h (4 Bft) W 267 0 min 0,000 mm 0,3 UV-I 97 W/m 10,2 C 7,6 C 35,4 km/h (5 Bft) 96,23 %
25.10.2018 15:49 13,8 C 11,1 C 13,9 C 79 % 1014,6 hPa 0,0 l/m 20,9 km/h (4 Bft) W 273 0 min 0,000 mm 0,0 UV-I 125 W/m 10,2 C 8,0 C 32,2 km/h (5 Bft) 98,63 %
25.10.2018 15:50 13,8 C 11,1 C 13,9 C 79 % 1014,6 hPa 0,0 l/m 22,7 km/h (4 Bft) SW 233 0 min 0,000 mm 0,0 UV-I 126 W/m 10,2 C 7,5 C 29,0 km/h (5 Bft) 100,00 %
25.10.2018 15:52 13,9 C 11,1 C 14,4 C 79 % 1014,6 hPa 0,0 l/m 23,0 km/h (4 Bft) W-SW 255 0 min 0,000 mm 0,0 UV-I 137 W/m 10,3 C 7,6 C 45,1 km/h (6 Bft) 94,34 %
25.10.2018 15:54 13,9 C 11,1 C 14,4 C 78 % 1014,6 hPa 0,0 l/m 20,3 km/h (4 Bft) W-SW 258 0 min 0,000 mm 0,0 UV-I 141 W/m 10,1 C 8,2 C 33,8 km/h (5 Bft) 95,12 %
25.10.2018 15:56 13,9 C 11,1 C 14,4 C 78 % 1014,6 hPa 0,0 l/m 22,9 km/h (4 Bft) W-NW 298 0 min 0,000 mm 0,0 UV-I 115 W/m 10,1 C 7,6 C 33,8 km/h (5 Bft) 94,64 %
25.10.2018 15:58 13,9 C 11,1 C 14,4 C 78 % 1014,6 hPa 0,0 l/m 19,9 km/h (4 Bft) W 260 0 min 0,000 mm 0,0 UV-I 128 W/m 10,1 C 8,4 C 30,6 km/h (5 Bft) 97,37 %
25.10.2018 16:00 14,0 C 11,1 C 14,4 C 78 % 1014,6 hPa 0,0 l/m 20,3 km/h (4 Bft) W-NW 290 2 min 0,000 mm 0,0 UV-I 185 W/m 10,2 C 8,4 C 29,0 km/h (5 Bft) 94,00 %
25.10.2018 16:02 14,0 C 11,1 C 14,4 C 78 % 1014,6 hPa 0,0 l/m 19,4 km/h (3 Bft) W 261 0 min 0,127 mm 0,0 UV-I 151 W/m 10,2 C 8,6 C 32,2 km/h (5 Bft) 96,00 %
25.10.2018 16:04 14,1 C 11,1 C 14,4 C 78 % 1014,6 hPa 0,0 l/m 18,8 km/h (3 Bft) W 273 2 min 0,000 mm 0,0 UV-I 218 W/m 10,3 C 8,9 C 33,8 km/h (5 Bft) 92,00 %
25.10.2018 16:06 14,1 C 11,1 C 14,4 C 78 % 1014,5 hPa 0,0 l/m 20,6 km/h (4 Bft) W 279 2 min 0,000 mm 0,0 UV-I 233 W/m 10,3 C 8,4 C 40,2 km/h (6 Bft) 95,74 %
25.10.2018 16:08 14,1 C 11,1 C 13,9 C 77 % 1014,5 hPa 0,0 l/m 25,6 km/h (4 Bft) W 277 2 min 0,000 mm 0,0 UV-I 146 W/m 10,1 C 7,3 C 43,5 km/h (6 Bft) 93,62 %
25.10.2018 16:10 14,1 C 11,1 C 13,9 C 77 % 1014,5 hPa 0,0 l/m 23,2 km/h (4 Bft) W-NW 289 0 min 0,000 mm 0,0 UV-I 96 W/m 10,1 C 7,8 C 33,8 km/h (5 Bft) 91,67 %
25.10.2018 16:12 14,1 C 11,1 C 13,9 C 77 % 1014,6 hPa 0,0 l/m 22,1 km/h (4 Bft) W 261 0 min 0,000 mm 0,0 UV-I 92 W/m 10,1 C 8,0 C 33,8 km/h (5 Bft) 95,52 %
25.10.2018 16:14 14,1 C 11,1 C 13,9 C 77 % 1014,6 hPa 0,0 l/m 21,2 km/h (4 Bft) W 266 0 min 0,000 mm 0,0 UV-I 89 W/m 10,1 C 8,3 C 32,2 km/h (5 Bft) 100,00 %
25.10.2018 16:16 14,0 C 11,1 C 13,9 C 78 % 1014,6 hPa 0,0 l/m 19,3 km/h (3 Bft) W 278 0 min 0,000 mm 0,0 UV-I 76 W/m 10,2 C 8,6 C 25,7 km/h (4 Bft) 98,00 %
25.10.2018 16:18 13,9 C 11,1 C 13,9 C 78 % 1014,6 hPa 0,0 l/m 22,9 km/h (4 Bft) W-SW 251 0 min 0,000 mm 0,0 UV-I 82 W/m 10,1 C 7,6 C 32,2 km/h (5 Bft) 100,00 %
25.10.2018 16:20 13,9 C 11,1 C 13,9 C 79 % 1014,7 hPa 0,0 l/m 17,8 km/h (3 Bft) W 267 0 min 0,000 mm 0,0 UV-I 94 W/m 10,3 C 9,0 C 25,7 km/h (4 Bft) 100,00 %
25.10.2018 16:22 13,9 C 11,1 C 13,9 C 79 % 1014,6 hPa 0,0 l/m 20,0 km/h (4 Bft) W 260 0 min 0,000 mm 0,0 UV-I 91 W/m 10,3 C 8,3 C 30,6 km/h (5 Bft) 98,00 %
25.10.2018 16:24 13,9 C 11,1 C 13,9 C 79 % 1014,6 hPa 0,0 l/m 18,5 km/h (3 Bft) W 275 0 min 0,000 mm 0,0 UV-I 98 W/m 10,3 C 8,7 C 27,4 km/h (4 Bft) 98,00 %
25.10.2018 16:26 13,9 C 11,1 C 14,4 C 79 % 1014,6 hPa 0,0 l/m 18,4 km/h (3 Bft) W-NW 290 0 min 0,000 mm 0,0 UV-I 101 W/m 10,3 C 8,8 C 30,6 km/h (5 Bft) 100,00 %
25.10.2018 16:28 13,9 C 11,1 C 14,4 C 79 % 1014,7 hPa 0,0 l/m 18,9 km/h (3 Bft) W-NW 294 0 min 0,000 mm 0,0 UV-I 93 W/m 10,3 C 8,6 C 29,0 km/h (5 Bft) 97,87 %
25.10.2018 16:30 13,9 C 11,1 C 14,4 C 79 % 1014,6 hPa 0,0 l/m 20,9 km/h (4 Bft) W 264 0 min 0,000 mm 0,0 UV-I 88 W/m 10,3 C 8,1 C 30,6 km/h (5 Bft) 100,00 %
25.10.2018 16:32 13,9 C 11,1 C 14,4 C 79 % 1014,6 hPa 0,0 l/m 16,1 km/h (3 Bft) W 275 0 min 0,000 mm 0,0 UV-I 90 W/m 10,3 C 9,5 C 25,7 km/h (4 Bft) 100,00 %
25.10.2018 16:34 13,9 C 11,1 C 14,4 C 79 % 1014,7 hPa 0,0 l/m 19,6 km/h (3 Bft) W 263 0 min 0,000 mm 0,0 UV-I 101 W/m 10,3 C 8,4 C 32,2 km/h (5 Bft) 100,00 %
25.10.2018 16:36 13,9 C 11,1 C 14,4 C 79 % 1014,6 hPa 0,0 l/m 23,7 km/h (4 Bft) W 281 2 min 0,000 mm 0,0 UV-I 191 W/m 10,3 C 7,4 C 38,6 km/h (5 Bft) 100,00 %
25.10.2018 16:38 14,0 C 11,1 C 14,4 C 78 % 1014,6 hPa 0,0 l/m 24,6 km/h (4 Bft) W-NW 298 2 min 0,000 mm 0,0 UV-I 176 W/m 10,2 C 7,3 C 38,6 km/h (5 Bft) 97,37 %
25.10.2018 16:40 14,1 C 11,1 C 14,4 C 78 % 1014,6 hPa 0,0 l/m 17,3 km/h (3 Bft) W-SW 240 2 min 0,000 mm 0,0 UV-I 174 W/m 10,3 C 9,4 C 22,5 km/h (4 Bft) 100,00 %
25.10.2018 16:42 14,1 C 11,1 C 14,4 C 78 % 1014,5 hPa 0,0 l/m 25,0 km/h (4 Bft) W-SW 258 2 min 0,000 mm 0,0 UV-I 102 W/m 10,3 C 7,4 C 41,8 km/h (6 Bft) 100,00 %
25.10.2018 16:44 14,1 C 11,1 C 14,4 C 77 % 1014,6 hPa 0,0 l/m 24,4 km/h (4 Bft) W-SW 251 0 min 0,000 mm 0,0 UV-I 83 W/m 10,1 C 7,5 C 38,6 km/h (5 Bft) 100,00 %
25.10.2018 16:46 14,1 C 11,1 C 14,4 C 77 % 1014,6 hPa 0,0 l/m 19,0 km/h (3 Bft) W 266 0 min 0,000 mm 0,0 UV-I 75 W/m 10,1 C 8,9 C 29,0 km/h (5 Bft) 100,00 %
25.10.2018 16:48 14,1 C 11,1 C 14,4 C 78 % 1014,6 hPa 0,0 l/m 16,3 km/h (3 Bft) W 265 0 min 0,000 mm 0,0 UV-I 76 W/m 10,3 C 9,7 C 24,1 km/h (4 Bft) 100,00 %
25.10.2018 16:50 14,1 C 11,1 C 14,4 C 78 % 1014,6 hPa 0,0 l/m 18,7 km/h (3 Bft) W 266 0 min 0,000 mm 0,0 UV-I 80 W/m 10,3 C 8,9 C 29,0 km/h (5 Bft) 100,00 %
25.10.2018 16:52 14,1 C 11,1 C 14,4 C 78 % 1014,6 hPa 0,0 l/m 19,8 km/h (3 Bft) W 263 0 min 0,000 mm 0,0 UV-I 80 W/m 10,3 C 8,6 C 35,4 km/h (5 Bft) 97,56 %
25.10.2018 16:54 14,0 C 11,1 C 14,4 C 78 % 1014,6 hPa 0,0 l/m 18,2 km/h (3 Bft) W-NW 288 0 min 0,000 mm 0,0 UV-I 66 W/m 10,2 C 9,0 C 25,7 km/h (4 Bft) 96,23 %
25.10.2018 16:56 14,0 C 11,1 C 13,9 C 77 % 1014,6 hPa 0,0 l/m 21,8 km/h (4 Bft) W 271 0 min 0,000 mm 0,0 UV-I 60 W/m 10,0 C 8,0 C 32,2 km/h (5 Bft) 97,62 %
25.10.2018 16:58 14,0 C 11,1 C 13,9 C 77 % 1014,6 hPa 0,0 l/m 18,8 km/h (3 Bft) W-SW 256 0 min 0,000 mm 0,0 UV-I 46 W/m 10,0 C 8,8 C 29,0 km/h (5 Bft) 97,56 %
25.10.2018 17:00 13,9 C 11,1 C 13,9 C 77 % 1014,6 hPa 0,0 l/m 16,1 km/h (3 Bft) W 267 0 min 0,000 mm 0,0 UV-I 41 W/m 9,9 C 9,5 C 22,5 km/h (4 Bft) 98,00 %
25.10.2018 17:02 13,9 C 11,1 C 13,9 C 77 % 1014,6 hPa 0,0 l/m 17,1 km/h (3 Bft) W 269 0 min 0,101 mm 0,0 UV-I 39 W/m 9,9 C 9,2 C 33,8 km/h (5 Bft) 97,73 %
25.10.2018 17:04 13,9 C 11,1 C 13,9 C 78 % 1014,6 hPa 0,0 l/m 17,8 km/h (3 Bft) NW 317 0 min 0,000 mm 0,0 UV-I 32 W/m 10,1 C 9,0 C 24,1 km/h (4 Bft) 95,74 %
25.10.2018 17:06 13,8 C 11,1 C 13,9 C 77 % 1014,6 hPa 0,0 l/m 26,6 km/h (4 Bft) W 274 0 min 0,000 mm 0,0 UV-I 28 W/m 9,8 C 6,6 C 38,6 km/h (5 Bft) 98,21 %
25.10.2018 17:08 13,8 C 11,1 C 13,9 C 77 % 1014,5 hPa 0,0 l/m 21,0 km/h (4 Bft) W-NW 294 0 min 0,000 mm 0,0 UV-I 26 W/m 9,8 C 7,9 C 32,2 km/h (5 Bft) 100,00 %
25.10.2018 17:10 13,8 C 11,1 C 13,9 C 77 % 1014,6 hPa 0,0 l/m 19,4 km/h (3 Bft) W 260 0 min 0,000 mm 0,0 UV-I 25 W/m 9,8 C 8,4 C 33,8 km/h (5 Bft) 97,18 %
25.10.2018 17:12 13,8 C 11,1 C 13,3 C 77 % 1014,5 hPa 0,0 l/m 19,3 km/h (3 Bft) W 279 0 min 0,000 mm 0,0 UV-I 21 W/m 9,8 C 8,4 C 29,0 km/h (5 Bft) 97,14 %
25.10.2018 17:14 13,8 C 11,1 C 13,3 C 77 % 1014,6 hPa 0,0 l/m 19,6 km/h (3 Bft) W 275 0 min 0,000 mm 0,0 UV-I 18 W/m 9,8 C 8,3 C 30,6 km/h (5 Bft) 98,00 %
25.10.2018 17:16 13,7 C 11,1 C 13,3 C 77 % 1014,6 hPa 0,0 l/m 22,6 km/h (4 Bft) W-NW 285 0 min 0,000 mm 0,0 UV-I 19 W/m 9,7 C 7,4 C 37,0 km/h (5 Bft) 96,23 %
25.10.2018 17:18 13,7 C 11,1 C 13,3 C 76 % 1014,6 hPa 0,0 l/m 14,9 km/h (3 Bft) W 277 0 min 0,000 mm 0,0 UV-I 23 W/m 9,5 C 9,7 C 29,0 km/h (5 Bft) 97,87 %
25.10.2018 17:20 13,7 C 11,1 C 13,3 C 76 % 1014,6 hPa 0,0 l/m 17,8 km/h (3 Bft) W-SW 255 0 min 0,000 mm 0,0 UV-I 25 W/m 9,5 C 8,7 C 29,0 km/h (5 Bft) 97,37 %
25.10.2018 17:22 13,7 C 11,1 C 13,3 C 77 % 1014,6 hPa 0,0 l/m 20,2 km/h (4 Bft) W 281 0 min 0,000 mm 0,0 UV-I 25 W/m 9,7 C 8,0 C 32,2 km/h (5 Bft) 94,00 %
25.10.2018 17:24 13,7 C 11,1 C 13,3 C 77 % 1014,6 hPa 0,0 l/m 14,7 km/h (3 Bft) W-NW 290 0 min 0,000 mm 0,0 UV-I 26 W/m 9,7 C 9,7 C 24,1 km/h (4 Bft) 91,49 %
25.10.2018 17:26 13,6 C 11,1 C 13,3 C 77 % 1014,6 hPa 0,0 l/m 19,0 km/h (3 Bft) W 281 0 min 0,000 mm 0,0 UV-I 25 W/m 9,6 C 8,2 C 27,4 km/h (4 Bft) 95,74 %
25.10.2018 17:28 13,6 C 11,1 C 13,3 C 77 % 1014,6 hPa 0,0 l/m 14,2 km/h (3 Bft) W-NW 289 0 min 0,000 mm 0,0 UV-I 21 W/m 9,6 C 9,8 C 29,0 km/h (5 Bft) 95,74 %
25.10.2018 17:30 13,6 C 11,1 C 13,3 C 77 % 1014,7 hPa 0,0 l/m 14,9 km/h (3 Bft) W 279 0 min 0,000 mm 0,0 UV-I 19 W/m 9,6 C 9,5 C 24,1 km/h (4 Bft) 96,00 %
25.10.2018 17:32 13,5 C 11,1 C 13,3 C 78 % 1014,6 hPa 0,0 l/m 14,5 km/h (3 Bft) W-NW 294 0 min 0,000 mm 0,0 UV-I 19 W/m 9,7 C 9,6 C 25,7 km/h (4 Bft) 94,87 %
25.10.2018 17:34 13,5 C 11,1 C 13,3 C 78 % 1014,6 hPa 0,0 l/m 17,8 km/h (3 Bft) W-NW 289 0 min 0,000 mm 0,0 UV-I 18 W/m 9,7 C 8,4 C 29,0 km/h (5 Bft) 96,15 %
25.10.2018 17:36 13,4 C 11,1 C 13,3 C 78 % 1014,7 hPa 0,0 l/m 16,7 km/h (3 Bft) NW 305 0 min 0,000 mm 0,0 UV-I 17 W/m 9,6 C 8,7 C 24,1 km/h (4 Bft) 96,23 %
25.10.2018 17:38 13,4 C 11,1 C 13,3 C 78 % 1014,7 hPa 0,0 l/m 18,1 km/h (3 Bft) W-SW 258 0 min 0,000 mm 0,0 UV-I 16 W/m 9,6 C 8,2 C 29,0 km/h (5 Bft) 94,87 %
25.10.2018 17:40 13,4 C 11,1 C 13,3 C 78 % 1014,6 hPa 0,0 l/m 18,5 km/h (3 Bft) W-NW 285 0 min 0,000 mm 0,0 UV-I 14 W/m 9,6 C 8,1 C 32,2 km/h (5 Bft) 94,34 %
25.10.2018 17:42 13,4 C 11,1 C 13,3 C 78 % 1014,6 hPa 0,0 l/m 17,4 km/h (3 Bft) W 275 0 min 0,000 mm 0,0 UV-I 12 W/m 9,6 C 8,4 C 25,7 km/h (4 Bft) 92,11 %
25.10.2018 17:44 13,4 C 11,1 C 12,8 C 78 % 1014,6 hPa 0,0 l/m 18,7 km/h (3 Bft) W-SW 257 0 min 0,000 mm 0,0 UV-I 11 W/m 9,6 C 8,1 C 33,8 km/h (5 Bft) 94,34 %
25.10.2018 17:46 13,4 C 11,1 C 12,8 C 78 % 1014,6 hPa 0,0 l/m 15,4 km/h (3 Bft) SW 227 2 min 0,000 mm 0,0 UV-I 10 W/m 9,6 C 9,1 C 24,1 km/h (4 Bft) 96,00 %
25.10.2018 17:48 13,3 C 11,1 C 12,8 C 78 % 1014,6 hPa 0,0 l/m 20,5 km/h (4 Bft) W-NW 290 0 min 0,000 mm 0,0 UV-I 9 W/m 9,5 C 7,4 C 33,8 km/h (5 Bft) 95,65 %
25.10.2018 17:50 13,3 C 11,1 C 12,8 C 78 % 1014,6 hPa 0,0 l/m 19,8 km/h (3 Bft) W 264 0 min 0,000 mm 0,0 UV-I 8 W/m 9,5 C 7,6 C 30,6 km/h (5 Bft) 94,37 %
25.10.2018 17:52 13,3 C 11,1 C 12,8 C 78 % 1014,5 hPa 0,0 l/m 12,0 km/h (2 Bft) W-NW 287 0 min 0,000 mm 0,0 UV-I 7 W/m 9,5 C 10,3 C 22,5 km/h (4 Bft) 95,12 %
25.10.2018 17:54 13,2 C 11,1 C 12,8 C 78 % 1014,5 hPa 0,0 l/m 16,0 km/h (3 Bft) N-NW 345 0 min 0,000 mm 0,0 UV-I 7 W/m 9,4 C 8,7 C 25,7 km/h (4 Bft) 94,34 %
25.10.2018 17:56 13,2 C 11,1 C 12,8 C 79 % 1014,4 hPa 0,0 l/m 13,5 km/h (3 Bft) W 265 0 min 0,000 mm 0,0 UV-I 7 W/m 9,6 C 9,6 C 22,5 km/h (4 Bft) 94,74 %
25.10.2018 17:59 13,2 C 11,1 C 12,8 C 79 % 1014,4 hPa 0,0 l/m 16,7 km/h (3 Bft) W 267 0 min 0,000 mm 0,0 UV-I 7 W/m 9,6 C 8,4 C 32,2 km/h (5 Bft) 95,95 %
25.10.2018 18:00 13,2 C 11,1 C 12,8 C 79 % 1014,4 hPa 0,0 l/m 17,8 km/h (3 Bft) W 281 0 min 0,051 mm 0,0 UV-I 7 W/m 9,6 C 8,1 C 27,4 km/h (4 Bft) 96,15 %
25.10.2018 18:02 13,1 C 11,1 C 12,2 C 79 % 1014,4 hPa 0,0 l/m 17,8 km/h (3 Bft) W-NW 288 0 min 0,000 mm 0,0 UV-I 7 W/m 9,5 C 7,9 C 27,4 km/h (4 Bft) 96,30 %
25.10.2018 18:04 13,1 C 11,1 C 12,2 C 79 % 1014,4 hPa 0,0 l/m 12,6 km/h (3 Bft) W-SW 258 0 min 0,000 mm 0,0 UV-I 6 W/m 9,5 C 9,8 C 20,9 km/h (4 Bft) 98,21 %
25.10.2018 18:06 13,0 C 11,1 C 12,2 C 79 % 1014,3 hPa 0,0 l/m 12,3 km/h (3 Bft) W-NW 282 0 min 0,000 mm 0,0 UV-I 5 W/m 9,4 C 9,8 C 20,9 km/h (4 Bft) 97,83 %
25.10.2018 18:08 12,9 C 11,1 C 12,2 C 80 % 1014,4 hPa 0,0 l/m 16,1 km/h (3 Bft) W-NW 286 0 min 0,000 mm 0,0 UV-I 5 W/m 9,5 C 8,3 C 27,4 km/h (4 Bft) 94,55 %
25.10.2018 18:10 12,9 C 11,1 C 12,2 C 80 % 1014,4 hPa 0,0 l/m 15,7 km/h (3 Bft) W 267 0 min 0,000 mm 0,0 UV-I 5 W/m 9,5 C 8,4 C 32,2 km/h (5 Bft) 97,87 %
25.10.2018 18:12 12,9 C 11,1 C 11,7 C 80 % 1014,4 hPa 0,0 l/m 14,4 km/h (3 Bft) W-NW 289 0 min 0,000 mm 0,0 UV-I 5 W/m 9,5 C 8,9 C 25,7 km/h (4 Bft) 95,83 %
25.10.2018 18:14 12,8 C 11,1 C 11,7 C 80 % 1014,5 hPa 0,0 l/m 15,7 km/h (3 Bft) W-SW 257 0 min 0,000 mm 0,0 UV-I 0 W/m 9,4 C 8,3 C 22,5 km/h (4 Bft) 100,00 %
25.10.2018 18:16 12,8 C 11,1 C 11,7 C 80 % 1014,6 hPa 0,0 l/m 19,5 km/h (3 Bft) W 266 0 min 0,000 mm 0,0 UV-I 0 W/m 9,4 C 7,0 C 29,0 km/h (5 Bft) 100,00 %
25.10.2018 18:18 12,8 C 11,1 C 11,7 C 80 % 1014,6 hPa 0,0 l/m 17,7 km/h (3 Bft) W 270 0 min 0,000 mm 0,0 UV-I 0 W/m 9,4 C 7,6 C 29,0 km/h (5 Bft) 100,00 %
25.10.2018 18:20 12,8 C 11,1 C 11,7 C 81 % 1014,6 hPa 0,0 l/m 14,9 km/h (3 Bft) W-SW 253 0 min 0,000 mm 0,0 UV-I 0 W/m 9,6 C 8,6 C 29,0 km/h (5 Bft) 100,00 %
25.10.2018 18:22 12,7 C 11,1 C 11,1 C 81 % 1014,6 hPa 0,0 l/m 11,8 km/h (2 Bft) W-SW 245 0 min 0,000 mm 0,0 UV-I 0 W/m 9,5 C 9,7 C 16,1 km/h (3 Bft) 98,00 %
25.10.2018 18:24 12,6 C 11,1 C 11,7 C 81 % 1014,7 hPa 0,0 l/m 15,5 km/h (3 Bft) W 269 0 min 0,000 mm 0,0 UV-I 0 W/m 9,4 C 8,1 C 24,1 km/h (4 Bft) 100,00 %
25.10.2018 18:26 12,6 C 11,1 C 11,1 C 81 % 1014,7 hPa 0,0 l/m 12,0 km/h (2 Bft) W 260 0 min 0,000 mm 0,0 UV-I 0 W/m 9,4 C 9,5 C 20,9 km/h (4 Bft) 100,00 %
25.10.2018 18:28 12,5 C 11,1 C 11,1 C 82 % 1014,8 hPa 0,0 l/m 14,0 km/h (3 Bft) W 262 0 min 0,000 mm 0,0 UV-I 0 W/m 9,5 C 8,5 C 22,5 km/h (4 Bft) 98,00 %
25.10.2018 18:30 12,4 C 11,1 C 11,1 C 82 % 1014,7 hPa 0,0 l/m 15,5 km/h (3 Bft) W 267 0 min 0,000 mm 0,0 UV-I 0 W/m 9,4 C 7,9 C 24,1 km/h (4 Bft) 100,00 %
25.10.2018 18:32 12,4 C 11,1 C 11,1 C 82 % 1014,7 hPa 0,0 l/m 13,4 km/h (3 Bft) W 269 0 min 0,000 mm 0,0 UV-I 0 W/m 9,4 C 8,7 C 19,3 km/h (3 Bft) 100,00 %
25.10.2018 18:34 12,3 C 11,1 C 11,1 C 82 % 1014,7 hPa 0,0 l/m 13,4 km/h (3 Bft) W-SW 247 0 min 0,000 mm 0,0 UV-I 0 W/m 9,3 C 8,6 C 22,5 km/h (4 Bft) 100,00 %
25.10.2018 18:36 12,3 C 11,1 C 10,6 C 82 % 1014,7 hPa 0,0 l/m 13,4 km/h (3 Bft) W 269 0 min 0,000 mm 0,0 UV-I 0 W/m 9,3 C 8,6 C 22,5 km/h (4 Bft) 100,00 %
25.10.2018 18:38 12,2 C 11,1 C 10,6 C 82 % 1014,8 hPa 0,0 l/m 10,5 km/h (2 Bft) W 271 0 min 0,000 mm 0,0 UV-I 0 W/m 9,2 C 9,8 C 16,1 km/h (3 Bft) 98,11 %
25.10.2018 18:40 12,2 C 11,1 C 10,6 C 83 % 1014,8 hPa 0,0 l/m 12,4 km/h (3 Bft) W-NW 287 0 min 0,000 mm 0,0 UV-I 0 W/m 9,4 C 8,9 C 19,3 km/h (3 Bft) 96,23 %
25.10.2018 18:42 12,1 C 11,1 C 10,6 C 83 % 1014,8 hPa 0,0 l/m 12,5 km/h (3 Bft) W 281 0 min 0,000 mm 0,0 UV-I 0 W/m 9,3 C 8,7 C 17,7 km/h (3 Bft) 100,00 %
25.10.2018 18:44 12,1 C 11,1 C 10,6 C 83 % 1014,8 hPa 0,0 l/m 9,5 km/h (2 Bft) W 259 0 min 0,000 mm 0,0 UV-I 0 W/m 9,3 C 10,2 C 12,9 km/h (3 Bft) 96,08 %
25.10.2018 18:46 12,0 C 11,1 C 10,6 C 83 % 1014,8 hPa 0,0 l/m 11,0 km/h (2 Bft) W-SW 248 0 min 0,000 mm 0,0 UV-I 0 W/m 9,2 C 9,3 C 14,5 km/h (3 Bft) 94,00 %
25.10.2018 18:48 11,9 C 11,1 C 10,0 C 83 % 1014,8 hPa 0,0 l/m 8,0 km/h (2 Bft) W 273 0 min 0,000 mm 0,0 UV-I 0 W/m 9,1 C 10,8 C 14,5 km/h (3 Bft) 97,44 %
25.10.2018 18:50 11,9 C 11,1 C 10,0 C 83 % 1014,8 hPa 0,0 l/m 11,6 km/h (2 Bft) W 279 0 min 0,000 mm 0,0 UV-I 0 W/m 9,1 C 8,9 C 14,5 km/h (3 Bft) 98,18 %
25.10.2018 18:52 11,9 C 11,1 C 10,0 C 83 % 1014,8 hPa 0,0 l/m 8,7 km/h (2 Bft) W-SW 252 0 min 0,000 mm 0,0 UV-I 0 W/m 9,1 C 10,4 C 16,1 km/h (3 Bft) 97,78 %
25.10.2018 18:54 11,9 C 11,1 C 10,0 C 83 % 1014,8 hPa 0,0 l/m 8,2 km/h (2 Bft) W-NW 286 0 min 0,000 mm 0,0 UV-I 0 W/m 9,1 C 10,7 C 12,9 km/h (3 Bft) 93,62 %
25.10.2018 18:56 11,9 C 11,1 C 10,0 C 83 % 1014,9 hPa 0,0 l/m 9,4 km/h (2 Bft) W-SW 258 0 min 0,000 mm 0,0 UV-I 0 W/m 9,1 C 10,0 C 16,1 km/h (3 Bft) 96,00 %
25.10.2018 18:58 11,9 C 11,1 C 10,6 C 83 % 1014,9 hPa 0,0 l/m 9,9 km/h (2 Bft) W-SW 249 0 min 0,000 mm 0,0 UV-I 0 W/m 9,1 C 9,7 C 16,1 km/h (3 Bft) 96,00 %
25.10.2018 19:00 11,9 C 11,1 C 10,0 C 83 % 1014,9 hPa 0,0 l/m 9,0 km/h (2 Bft) W 271 0 min 0,026 mm 0,0 UV-I 0 W/m 9,1 C 10,2 C 14,5 km/h (3 Bft) 92,11 %
25.10.2018 19:02 11,8 C 11,1 C 10,0 C 83 % 1014,9 hPa 0,0 l/m 9,5 km/h (2 Bft) W 262 0 min 0,000 mm 0,0 UV-I 0 W/m 9,0 C 9,9 C 14,5 km/h (3 Bft) 98,11 %
25.10.2018 19:04 11,8 C 11,1 C 10,0 C 84 % 1014,9 hPa 0,0 l/m 7,2 km/h (2 Bft) W-SW 237 0 min 0,000 mm 0,0 UV-I 0 W/m 9,2 C 11,3 C 12,9 km/h (3 Bft) 97,56 %
25.10.2018 19:06 11,8 C 11,1 C 10,0 C 84 % 1015,0 hPa 0,0 l/m 8,2 km/h (2 Bft) W-SW 250 0 min 0,000 mm 0,0 UV-I 0 W/m 9,2 C 10,6 C 16,1 km/h (3 Bft) 100,00 %
25.10.2018 19:08 11,8 C 11,1 C 10,0 C 84 % 1015,0 hPa 0,0 l/m 6,5 km/h (2 Bft) W-SW 254 0 min 0,000 mm 0,0 UV-I 0 W/m 9,2 C 11,8 C 12,9 km/h (3 Bft) 97,87 %
25.10.2018 19:10 11,7 C 11,1 C 10,0 C 84 % 1015,0 hPa 0,0 l/m 8,3 km/h (2 Bft) W 259 0 min 0,000 mm 0,0 UV-I 0 W/m 9,1 C 10,5 C 12,9 km/h (3 Bft) 100,00 %
25.10.2018 19:12 11,7 C 11,1 C 10,0 C 84 % 1015,0 hPa 0,0 l/m 11,3 km/h (2 Bft) W-SW 257 0 min 0,000 mm 0,0 UV-I 0 W/m 9,1 C 8,8 C 16,1 km/h (3 Bft) 98,11 %
25.10.2018 19:14 11,7 C 11,1 C 10,0 C 84 % 1015,0 hPa 0,0 l/m 8,3 km/h (2 Bft) W-SW 249 0 min 0,000 mm 0,0 UV-I 0 W/m 9,1 C 10,5 C 14,5 km/h (3 Bft) 100,00 %
25.10.2018 19:16 11,7 C 11,1 C 10,0 C 84 % 1015,0 hPa 0,0 l/m 6,8 km/h (2 Bft) W-SW 248 0 min 0,000 mm 0,0 UV-I 0 W/m 9,1 C 11,4 C 11,3 km/h (2 Bft) 100,00 %
25.10.2018 19:18 11,7 C 11,1 C 10,0 C 84 % 1015,1 hPa 0,0 l/m 8,8 km/h (2 Bft) W-SW 241 0 min 0,000 mm 0,0 UV-I 0 W/m 9,1 C 10,1 C 16,1 km/h (3 Bft) 100,00 %
25.10.2018 19:20 11,6 C 11,1 C 10,0 C 84 % 1015,0 hPa 0,0 l/m 8,7 km/h (2 Bft) W 260 0 min 0,000 mm 0,0 UV-I 0 W/m 9,0 C 10,1 C 14,5 km/h (3 Bft) 100,00 %
25.10.2018 19:22 11,6 C 11,1 C 10,0 C 84 % 1015,1 hPa 0,0 l/m 7,5 km/h (2 Bft) W 259 0 min 0,000 mm 0,0 UV-I 0 W/m 9,0 C 10,9 C 12,9 km/h (3 Bft) 100,00 %
25.10.2018 19:24 11,5 C 11,1 C 9,4 C 84 % 1015,0 hPa 0,0 l/m 8,9 km/h (2 Bft) W-SW 258 0 min 0,000 mm 0,0 UV-I 0 W/m 8,9 C 9,9 C 12,9 km/h (3 Bft) 100,00 %
25.10.2018 19:26 11,6 C 11,1 C 10,0 C 84 % 1015,1 hPa 0,0 l/m 7,5 km/h (2 Bft) SW 231 0 min 0,000 mm 0,0 UV-I 0 W/m 9,0 C 10,9 C 12,9 km/h (3 Bft) 100,00 %
25.10.2018 19:29 11,6 C 11,1 C 10,0 C 84 % 1015,1 hPa 0,0 l/m 9,6 km/h (2 Bft) W-SW 247 0 min 0,000 mm 0,0 UV-I 0 W/m 9,0 C 9,6 C 14,5 km/h (3 Bft) 100,00 %
25.10.2018 19:30 11,6 C 11,1 C 10,0 C 84 % 1015,1 hPa 0,0 l/m 10,2 km/h (2 Bft) W-SW 238 0 min 0,000 mm 0,0 UV-I 0 W/m 9,0 C 9,3 C 16,1 km/h (3 Bft) 100,00 %
25.10.2018 19:32 11,6 C 11,1 C 10,0 C 84 % 1015,1 hPa 0,0 l/m 10,5 km/h (2 Bft) W-SW 243 0 min 0,000 mm 0,0 UV-I 0 W/m 9,0 C 9,1 C 14,5 km/h (3 Bft) 100,00 %
25.10.2018 19:34 11,5 C 11,1 C 10,0 C 84 % 1015,2 hPa 0,0 l/m 8,7 km/h (2 Bft) W-SW 252 0 min 0,000 mm 0,0 UV-I 0 W/m 8,9 C 10,0 C 16,1 km/h (3 Bft) 100,00 %
25.10.2018 19:36 11,5 C 11,1 C 10,0 C 85 % 1015,2 hPa 0,0 l/m 7,4 km/h (2 Bft) W 264 0 min 0,000 mm 0,0 UV-I 0 W/m 9,1 C 10,8 C 11,3 km/h (2 Bft) 100,00 %
25.10.2018 19:39 11,3 C 11,1 C 9,4 C 85 % 1015,2 hPa 0,0 l/m 7,9 km/h (2 Bft) W 269 0 min 0,000 mm 0,0 UV-I 0 W/m 8,9 C 10,3 C 12,9 km/h (3 Bft) 100,00 %
25.10.2018 19:40 11,3 C 11,1 C 9,4 C 85 % 1015,2 hPa 0,0 l/m 8,3 km/h (2 Bft) W-SW 257 0 min 0,000 mm 0,0 UV-I 0 W/m 8,9 C 10,0 C 11,3 km/h (2 Bft) 100,00 %
25.10.2018 19:42 11,3 C 11,1 C 9,4 C 85 % 1015,2 hPa 0,0 l/m 5,9 km/h (2 Bft) W 263 0 min 0,000 mm 0,0 UV-I 0 W/m 8,9 C 11,3 C 9,7 km/h (2 Bft) 97,56 %
25.10.2018 19:44 11,3 C 11,1 C 9,4 C 85 % 1015,2 hPa 0,0 l/m 5,8 km/h (2 Bft) W 263 0 min 0,000 mm 0,0 UV-I 0 W/m 8,9 C 11,3 C 9,7 km/h (2 Bft) 98,31 %
25.10.2018 19:46 11,2 C 11,1 C 9,4 C 86 % 1015,3 hPa 0,0 l/m 7,7 km/h (2 Bft) W-SW 249 0 min 0,000 mm 0,0 UV-I 0 W/m 8,9 C 10,3 C 11,3 km/h (2 Bft) 97,14 %
25.10.2018 19:48 11,2 C 11,1 C 9,4 C 86 % 1015,2 hPa 0,0 l/m 6,6 km/h (2 Bft) SW 220 0 min 0,000 mm 0,0 UV-I 0 W/m 8,9 C 11,1 C 9,7 km/h (2 Bft) 98,00 %
25.10.2018 19:50 11,2 C 11,1 C 9,4 C 86 % 1015,2 hPa 0,0 l/m 7,2 km/h (2 Bft) W-SW 257 0 min 0,000 mm 0,0 UV-I 0 W/m 8,9 C 10,6 C 11,3 km/h (2 Bft) 97,87 %
25.10.2018 19:52 11,2 C 11,1 C 9,4 C 86 % 1015,2 hPa 0,0 l/m 6,7 km/h (2 Bft) W 261 0 min 0,000 mm 0,0 UV-I 0 W/m 8,9 C 11,0 C 11,3 km/h (2 Bft) 97,87 %
25.10.2018 19:54 11,1 C 11,1 C 9,4 C 86 % 1015,2 hPa 0,0 l/m 9,2 km/h (2 Bft) W-SW 254 0 min 0,000 mm 0,0 UV-I 0 W/m 8,8 C 9,3 C 12,9 km/h (3 Bft) 97,87 %
25.10.2018 19:56 11,2 C 11,1 C 10,0 C 86 % 1015,2 hPa 0,0 l/m 9,3 km/h (2 Bft) W-SW 238 0 min 0,000 mm 0,0 UV-I 0 W/m 8,9 C 9,3 C 14,5 km/h (3 Bft) 96,00 %
25.10.2018 19:58 11,1 C 11,1 C 10,0 C 86 % 1015,2 hPa 0,0 l/m 9,9 km/h (2 Bft) SW 234 0 min 0,000 mm 0,0 UV-I 0 W/m 8,8 C 8,9 C 16,1 km/h (3 Bft) 95,12 %
25.10.2018 20:00 11,1 C 11,1 C 9,4 C 86 % 1015,3 hPa 0,0 l/m 8,6 km/h (2 Bft) SW 223 0 min 0,025 mm 0,0 UV-I 0 W/m 8,8 C 9,6 C 12,9 km/h (3 Bft) 98,11 %
25.10.2018 20:02 11,0 C 11,1 C 9,4 C 86 % 1015,3 hPa 0,0 l/m 8,6 km/h (2 Bft) S-SW 208 0 min 0,000 mm 0,0 UV-I 0 W/m 8,7 C 9,5 C 12,9 km/h (3 Bft) 96,00 %
25.10.2018 20:04 10,9 C 11,1 C 9,4 C 86 % 1015,2 hPa 0,0 l/m 8,1 km/h (2 Bft) SW 233 0 min 0,000 mm 0,0 UV-I 0 W/m 8,7 C 9,7 C 12,9 km/h (3 Bft) 95,74 %
25.10.2018 20:06 10,9 C 11,1 C 9,4 C 87 % 1015,1 hPa 0,0 l/m 7,6 km/h (2 Bft) SW 221 0 min 0,000 mm 0,0 UV-I 0 W/m 8,8 C 10,1 C 11,3 km/h (2 Bft) 95,74 %
25.10.2018 20:09 10,8 C 11,1 C 9,4 C 87 % 1015,2 hPa 0,0 l/m 9,1 km/h (2 Bft) SW 234 0 min 0,000 mm 0,0 UV-I 0 W/m 8,7 C 9,0 C 14,5 km/h (3 Bft) 95,95 %
25.10.2018 20:10 10,8 C 11,1 C 9,4 C 87 % 1015,2 hPa 0,0 l/m 9,3 km/h (2 Bft) W-SW 239 0 min 0,000 mm 0,0 UV-I 0 W/m 8,7 C 8,9 C 14,5 km/h (3 Bft) 91,67 %
25.10.2018 20:12 10,7 C 11,1 C 8,9 C 87 % 1015,2 hPa 0,0 l/m 8,2 km/h (2 Bft) W-SW 248 0 min 0,000 mm 0,0 UV-I 0 W/m 8,6 C 9,5 C 12,9 km/h (3 Bft) 95,45 %
25.10.2018 20:14 10,7 C 11,1 C 8,9 C 87 % 1015,2 hPa 0,0 l/m 8,4 km/h (2 Bft) W-SW 244 0 min 0,000 mm 0,0 UV-I 0 W/m 8,6 C 9,3 C 12,9 km/h (3 Bft) 94,34 %
25.10.2018 20:16 10,6 C 11,1 C 8,9 C 88 % 1015,3 hPa 0,0 l/m 9,2 km/h (2 Bft) SW 236 0 min 0,000 mm 0,0 UV-I 0 W/m 8,7 C 8,7 C 14,5 km/h (3 Bft) 98,00 %
25.10.2018 20:18 10,6 C 11,1 C 8,9 C 88 % 1015,2 hPa 0,0 l/m 10,1 km/h (2 Bft) SW 232 0 min 0,000 mm 0,0 UV-I 0 W/m 8,7 C 8,2 C 16,1 km/h (3 Bft) 97,87 %
25.10.2018 20:20 10,6 C 11,1 C 8,9 C 88 % 1015,3 hPa 0,0 l/m 11,0 km/h (2 Bft) SW 225 0 min 0,000 mm 0,0 UV-I 0 W/m 8,7 C 7,7 C 16,1 km/h (3 Bft) 97,37 %
25.10.2018 20:22 10,5 C 11,1 C 9,4 C 88 % 1015,2 hPa 0,0 l/m 10,5 km/h (2 Bft) W-SW 244 0 min 0,000 mm 0,0 UV-I 0 W/m 8,6 C 7,9 C 14,5 km/h (3 Bft) 98,11 %
25.10.2018 20:24 10,5 C 11,1 C 9,4 C 88 % 1015,2 hPa 0,0 l/m 13,1 km/h (3 Bft) W-SW 257 0 min 0,000 mm 0,0 UV-I 0 W/m 8,6 C 6,6 C 19,3 km/h (3 Bft) 97,87 %
25.10.2018 20:26 10,5 C 11,1 C 9,4 C 88 % 1015,2 hPa 0,0 l/m 13,6 km/h (3 Bft) SW 217 0 min 0,000 mm 0,0 UV-I 0 W/m 8,6 C 6,3 C 17,7 km/h (3 Bft) 100,00 %
25.10.2018 20:28 10,6 C 11,1 C 10,0 C 88 % 1015,2 hPa 0,0 l/m 13,0 km/h (3 Bft) W-SW 255 0 min 0,000 mm 0,0 UV-I 0 W/m 8,7 C 6,7 C 16,1 km/h (3 Bft) 100,00 %
25.10.2018 20:30 10,6 C 11,1 C 10,0 C 88 % 1015,2 hPa 0,0 l/m 11,1 km/h (2 Bft) W-SW 249 0 min 0,000 mm 0,0 UV-I 0 W/m 8,7 C 7,7 C 16,1 km/h (3 Bft) 97,37 %
25.10.2018 20:32 10,6 C 11,1 C 10,0 C 88 % 1015,2 hPa 0,0 l/m 13,9 km/h (3 Bft) SW 223 0 min 0,000 mm 0,0 UV-I 0 W/m 8,7 C 6,3 C 19,3 km/h (3 Bft) 100,00 %
25.10.2018 20:34 10,7 C 11,1 C 10,6 C 88 % 1015,2 hPa 0,0 l/m 11,8 km/h (2 Bft) W-SW 247 0 min 0,000 mm 0,0 UV-I 0 W/m 8,8 C 7,4 C 17,7 km/h (3 Bft) 100,00 %
25.10.2018 20:36 10,8 C 11,1 C 10,6 C 88 % 1015,3 hPa 0,0 l/m 8,1 km/h (2 Bft) W 266 0 min 0,000 mm 0,0 UV-I 0 W/m 8,9 C 9,6 C 11,3 km/h (2 Bft) 97,73 %
25.10.2018 20:38 10,8 C 11,1 C 10,6 C 88 % 1015,3 hPa 0,0 l/m 8,5 km/h (2 Bft) SW 230 0 min 0,000 mm 0,0 UV-I 0 W/m 8,9 C 9,4 C 12,9 km/h (3 Bft) 100,00 %
25.10.2018 20:40 10,9 C 11,1 C 10,6 C 88 % 1015,2 hPa 0,0 l/m 8,4 km/h (2 Bft) W 271 0 min 0,000 mm 0,0 UV-I 0 W/m 9,0 C 9,5 C 12,9 km/h (3 Bft) 100,00 %
25.10.2018 20:42 10,9 C 11,1 C 10,6 C 88 % 1015,2 hPa 0,0 l/m 11,3 km/h (2 Bft) W 268 0 min 0,000 mm 0,0 UV-I 0 W/m 9,0 C 7,9 C 14,5 km/h (3 Bft) 100,00 %
25.10.2018 20:44 10,9 C 11,1 C 10,6 C 87 % 1015,2 hPa 0,0 l/m 10,0 km/h (2 Bft) W-SW 257 0 min 0,000 mm 0,0 UV-I 0 W/m 8,8 C 8,6 C 14,5 km/h (3 Bft) 100,00 %
25.10.2018 20:46 11,0 C 11,1 C 10,6 C 87 % 1015,2 hPa 0,0 l/m 10,6 km/h (2 Bft) W 281 0 min 0,000 mm 0,0 UV-I 0 W/m 8,9 C 8,4 C 17,7 km/h (3 Bft) 100,00 %
25.10.2018 20:48 11,1 C 11,1 C 10,6 C 87 % 1015,2 hPa 0,0 l/m 11,9 km/h (2 Bft) W 270 0 min 0,000 mm 0,0 UV-I 0 W/m 9,0 C 7,8 C 17,7 km/h (3 Bft) 97,56 %
25.10.2018 20:50 11,2 C 11,1 C 10,6 C 87 % 1015,3 hPa 0,0 l/m 10,1 km/h (2 Bft) W 273 0 min 0,000 mm 0,0 UV-I 0 W/m 9,1 C 8,9 C 16,1 km/h (3 Bft) 98,21 %
25.10.2018 20:52 11,3 C 11,1 C 11,1 C 87 % 1015,3 hPa 0,0 l/m 12,1 km/h (2 Bft) W 276 0 min 0,000 mm 0,0 UV-I 0 W/m 9,2 C 8,0 C 17,7 km/h (3 Bft) 96,88 %
25.10.2018 20:54 11,3 C 11,1 C 11,1 C 87 % 1015,3 hPa 0,0 l/m 7,6 km/h (2 Bft) W 273 0 min 0,000 mm 0,0 UV-I 0 W/m 9,2 C 10,5 C 14,5 km/h (3 Bft) 98,21 %
25.10.2018 20:56 11,4 C 11,1 C 11,1 C 86 % 1015,3 hPa 0,0 l/m 8,7 km/h (2 Bft) W 267 0 min 0,000 mm 0,0 UV-I 0 W/m 9,1 C 9,9 C 14,5 km/h (3 Bft) 97,73 %
25.10.2018 20:58 11,4 C 11,1 C 11,1 C 86 % 1015,3 hPa 0,0 l/m 6,6 km/h (2 Bft) S-SW 202 0 min 0,000 mm 0,0 UV-I 0 W/m 9,1 C 11,3 C 9,7 km/h (2 Bft) 95,74 %
25.10.2018 21:00 11,3 C 11,1 C 11,1 C 86 % 1015,3 hPa 0,0 l/m 6,4 km/h (2 Bft) S-SW 211 0 min 0,025 mm 0,0 UV-I 0 W/m 9,0 C 11,3 C 11,3 km/h (2 Bft) 97,87 %
25.10.2018 21:02 11,3 C 11,1 C 11,1 C 86 % 1015,3 hPa 0,0 l/m 7,2 km/h (2 Bft) S-SW 206 0 min 0,000 mm 0,0 UV-I 0 W/m 9,0 C 10,8 C 11,3 km/h (2 Bft) 97,87 %
25.10.2018 21:04 11,3 C 11,1 C 11,1 C 86 % 1015,3 hPa 0,0 l/m 10,0 km/h (2 Bft) SW 214 0 min 0,000 mm 0,0 UV-I 0 W/m 9,0 C 9,0 C 14,5 km/h (3 Bft) 97,73 %
25.10.2018 21:06 11,2 C 11,1 C 11,1 C 87 % 1015,3 hPa 0,0 l/m 9,6 km/h (2 Bft) S-SW 209 0 min 0,000 mm 0,0 UV-I 0 W/m 9,1 C 9,1 C 12,9 km/h (3 Bft) 98,00 %
25.10.2018 21:09 11,2 C 11,1 C 11,1 C 87 % 1015,4 hPa 0,0 l/m 8,4 km/h (2 Bft) W-SW 244 0 min 0,000 mm 0,0 UV-I 0 W/m 9,1 C 9,9 C 12,9 km/h (3 Bft) 95,95 %
25.10.2018 21:10 11,2 C 11,1 C 11,1 C 87 % 1015,4 hPa 0,0 l/m 7,1 km/h (2 Bft) SW 222 0 min 0,000 mm 0,0 UV-I 0 W/m 9,1 C 10,7 C 9,7 km/h (2 Bft) 100,00 %
25.10.2018 21:12 11,2 C 11,1 C 11,1 C 87 % 1015,4 hPa 0,0 l/m 7,3 km/h (2 Bft) S-SW 213 0 min 0,000 mm 0,0 UV-I 0 W/m 9,1 C 10,6 C 16,1 km/h (3 Bft) 95,74 %
25.10.2018 21:14 11,2 C 11,1 C 11,1 C 87 % 1015,4 hPa 0,0 l/m 9,1 km/h (2 Bft) W-SW 250 0 min 0,000 mm 0,0 UV-I 0 W/m 9,1 C 9,4 C 12,9 km/h (3 Bft) 97,56 %
25.10.2018 21:16 11,2 C 11,1 C 11,1 C 87 % 1015,4 hPa 0,0 l/m 7,5 km/h (2 Bft) SW 217 0 min 0,000 mm 0,0 UV-I 0 W/m 9,1 C 10,4 C 11,3 km/h (2 Bft) 95,74 %
25.10.2018 21:19 11,2 C 11,1 C 11,1 C 87 % 1015,4 hPa 0,0 l/m 8,5 km/h (2 Bft) W-SW 243 0 min 0,000 mm 0,0 UV-I 0 W/m 9,1 C 9,8 C 12,9 km/h (3 Bft) 95,77 %
25.10.2018 21:20 11,2 C 11,1 C 11,1 C 87 % 1015,4 hPa 0,0 l/m 7,7 km/h (2 Bft) SW 226 0 min 0,000 mm 0,0 UV-I 0 W/m 9,1 C 10,3 C 9,7 km/h (2 Bft) 96,15 %
25.10.2018 21:22 11,2 C 11,1 C 11,1 C 87 % 1015,3 hPa 0,0 l/m 7,2 km/h (2 Bft) SW 225 0 min 0,000 mm 0,0 UV-I 0 W/m 9,1 C 10,6 C 11,3 km/h (2 Bft) 100,00 %
25.10.2018 21:24 11,2 C 11,1 C 10,6 C 87 % 1015,3 hPa 0,0 l/m 7,0 km/h (2 Bft) SW 228 0 min 0,000 mm 0,0 UV-I 0 W/m 9,1 C 10,8 C 11,3 km/h (2 Bft) 94,34 %
25.10.2018 21:26 11,2 C 11,1 C 10,6 C 87 % 1015,3 hPa 0,0 l/m 8,0 km/h (2 Bft) W-SW 252 0 min 0,000 mm 0,0 UV-I 0 W/m 9,1 C 10,1 C 12,9 km/h (3 Bft) 94,64 %
25.10.2018 21:28 11,2 C 11,1 C 10,6 C 87 % 1015,3 hPa 0,0 l/m 6,2 km/h (2 Bft) SW 218 0 min 0,000 mm 0,0 UV-I 0 W/m 9,1 C 11,2 C 11,3 km/h (2 Bft) 97,56 %
25.10.2018 21:30 11,2 C 11,1 C 10,6 C 87 % 1015,3 hPa 0,0 l/m 7,3 km/h (2 Bft) W-SW 250 0 min 0,000 mm 0,0 UV-I 0 W/m 9,1 C 10,6 C 11,3 km/h (2 Bft) 95,74 %
25.10.2018 21:32 11,2 C 11,1 C 11,1 C 87 % 1015,3 hPa 0,0 l/m 7,0 km/h (2 Bft) W 269 0 min 0,000 mm 0,0 UV-I 0 W/m 9,1 C 10,8 C 12,9 km/h (3 Bft) 96,00 %
25.10.2018 21:34 11,3 C 11,1 C 11,1 C 86 % 1015,3 hPa 0,0 l/m 11,3 km/h (2 Bft) SW 223 0 min 0,000 mm 0,0 UV-I 0 W/m 9,0 C 8,4 C 17,7 km/h (3 Bft) 96,23 %
25.10.2018 21:36 11,4 C 11,1 C 11,1 C 86 % 1015,3 hPa 0,0 l/m 9,5 km/h (2 Bft) W 274 0 min 0,000 mm 0,0 UV-I 0 W/m 9,1 C 9,4 C 17,7 km/h (3 Bft) 94,74 %
25.10.2018 21:38 11,4 C 11,1 C 11,1 C 86 % 1015,3 hPa 0,0 l/m 8,9 km/h (2 Bft) W-SW 250 0 min 0,000 mm 0,0 UV-I 0 W/m 9,1 C 9,8 C 16,1 km/h (3 Bft) 96,23 %
25.10.2018 21:40 11,4 C 11,1 C 11,1 C 85 % 1015,4 hPa 0,0 l/m 10,2 km/h (2 Bft) W 259 0 min 0,000 mm 0,0 UV-I 0 W/m 9,0 C 9,0 C 12,9 km/h (3 Bft) 95,45 %
25.10.2018 21:42 11,5 C 11,1 C 11,1 C 85 % 1015,3 hPa 0,0 l/m 12,6 km/h (3 Bft) W-SW 247 0 min 0,000 mm 0,0 UV-I 0 W/m 9,1 C 8,0 C 19,3 km/h (3 Bft) 95,12 %
25.10.2018 21:44 11,6 C 11,1 C 11,1 C 84 % 1015,3 hPa 0,0 l/m 12,8 km/h (3 Bft) W 266 0 min 0,000 mm 0,0 UV-I 0 W/m 9,0 C 8,0 C 20,9 km/h (4 Bft) 94,00 %
25.10.2018 21:46 11,7 C 11,1 C 11,1 C 84 % 1015,4 hPa 0,0 l/m 12,3 km/h (3 Bft) W-NW 293 0 min 0,000 mm 0,0 UV-I 0 W/m 9,1 C 8,3 C 24,1 km/h (4 Bft) 94,34 %
25.10.2018 21:48 11,7 C 11,1 C 11,1 C 83 % 1015,4 hPa 0,0 l/m 14,6 km/h (3 Bft) W 269 0 min 0,000 mm 0,0 UV-I 0 W/m 8,9 C 7,4 C 20,9 km/h (4 Bft) 94,74 %
25.10.2018 21:50 11,8 C 11,1 C 11,1 C 82 % 1015,3 hPa 0,0 l/m 11,0 km/h (2 Bft) W-SW 255 0 min 0,000 mm 0,0 UV-I 0 W/m 8,8 C 9,1 C 16,1 km/h (3 Bft) 95,74 %
25.10.2018 21:52 11,8 C 11,1 C 11,7 C 82 % 1015,3 hPa 0,0 l/m 12,4 km/h (3 Bft) W-SW 253 0 min 0,000 mm 0,0 UV-I 0 W/m 8,8 C 8,4 C 19,3 km/h (3 Bft) 94,64 %
25.10.2018 21:54 11,8 C 11,1 C 11,7 C 81 % 1015,4 hPa 0,0 l/m 14,7 km/h (3 Bft) W 278 0 min 0,000 mm 0,0 UV-I 0 W/m 8,6 C 7,4 C 19,3 km/h (3 Bft) 94,74 %
25.10.2018 21:56 11,9 C 11,1 C 11,7 C 81 % 1015,4 hPa 0,0 l/m 12,4 km/h (3 Bft) W-SW 258 0 min 0,000 mm 0,0 UV-I 0 W/m 8,7 C 8,5 C 19,3 km/h (3 Bft) 92,86 %
25.10.2018 21:58 11,9 C 11,1 C 11,7 C 81 % 1015,4 hPa 0,0 l/m 8,8 km/h (2 Bft) W 266 0 min 0,000 mm 0,0 UV-I 0 W/m 8,7 C 10,4 C 17,7 km/h (3 Bft) 95,24 %
25.10.2018 22:00 11,9 C 11,1 C 11,7 C 81 % 1015,4 hPa 0,0 l/m 12,0 km/h (2 Bft) W 277 0 min 0,000 mm 0,0 UV-I 0 W/m 8,7 C 8,7 C 17,7 km/h (3 Bft) 96,15 %
25.10.2018 22:02 11,9 C 11,1 C 11,7 C 80 % 1015,4 hPa 0,0 l/m 11,1 km/h (2 Bft) W-SW 246 0 min 0,026 mm 0,0 UV-I 0 W/m 8,6 C 9,1 C 14,5 km/h (3 Bft) 90,00 %
25.10.2018 22:04 11,9 C 11,1 C 11,7 C 80 % 1015,4 hPa 0,0 l/m 11,7 km/h (2 Bft) W 278 0 min 0,000 mm 0,0 UV-I 0 W/m 8,6 C 8,8 C 16,1 km/h (3 Bft) 96,43 %
25.10.2018 22:06 11,9 C 11,1 C 11,7 C 80 % 1015,5 hPa 0,0 l/m 8,6 km/h (2 Bft) W-SW 244 0 min 0,000 mm 0,0 UV-I 0 W/m 8,6 C 10,5 C 14,5 km/h (3 Bft) 98,21 %
25.10.2018 22:08 11,8 C 11,1 C 11,7 C 80 % 1015,4 hPa 0,0 l/m 10,9 km/h (2 Bft) SW 229 0 min 0,000 mm 0,0 UV-I 0 W/m 8,5 C 9,1 C 14,5 km/h (3 Bft) 97,37 %
25.10.2018 22:10 11,8 C 11,1 C 11,7 C 80 % 1015,4 hPa 0,0 l/m 6,6 km/h (2 Bft) W-SW 252 0 min 0,000 mm 0,0 UV-I 0 W/m 8,5 C 11,7 C 12,9 km/h (3 Bft) 98,11 %
25.10.2018 22:12 11,8 C 11,1 C 11,1 C 80 % 1015,5 hPa 0,0 l/m 5,7 km/h (1 Bft) W-SW 248 0 min 0,000 mm 0,0 UV-I 0 W/m 8,5 C 11,8 C 8,0 km/h (2 Bft) 95,12 %
25.10.2018 22:14 11,7 C 11,1 C 11,1 C 81 % 1015,5 hPa 0,0 l/m 7,4 km/h (2 Bft) SW 231 0 min 0,000 mm 0,0 UV-I 0 W/m 8,5 C 11,0 C 11,3 km/h (2 Bft) 96,00 %
25.10.2018 22:16 11,6 C 11,1 C 11,1 C 82 % 1015,5 hPa 0,0 l/m 8,3 km/h (2 Bft) SW 236 0 min 0,000 mm 0,0 UV-I 0 W/m 8,6 C 10,3 C 12,9 km/h (3 Bft) 98,00 %
25.10.2018 22:18 11,5 C 11,1 C 11,1 C 83 % 1015,5 hPa 0,0 l/m 6,4 km/h (2 Bft) SW 225 0 min 0,000 mm 0,0 UV-I 0 W/m 8,7 C 11,5 C 12,9 km/h (3 Bft) 97,37 %
25.10.2018 22:20 11,4 C 11,1 C 11,1 C 83 % 1015,5 hPa 0,0 l/m 5,7 km/h (1 Bft) SW 219 0 min 0,000 mm 0,0 UV-I 0 W/m 8,6 C 11,4 C 11,3 km/h (2 Bft) 98,00 %
25.10.2018 22:22 11,4 C 11,1 C 11,1 C 84 % 1015,6 hPa 0,0 l/m 7,9 km/h (2 Bft) W-SW 245 0 min 0,000 mm 0,0 UV-I 0 W/m 8,8 C 10,4 C 11,3 km/h (2 Bft) 100,00 %
25.10.2018 22:24 11,3 C 11,1 C 11,1 C 84 % 1015,5 hPa 0,0 l/m 7,7 km/h (2 Bft) W-SW 237 0 min 0,000 mm 0,0 UV-I 0 W/m 8,7 C 10,4 C 11,3 km/h (2 Bft) 100,00 %
25.10.2018 22:26 11,3 C 11,1 C 11,1 C 84 % 1015,5 hPa 0,0 l/m 8,8 km/h (2 Bft) SW 229 0 min 0,000 mm 0,0 UV-I 0 W/m 8,7 C 9,7 C 12,9 km/h (3 Bft) 100,00 %
25.10.2018 22:28 11,3 C 11,1 C 11,1 C 84 % 1015,5 hPa 0,0 l/m 9,2 km/h (2 Bft) SW 219 0 min 0,000 mm 0,0 UV-I 0 W/m 8,7 C 9,5 C 12,9 km/h (3 Bft) 100,00 %
25.10.2018 22:30 11,3 C 11,1 C 11,1 C 84 % 1015,5 hPa 0,0 l/m 9,8 km/h (2 Bft) S-SW 199 0 min 0,000 mm 0,0 UV-I 0 W/m 8,7 C 9,1 C 16,1 km/h (3 Bft) 100,00 %
25.10.2018 22:32 11,3 C 11,1 C 11,1 C 84 % 1015,5 hPa 0,0 l/m 8,8 km/h (2 Bft) SW 214 0 min 0,000 mm 0,0 UV-I 0 W/m 8,7 C 9,7 C 14,5 km/h (3 Bft) 100,00 %
25.10.2018 22:34 11,3 C 11,1 C 11,1 C 84 % 1015,5 hPa 0,0 l/m 8,8 km/h (2 Bft) S-SW 207 0 min 0,000 mm 0,0 UV-I 0 W/m 8,7 C 9,7 C 12,9 km/h (3 Bft) 98,00 %
25.10.2018 22:36 11,3 C 11,1 C 11,1 C 84 % 1015,6 hPa 0,0 l/m 7,7 km/h (2 Bft) W-SW 245 0 min 0,000 mm 0,0 UV-I 0 W/m 8,7 C 10,4 C 12,9 km/h (3 Bft) 100,00 %
25.10.2018 22:38 11,3 C 11,1 C 11,1 C 84 % 1015,5 hPa 0,0 l/m 9,3 km/h (2 Bft) W-SW 250 0 min 0,000 mm 0,0 UV-I 0 W/m 8,7 C 9,4 C 16,1 km/h (3 Bft) 97,73 %
25.10.2018 22:40 11,3 C 11,1 C 11,1 C 84 % 1015,5 hPa 0,0 l/m 9,1 km/h (2 Bft) S-SW 207 0 min 0,000 mm 0,0 UV-I 0 W/m 8,7 C 9,5 C 14,5 km/h (3 Bft) 97,44 %
25.10.2018 22:42 11,3 C 11,1 C 11,1 C 84 % 1015,5 hPa 0,0 l/m 8,1 km/h (2 Bft) SW 223 0 min 0,000 mm 0,0 UV-I 0 W/m 8,7 C 10,2 C 14,5 km/h (3 Bft) 98,00 %
25.10.2018 22:44 11,3 C 11,1 C 11,1 C 84 % 1015,6 hPa 0,0 l/m 8,6 km/h (2 Bft) W-SW 245 0 min 0,000 mm 0,0 UV-I 0 W/m 8,7 C 9,8 C 12,9 km/h (3 Bft) 100,00 %
25.10.2018 22:46 11,3 C 11,1 C 11,1 C 84 % 1015,5 hPa 0,0 l/m 10,0 km/h (2 Bft) S-SW 205 0 min 0,000 mm 0,0 UV-I 0 W/m 8,7 C 9,0 C 12,9 km/h (3 Bft) 98,21 %
25.10.2018 22:48 11,3 C 11,1 C 11,1 C 84 % 1015,6 hPa 0,0 l/m 9,4 km/h (2 Bft) S-SW 201 0 min 0,000 mm 0,0 UV-I 0 W/m 8,7 C 9,4 C 14,5 km/h (3 Bft) 98,00 %
25.10.2018 22:50 11,3 C 11,1 C 11,1 C 84 % 1015,6 hPa 0,0 l/m 10,2 km/h (2 Bft) W-SW 251 0 min 0,000 mm 0,0 UV-I 0 W/m 8,7 C 8,9 C 14,5 km/h (3 Bft) 97,56 %
25.10.2018 22:52 11,3 C 11,1 C 11,1 C 84 % 1015,6 hPa 0,0 l/m 8,7 km/h (2 Bft) W-SW 247 0 min 0,000 mm 0,0 UV-I 0 W/m 8,7 C 9,8 C 14,5 km/h (3 Bft) 97,37 %
25.10.2018 22:54 11,3 C 11,1 C 11,1 C 84 % 1015,6 hPa 0,0 l/m 9,0 km/h (2 Bft) W-SW 243 0 min 0,000 mm 0,0 UV-I 0 W/m 8,7 C 9,6 C 16,1 km/h (3 Bft) 96,43 %
25.10.2018 22:56 11,3 C 11,1 C 11,1 C 84 % 1015,6 hPa 0,0 l/m 11,6 km/h (2 Bft) W-SW 240 0 min 0,000 mm 0,0 UV-I 0 W/m 8,7 C 8,2 C 16,1 km/h (3 Bft) 97,87 %
25.10.2018 22:58 11,3 C 11,1 C 11,1 C 84 % 1015,5 hPa 0,0 l/m 9,5 km/h (2 Bft) SW 235 0 min 0,000 mm 0,0 UV-I 0 W/m 8,7 C 9,3 C 14,5 km/h (3 Bft) 93,62 %
25.10.2018 23:00 11,3 C 11,1 C 11,1 C 84 % 1015,5 hPa 0,0 l/m 9,6 km/h (2 Bft) SW 233 0 min 0,025 mm 0,0 UV-I 0 W/m 8,7 C 9,3 C 14,5 km/h (3 Bft) 93,62 %
25.10.2018 23:02 11,3 C 11,1 C 11,1 C 84 % 1015,5 hPa 0,0 l/m 13,1 km/h (3 Bft) W-SW 254 0 min 0,000 mm 0,0 UV-I 0 W/m 8,7 C 7,5 C 17,7 km/h (3 Bft) 98,00 %
25.10.2018 23:04 11,3 C 11,1 C 11,1 C 84 % 1015,5 hPa 0,0 l/m 10,9 km/h (2 Bft) SW 225 0 min 0,000 mm 0,0 UV-I 0 W/m 8,7 C 8,6 C 17,7 km/h (3 Bft) 92,11 %
25.10.2018 23:06 11,3 C 11,1 C 11,1 C 84 % 1015,5 hPa 0,0 l/m 14,0 km/h (3 Bft) W-SW 240 0 min 0,000 mm 0,0 UV-I 0 W/m 8,7 C 7,1 C 17,7 km/h (3 Bft) 98,21 %
25.10.2018 23:08 11,3 C 11,1 C 11,1 C 84 % 1015,5 hPa 0,0 l/m 14,6 km/h (3 Bft) W-SW 255 0 min 0,000 mm 0,0 UV-I 0 W/m 8,7 C 6,9 C 19,3 km/h (3 Bft) 95,83 %
25.10.2018 23:10 11,3 C 11,1 C 11,1 C 84 % 1015,5 hPa 0,0 l/m 10,9 km/h (2 Bft) SW 235 0 min 0,000 mm 0,0 UV-I 0 W/m 8,7 C 8,6 C 16,1 km/h (3 Bft) 98,51 %
25.10.2018 23:12 11,3 C 11,1 C 11,1 C 84 % 1015,5 hPa 0,0 l/m 11,3 km/h (2 Bft) W-SW 237 0 min 0,000 mm 0,0 UV-I 0 W/m 8,7 C 8,4 C 16,1 km/h (3 Bft) 98,00 %
25.10.2018 23:14 11,3 C 11,1 C 11,1 C 84 % 1015,5 hPa 0,0 l/m 10,2 km/h (2 Bft) W-SW 252 0 min 0,000 mm 0,0 UV-I 0 W/m 8,7 C 8,9 C 16,1 km/h (3 Bft) 97,22 %
25.10.2018 23:16 11,3 C 11,1 C 11,1 C 84 % 1015,5 hPa 0,0 l/m 12,0 km/h (2 Bft) W-SW 250 0 min 0,000 mm 0,0 UV-I 0 W/m 8,7 C 8,0 C 19,3 km/h (3 Bft) 100,00 %
25.10.2018 23:19 11,3 C 11,1 C 11,1 C 84 % 1015,5 hPa 0,0 l/m 11,7 km/h (2 Bft) W-SW 250 0 min 0,000 mm 0,0 UV-I 0 W/m 8,7 C 8,2 C 19,3 km/h (3 Bft) 98,63 %
25.10.2018 23:20 11,3 C 11,1 C 11,1 C 84 % 1015,5 hPa 0,0 l/m 12,5 km/h (3 Bft) SW 227 0 min 0,000 mm 0,0 UV-I 0 W/m 8,7 C 7,8 C 17,7 km/h (3 Bft) 100,00 %
25.10.2018 23:22 11,3 C 11,1 C 11,1 C 83 % 1015,5 hPa 0,0 l/m 11,6 km/h (2 Bft) W-SW 244 0 min 0,000 mm 0,0 UV-I 0 W/m 8,5 C 8,2 C 20,9 km/h (4 Bft) 97,56 %
25.10.2018 23:24 11,3 C 11,1 C 11,1 C 83 % 1015,4 hPa 0,0 l/m 10,6 km/h (2 Bft) SW 230 0 min 0,000 mm 0,0 UV-I 0 W/m 8,5 C 8,7 C 16,1 km/h (3 Bft) 100,00 %
25.10.2018 23:26 11,3 C 11,1 C 11,1 C 83 % 1015,4 hPa 0,0 l/m 10,0 km/h (2 Bft) W-SW 248 0 min 0,000 mm 0,0 UV-I 0 W/m 8,5 C 9,0 C 19,3 km/h (3 Bft) 100,00 %
25.10.2018 23:28 11,3 C 11,1 C 11,1 C 83 % 1015,4 hPa 0,0 l/m 15,0 km/h (3 Bft) W-SW 245 0 min 0,000 mm 0,0 UV-I 0 W/m 8,5 C 6,7 C 20,9 km/h (4 Bft) 100,00 %
25.10.2018 23:30 11,3 C 11,1 C 10,6 C 83 % 1015,4 hPa 0,0 l/m 11,5 km/h (2 Bft) W-SW 257 0 min 0,000 mm 0,0 UV-I 0 W/m 8,5 C 8,3 C 16,1 km/h (3 Bft) 100,00 %
25.10.2018 23:32 11,2 C 11,1 C 10,6 C 83 % 1015,4 hPa 0,0 l/m 9,9 km/h (2 Bft) W-SW 247 0 min 0,000 mm 0,0 UV-I 0 W/m 8,4 C 9,0 C 16,1 km/h (3 Bft) 100,00 %
25.10.2018 23:34 11,2 C 11,1 C 10,6 C 83 % 1015,5 hPa 0,0 l/m 9,1 km/h (2 Bft) W 279 0 min 0,000 mm 0,0 UV-I 0 W/m 8,4 C 9,4 C 12,9 km/h (3 Bft) 95,12 %
25.10.2018 23:36 11,2 C 11,1 C 10,6 C 84 % 1015,5 hPa 0,0 l/m 8,1 km/h (2 Bft) SW 236 0 min 0,000 mm 0,0 UV-I 0 W/m 8,6 C 10,0 C 11,3 km/h (2 Bft) 97,56 %
25.10.2018 23:38 11,2 C 11,1 C 10,6 C 84 % 1015,5 hPa 0,0 l/m 11,5 km/h (2 Bft) W-SW 239 0 min 0,000 mm 0,0 UV-I 0 W/m 8,6 C 8,1 C 16,1 km/h (3 Bft) 100,00 %
25.10.2018 23:40 11,1 C 11,1 C 10,6 C 84 % 1015,4 hPa 0,0 l/m 10,2 km/h (2 Bft) SW 233 0 min 0,000 mm 0,0 UV-I 0 W/m 8,5 C 8,7 C 14,5 km/h (3 Bft) 97,87 %
25.10.2018 23:42 11,1 C 11,1 C 10,6 C 83 % 1015,4 hPa 0,0 l/m 10,0 km/h (2 Bft) SW 227 0 min 0,000 mm 0,0 UV-I 0 W/m 8,3 C 8,8 C 14,5 km/h (3 Bft) 100,00 %
25.10.2018 23:44 11,1 C 11,1 C 10,6 C 84 % 1015,4 hPa 0,0 l/m 9,6 km/h (2 Bft) SW 229 0 min 0,000 mm 0,0 UV-I 0 W/m 8,5 C 9,0 C 14,5 km/h (3 Bft) 98,11 %
25.10.2018 23:46 11,1 C 11,1 C 10,6 C 84 % 1015,4 hPa 0,0 l/m 9,5 km/h (2 Bft) W-SW 237 0 min 0,000 mm 0,0 UV-I 0 W/m 8,5 C 9,1 C 12,9 km/h (3 Bft) 97,37 %
25.10.2018 23:48 11,1 C 11,1 C 10,6 C 84 % 1015,4 hPa 0,0 l/m 11,7 km/h (2 Bft) SW 215 0 min 0,000 mm 0,0 UV-I 0 W/m 8,5 C 7,9 C 16,1 km/h (3 Bft) 98,11 %
25.10.2018 23:50 11,1 C 11,1 C 10,6 C 84 % 1015,4 hPa 0,0 l/m 11,5 km/h (2 Bft) SW 227 0 min 0,000 mm 0,0 UV-I 0 W/m 8,5 C 8,0 C 17,7 km/h (3 Bft) 95,24 %
25.10.2018 23:52 11,1 C 11,1 C 10,6 C 84 % 1015,5 hPa 0,0 l/m 12,3 km/h (3 Bft) W-SW 239 0 min 0,000 mm 0,0 UV-I 0 W/m 8,5 C 7,6 C 19,3 km/h (3 Bft) 98,08 %
25.10.2018 23:54 11,1 C 11,1 C 10,6 C 84 % 1015,5 hPa 0,0 l/m 11,5 km/h (2 Bft) SW 233 0 min 0,000 mm 0,0 UV-I 0 W/m 8,5 C 8,0 C 16,1 km/h (3 Bft) 98,00 %
25.10.2018 23:56 11,1 C 11,1 C 10,6 C 84 % 1015,4 hPa 0,0 l/m 12,4 km/h (3 Bft) SW 223 0 min 0,000 mm 0,0 UV-I 0 W/m 8,5 C 7,6 C 16,1 km/h (3 Bft) 97,22 %
25.10.2018 23:58 11,1 C 11,1 C 10,6 C 84 % 1015,4 hPa 0,0 l/m 11,4 km/h (2 Bft) SW 235 0 min 0,000 mm 0,0 UV-I 0 W/m 8,5 C 8,1 C 17,7 km/h (3 Bft) 96,43 %
_ Min-Zeit 02:42 00:00 20:12 13:44 18:06 - 22:12 - - - - - - 23:42 04:02 22:12 05:56
Minimum _ 10,1 C 11,1 C 8,9 C 75 % 1014,3 hPa - 5,7 km/h (1 Bft) - - - - - - 8,3 C 3,1 C 8,0 km/h (2 Bft) 90,00 %
_ Max-Zeit 13:42 00:00 11:50 02:02 00:00 00:06 11:58 - - 10:02 12:00 12:08 13:40 13:42 13:08 11:58 00:56
Maximum _ 15,3 C 11,1 C 17,8 C 95 % 1020,2 hPa 0,2 l/m 29,8 km/h
W (5 Bft)
- - 2 min 0,178 mm 1,3 UV-I 635 W/m 11,1 C 13,2 C 53,1 km/h
W (7 Bft)
100,00 %
Durchschnitt _ 12,1 C 11,1 C 12,1 C 86 % 1016,8 hPa #0,4 l/m 14,6 km/h (3 Bft) W - #1:28 h #1,346 mm 0,7 UV-I 131 W/m 9,7 C 8,1 C 22,8 km/h (4 Bft) 97,52 %